     2              OBSERVATION DATA    GPS                 RINEX VERSION / TYPE
ASHTORIN 15 - MAY - 99 12:32                                PGM / RUN BY / DATE
                                                            COMMENT
Original Marker Name: SIO2                                  COMMENT
Campaign Name: rose canyon fault                            COMMENT
4-Character Station Name: SIO2                              COMMENT
6-Character Antenna Code: DMRCHT                            COMMENT
Vertical Measurement Point: BPA                             COMMENT
Vertical Offset to Rinex Ref. Point: 0.0000                 COMMENT
Radial Measurement Point: RRP                               COMMENT
Radial Offset to Rinex Ref. Point: 0.0000                   COMMENT
Antenna Height from Field Measurement: 0.0000 m             COMMENT
Additional Antenna Identification Info.:                    COMMENT
Turborogue and Ashtech Choke Ring                           COMMENT
Original XYZ: 0.0000 0.0000 0.0000                          COMMENT
New XYZ position is based on association with SCEC monument COMMENT
E1C8P4W3+0401. Position of that monument is believed to be  COMMENT
valid to within 1 m horizontally; vertical accuracy         COMMENT
should be no worse than 3-times this value.                 COMMENT
                                                            COMMENT
Revised Rinex header created by UCSD GPS archive for        COMMENT
GSAC on 17-Mar-2000 (2000:077) 21:36:34 GMT                 COMMENT
For assistance contact dagnew@ucsd.edu or hjohnson@ucsd.edu COMMENT
                                                            COMMENT
SIO LIBRARY WALL - NORTH                                    MARKER NAME
                                                            MARKER NUMBER
SJB SCRIPPS INSTITUTION OF OCEANOGRAPHY                     OBSERVER / AGENCY
755 ASHTECH Z-XII3 1F501D0                                  REC # / TYPE / VERS
653 DORNE-MARGOL. TYPE T                                    ANT # / TYPE
 -2455539.2483 -4767224.0836  3441628.9071                  APPROX POSITION XYZ
        0.0000        0.0000        0.0000                  ANTENNA: DELTA H/E/N
     1     1     0                                          WAVELENGTH FACT L1/2
     7    L1    L2    C1    P1    P2    D1    D2            # / TYPES OF OBSERV
    30                                                      INTERVAL
  1999     5    11     0     0   30.000000                  TIME OF FIRST OBS
  1999     5    11    17     7   30.000000                  TIME OF LAST OBS
                                                            END OF HEADER
 99  5 11  0  0 30.0000000  0  7 22  3  6 26 23 21 17                0.000000000
  -8159879.083 9  -6340744.75946  23714083.745    23714083.3014   23714098.0274
        -0.000          -0.000
  -8711800.809 9  -6773644.81346  24047564.625    24047564.5984   24047576.3654
        -0.000          -0.000
 -12015205.400 9  -9345410.75648  21651254.480    21651254.4484   21651264.5004
        -0.000          -0.000
  -5175328.016 9  -3398091.38547  22179813.402    22179813.7044   22179822.2134
        -0.000          -0.000
 -23532582.597 9 -18309258.32849  20698259.844    20698259.5134   20698267.1384
        -0.000          -0.000
 -16541574.020 9 -12342156.03547  22717761.152    22717760.9924   22717772.9244
        -0.000          -0.000
 -26944468.012 9 -20456034.60649  20774025.808    20774025.4114   20774033.4494
        -0.000          -0.000
 99  5 11  0  1  0.0000000  0  7 22  3  6 26 23 21 17               -0.000000042
  -8116897.007 9  -6307252.37246  23722263.083    23722262.6394   23722277.6894
        -0.000          -0.000
  -8810996.844 9  -6850940.29746  24028688.181    24028687.9564   24028699.7994
        -0.000          -0.000
 -11932676.782 9  -9281102.86148  21666959.216    21666959.1864   21666969.4294
        -0.000          -0.000
  -5124854.194 9  -3358761.13347  22189418.409    22189418.6554   22189427.1864
        -0.000          -0.000
 -23535469.283 9 -18311507.65249  20697710.618    20697710.2434   20697717.7794
        -0.000          -0.000
 -16604757.405 9 -12391389.67147  22705737.207    22705737.2264   22705749.4394
        -0.000          -0.000
 -26949434.187 9 -20459904.34349  20773080.805    20773080.3864   20773088.2964
        -0.000          -0.000
 99  5 11  0  1 30.0000000  0  8 22  3 29  6 26 23 21 17            -0.000000028
  -8073597.764 9  -6273512.84646  23730502.704    23730502.2354   23730517.2804
        -0.000          -0.000
  -8910036.349 9  -6928113.79246  24009841.472    24009841.0734   24009853.0334
        -0.000          -0.000
   -905983.449 8   -688313.77352         0.000           0.0004          0.0005
        -0.000          -0.000
 -11849779.690 9  -9216507.84248  21682734.244    21682734.2254   21682744.2704
        -0.000          -0.000
  -5073843.085 9  -3319012.20946  22199125.472    22199125.7654   22199134.2474
        -0.000          -0.000
 -23538030.196 9 -18313503.13949  20697223.273    20697222.9114   20697230.4864
        -0.000          -0.000
 -16667725.701 9 -12440455.70247  22693754.456    22693754.5514   22693766.7424
        -0.000          -0.000
 -26954220.500 9 -20463633.92949  20772170.029    20772169.6064   20772177.4284
        -0.000          -0.000
 99  5 11  0  2  0.0000000  0  8 22  3 29  6 26 23 21 17            -0.000000023
  -8029976.676 9  -6239522.53646  23738803.632    23738803.1784   23738817.9514
        -0.000          -0.000
  -9008930.014 9  -7005173.63346  23991022.501    23991022.0724   23991034.2634
        -0.000          -0.000
  -1013405.069 8   -482018.80442         0.000           0.0004          0.0004
        -0.000          -0.000
 -11766510.648 9  -9151622.99248  21698579.985    21698579.9164   21698589.6994
        -0.000          -0.000
  -5022291.036 9  -3278841.78646  22208935.656    22208935.9334   22208944.4124
        -0.000          -0.000
 -23540258.561 9 -18315239.49249  20696799.178    20696798.8144   20696806.3664
        -0.000          -0.000
 -16730468.053 9 -12489345.65947  22681815.147    22681815.1764   22681826.9744
        -0.000          -0.000
 -26958816.851 9 -20467215.49649  20771295.351    20771294.8924   20771302.7434
        -0.000          -0.000
 99  5 11  0  2 30.0000000  0  8 22  3 29  6 26 23 21 17            -0.000000016
  -7986008.107 9  -6205261.47346  23747170.882    23747170.2954   23747184.7124
        -0.000          -0.000
  -9107654.826 9  -7082101.95146  23972235.459    23972235.3374   23972247.5024
        -0.000          -0.000
  -1120898.963 8   -565780.39752         0.000           0.0004          0.0005
        -0.000          -0.000
 -11682851.773 9  -9086434.38347  21714499.849    21714499.7154   21714509.3684
        -0.000          -0.000
  -4970196.475 9  -3238248.64346  22218849.093    22218849.3304   22218857.6574
        -0.000          -0.000
 -23542143.155 9 -18316707.96449  20696440.415    20696440.0634   20696447.6364
        -0.000          -0.000
 -16792940.423 9 -12538025.26047  22669927.419    22669927.2164   22669938.6054
        -0.000          -0.000
 -26963200.090 9 -20470631.00349  20770461.221    20770460.8094   20770468.6034
        -0.000          -0.000
 99  5 11  0  3  0.0000000  0  8 22  3 29  6 26 23 21 17            -0.000000025
  -7941718.251 9  -6170750.04746  23755599.417    23755598.7214   23755612.8704
        -0.000          -0.000
  -9206233.632 9  -7158916.44946  23953476.352    23953476.2744   23953488.5334
        -0.000          -0.000
  -1228496.440 8   -649622.69652         0.000           0.0004          0.0005
        -0.000          -0.000
 -11598836.697 9  -9020968.20347  21730487.361    21730487.2374   21730496.9394
        -0.000          -0.000
  -4917578.829 9  -3197247.88746  22228861.788    22228862.0694   22228870.6474
        -0.000          -0.000
 -23543711.404 9 -18317929.93949  20696141.871    20696141.5204   20696149.1254
        -0.000          -0.000
 -16855165.942 9 -12586512.50147  22658086.451    22658086.0744   22658097.2444
        -0.000          -0.000
 -26967377.356 9 -20473886.01049  20769666.408    20769665.9004   20769673.7334
        -0.000          -0.000
 99  5 11  0  3 30.0000000  0  8 22  3 29  6 26 23 21 17            -0.000000040
  -7897078.362 9  -6135965.88546  23764094.372    23764093.6704   23764107.5774
        -0.000          -0.000
  -9304632.538 9  -7235590.76546  23934751.733    23934751.6064   23934763.6224
        -0.000          -0.000
  -1336163.381 8   -441365.70942         0.000           0.0004          0.0004
        -0.000          -0.000
 -11514447.818 9  -8955210.75747  21746546.056    21746545.9494   21746555.7684
        -0.000          -0.000
  -4864414.969 9  -3155821.52946  22238978.503    22238978.7854   22238987.4744
        -0.000          -0.000
 -23544922.949 9 -18318873.97049  20695911.277    20695910.9094   20695918.6014
        -0.000          -0.000
 -16917124.250 9 -12634791.52547  22646296.039    22646295.6364   22646306.8604
        -0.000          -0.000
 -26971318.655 9 -20476957.16149  20768916.348    20768915.8694   20768923.7964
        -0.000          -0.000
 99  5 11  0  4  0.0000000  0  8 22  3 29  6 26 23 21 17            -0.000000062
  -7852081.256 9  -6100903.39046  23772657.115    23772656.3934   23772670.4044
        -0.000          -0.000
  -9402833.952 9  -7312111.19646  23916064.676    23916064.3634   23916076.1454
        -0.000          -0.000
  -1443887.951 8   -525301.56152         0.000           0.0004          0.0005
        -0.000          -0.000
 -11429685.847 9  -8889162.59048  21762675.774    21762675.7234   21762685.5614
        -0.000          -0.000
  -4810714.781 9  -3113977.24546  22249197.243    22249197.5814   22249206.3004
        -0.000          -0.000
 -23545759.295 9 -18319525.63949  20695752.068    20695751.7294   20695759.4944
        -0.000          -0.000
 -16978814.834 9 -12682861.92247  22634556.544    22634556.2034   22634567.4774
        -0.000          -0.000
 -26975037.104 9 -20479854.65349  20768208.740    20768208.2684   20768216.1264
        -0.000          -0.000
 99  5 11  0  4 30.0000000  0  8 22  3 29  6 26 23 21 17            -0.000000080
  -7806727.895 9  -6065563.29246  23781287.418    23781286.7284   23781301.0324
        -0.000          -0.000
  -9500811.230 9  -7388456.97146  23897420.111    23897419.8014   23897431.3394
        -0.000          -0.000
  -1551647.377 8   -609262.18452         0.000           0.0004          0.0005
        -0.000          -0.000
 -11344525.747 9  -8822804.18748  21778881.289    21778881.2744   21778891.2114
        -0.000          -0.000
  -4756462.626 9  -3071702.81846  22259521.027    22259521.2354   22259530.2524
        -0.000          -0.000
 -23546198.106 9 -18319867.54549  20695668.578    20695668.2374   20695676.0414
        -0.000          -0.000
 -17040228.793 9 -12730716.76647  22622869.786    22622869.4634   22622880.6374
        -0.000          -0.000
 -26978530.572 9 -20482576.82849  20767544.136    20767543.6384   20767551.3374
        -0.000          -0.000
 99  5 11  0  5  0.0000000  0  8 22  3 29  6 26 23 21 17            -0.000000103
  -7761051.884 9  -6029971.76846  23789979.352    23789978.7204   23789993.1134
        -0.000          -0.000
  -9598584.026 9  -7464643.41846  23878814.267    23878814.0024   23878825.5484
        -0.000          -0.000
  -1659461.596 8   -400600.05442         0.000           0.0004          0.0004
        -0.000          -0.000
 -11258971.986 9  -8756139.04648  21795161.742    21795161.7434   21795171.8474
        -0.000          -0.000
  -4701669.157 9  -3029006.63146  22269947.919    22269948.1954   22269957.2754
        -0.000          -0.000
 -23546245.635 9 -18319904.55449  20695659.609    20695659.2134   20695667.0024
        -0.000          -0.000
 -17101395.989 9 -12778379.34647  22611230.097    22611229.6224   22611240.6974
        -0.000          -0.000
 -26981827.117 9 -20485145.57049  20766916.854    20766916.3334   20766924.0114
        -0.000          -0.000
 99  5 11  0  5 30.0000000  0  8 22  3 29  6 26 23 21 17            -0.000000101
  -7715015.558 9  -5994099.48546  23798739.540    23798739.2054   23798753.7074
        -0.000          -0.000
  -9696110.121 9  -7540637.63546  23860255.228    23860255.0104   23860266.7424
        -0.000          -0.000
  -1767288.193 8   -484624.31452         0.000           0.0004          0.0005
        -0.000          -0.000
 -11172992.268 9  -8689141.99548  21811523.255    21811523.2464   21811533.3214
        -0.000          -0.000
  -4646313.854 9  -2985872.65346  22280482.139    22280482.2724   22280490.9584
        -0.000          -0.000
 -23545879.315 9 -18319619.08249  20695729.294    20695728.9254   20695736.6214
        -0.000          -0.000
 -17162278.990 9 -12825820.46747  22599644.260    22599643.7234   22599654.8464
        -0.000          -0.000
 -26984915.076 9 -20487551.78249  20766329.027    20766328.5504   20766336.3374
        -0.000          -0.000
 99  5 11  0  6  0.0000000  0  8 22  3 29  6 26 23 21 17            -0.000000077
  -7668644.918 8  -5957966.67346  23807563.477    23807563.0794   23807578.0404
        -0.000          -0.000
  -9793408.717 9  -7616454.58246  23841739.718    23841739.5274   23841751.2404
        -0.000          -0.000
  -1875161.053 8   -568686.87252         0.000           0.0004          0.0005
        -0.000          -0.000
 -11086622.964 9  -8621841.37948  21827958.978    21827958.9784   21827968.8594
        -0.000          -0.000
  -4590418.851 9  -2942318.12446  22291118.840    22291119.0294   22291127.2714
        -0.000          -0.000
 -23545153.973 9 -18319053.85549  20695867.294    20695866.9194   20695874.6114
        -0.000          -0.000
 -17222899.959 9 -12873057.41447  22588108.012    22588107.5894   22588118.9154
        -0.000          -0.000
 -26987826.869 9 -20489820.71249  20765774.949    20765774.4844   20765782.2544
        -0.000          -0.000
 99  5 11  0  6 30.0000000  0  8 22  3 29  6 26 23 21 17            -0.000000036
  -7621969.808 8  -5921596.65146  23816445.597    23816445.1184   23816460.0574
        -0.000          -0.000
  -9890513.321 9  -7692120.37046  23823261.111    23823261.0104   23823272.7094
        -0.000          -0.000
  -1983101.942 8   -359560.31342         0.000           0.0004          0.0004
        -0.000          -0.000
 -10999885.705 9  -8554254.03747  21844464.623    21844464.6114   21844474.5104
        -0.000          -0.000
  -4533998.362 9  -2898354.12046  22301855.297    22301855.6064   22301863.6894
        -0.000          -0.000
 -23544123.229 9 -18318250.65949  20696063.469    20696063.0744   20696070.7934
        -0.000          -0.000
 -17283283.304 9 -12920109.19047  22576617.127    22576616.7444   22576628.0464
        -0.000          -0.000
 -26990565.326 9 -20491954.57349  20765253.895    20765253.4144   20765261.1864
        -0.000          -0.000
 99  5 11  0  7  0.0000000  0  8 22  3 29  6 26 23 21 17             0.000000016
  -7574998.501 9  -5884995.81245  23825384.541    23825383.7294   23825398.5294
        -0.000          -0.000
  -9987439.602 9  -7767647.20546  23804816.572    23804816.4594   23804828.1834
        -0.000          -0.000
  -2091132.459 8   -443739.12852         0.000           0.0004          0.0005
        -0.000          -0.000
 -10912808.627 9  -8486401.88948  21861035.026    21861035.0204   21861044.9804
        -0.000          -0.000
  -4477071.888 9  -2853995.84346  22312688.407    22312688.6074   22312696.7324
        -0.000          -0.000
 -23542817.249 9 -18317232.99049  20696312.020    20696311.6024   20696319.3854
        -0.000          -0.000
 -17343441.944 9 -12966985.88847  22565169.022    22565168.7494   22565179.9164
        -0.000          -0.000
 -26993143.470 9 -20493963.52649  20764763.292    20764762.7944   20764770.6414
        -0.000          -0.000
 99  5 11  0  7 30.0000000  0  8 22  3 29  6 26 23 21 17             0.000000052
  -7527770.105 9  -5848194.63845  23834372.459    23834371.5884   23834385.9294
        -0.000          -0.000
 -10084228.052 9  -7843066.62346  23786398.331    23786398.0704   23786409.8564
        -0.000          -0.000
  -2199293.208 8   -528019.48552         0.000           0.0004          0.0005
        -0.000          -0.000
 -10825445.227 9  -8418326.63848  21877659.789    21877659.7614   21877669.9284
        -0.000          -0.000
  -4419682.257 9  -2809276.67546  22323609.442    22323609.4674   22323617.5564
        -0.000          -0.000
 -23541293.274 9 -18316045.46049  20696601.962    20696601.5914   20696609.3884
        -0.000          -0.000
 -17403405.411 9 -13013710.50747  22553758.142    22553757.8994   22553769.0304
        -0.000          -0.000
 -26995589.584 9 -20495869.60249  20764297.729    20764297.2764   20764305.1964
        -0.000          -0.000
 99  5 11  0  8  0.0000000  0  8 22  3 29  6 26 23 21 17             0.000000076
  -7480265.753 9  -5811178.43345  23843412.072    23843411.2314   23843425.8674
        -0.000          -0.000
 -10180851.554 9  -7918357.50846  23768011.178    23768011.0084   23768022.9564
        -0.000          -0.000
  -2307551.153 8   -318843.76742         0.000           0.0004          0.0004
        -0.000          -0.000
 -10737753.482 9  -8349995.52547  21894346.960    21894346.9594   21894357.3014
        -0.000          -0.000
  -4361799.370 9  -2764173.15046  22334624.185    22334624.2314   22334632.1934
        -0.000          -0.000
 -23539501.547 9 -18314649.28449  20696943.003    20696942.5954   20696950.2964
        -0.000          -0.000
 -17463129.065 9 -13060248.26547  22542393.132    22542392.8964   22542404.0824
        -0.000          -0.000
 -26997849.668 9 -20497630.70049  20763867.646    20763867.2244   20763875.0754
        -0.000          -0.000
 99  5 11  0  8 30.0000000  0  8 22  3 29  6 26 23 21 17             0.000000071
  -7432483.838 9  -5773945.92946  23852504.384    23852503.7164   23852518.4734
        -0.000          -0.000
 -10277322.302 9  -7993529.38446  23749653.410    23749653.2974   23749665.1054
        -0.000          -0.000
  -2415900.987 8   -403266.09052         0.000           0.0004          0.0005
        -0.000          -0.000
 -10649739.764 9  -8281413.55847  21911095.468    21911095.4744   21911105.8194
        -0.000          -0.000
  -4303441.075 9  -2718699.16346  22345729.317    22345729.2444   22345737.4164
        -0.000          -0.000
 -23537422.905 9 -18313029.54549  20697338.557    20697338.1314   20697345.7154
        -0.000          -0.000
 -17522616.703 9 -13106602.10647  22531072.914    22531072.7134   22531083.8214
        -0.000          -0.000
 -26999928.440 9 -20499250.52749  20763472.090    20763471.6484   20763479.5384
        -0.000          -0.000
 99  5 11  0  9  0.0000000  0  8 22  3 29  6 26 23 21 17             0.000000064
  -7384371.514 9  -5736456.01346  23861660.039    23861659.2864   23861673.8154
        -0.000          -0.000
 -10373585.941 9  -8068539.84646  23731335.138    23731334.8994   23731346.7004
        -0.000          -0.000
  -2524290.827 8   -487711.64452         0.000           0.0004          0.0005
        -0.000          -0.000
 -10561368.256 9  -8212552.77947  21927912.165    21927912.1124   21927922.4164
        -0.000          -0.000
  -4244563.514 9  -2672820.55846  22356932.988    22356933.0884   22356941.6224
        -0.000          -0.000
 -23534992.810 9 -18311135.94749  20697800.928    20697800.5514   20697808.1894
        -0.000          -0.000
 -17581807.729 9 -13152724.81647  22519809.220    22519809.0114   22519820.0334
        -0.000          -0.000
 -27001793.038 9 -20500703.47049  20763117.235    20763116.8134   20763124.7854
        -0.000          -0.000
 99  5 11  0  9 30.0000000  0  8 22  3 29  6 26 23 21 17             0.000000049
  -7335933.528 9  -5698712.31746  23870877.949    23870877.0764   23870891.1274
        -0.000          -0.000
 -10469640.565 9  -8143387.44046  23713056.513    23713056.3024   23713068.0964
        -0.000          -0.000
  -2632712.169 7   -278250.45242         0.000           0.0004          0.0004
        -0.000          -0.000
 -10472643.374 9  -8143416.63747  21944796.093    21944796.0234   21944806.3164
        -0.000          -0.000
  -4185171.580 9  -2626541.17146  22368234.774    22368234.8834   22368243.6004
        -0.000          -0.000
 -23532208.812 9 -18308966.58249  20698330.707    20698330.3244   20698337.9684
        -0.000          -0.000
 -17640709.003 9 -13198621.75447  22508600.704    22508600.3914   22508611.5014
        -0.000          -0.000
 -27003439.008 9 -20501986.04749  20762804.105    20762803.6504   20762811.4694
        -0.000          -0.000
 99  5 11  0 10  0.0000000  0  8 22  3 29  6 26 23 21 17             0.000000014
  -7287180.220 9  -5660722.91446  23880155.699    23880154.7724   23880168.8494
        -0.000          -0.000
 -10565487.815 9  -8218073.45746  23694817.315    23694817.1894   23694828.8734
        -0.000          -0.000
  -2741171.15417   -362761.15052         0.000           0.0005          0.0005
        -0.000          -0.000
 -10383589.129 9  -8074023.85747  21961742.681    21961742.6024   21961752.9074
        -0.000          -0.000
  -4125278.058 9  -2579870.94246  22379632.135    22379632.1844   22379640.8514
        -0.000          -0.000
 -23529068.269 9 -18306519.38649  20698928.363    20698927.9504   20698935.5474
        -0.000          -0.000
 -17699363.663 9 -13244326.53847  22497439.001    22497438.5984   22497449.9474
        -0.000          -0.000
 -27004882.018 9 -20503110.46649  20762529.601    20762529.1104   20762536.7564
        -0.000          -0.000
 99  5 11  0 10 30.0000000  0  8 22  3 29  6 26 23 21 17             0.000000002
  -7238058.871 9  -5622446.74246  23889503.531    23889502.6614   23889517.0284
        -0.000          -0.000
 -10661068.992 9  -8292552.15046  23676628.795    23676628.7214   23676640.2974
        -0.000          -0.000
  -2849609.119 7   -447250.37452         0.000           0.0004          0.0005
        -0.000          -0.000
 -10294170.943 9  -8004347.49747  21978758.514    21978758.5024   21978768.7304
        -0.000          -0.000
  -4064817.648 9  -2532758.95046  22391137.427    22391137.5084   22391146.1944
        -0.000          -0.000
 -23525532.346 9 -18303764.09549  20699601.076    20699600.7154   20699608.2804
        -0.000          -0.000
 -17757733.012 9 -13289809.01647  22486331.424    22486331.1374   22486342.4474
        -0.000          -0.000
 -27006067.060 9 -20504033.88049  20762304.138    20762303.6464   20762311.3134
        -0.000          -0.000
 99  5 11  0 11  0.0000000  0  8 22  3 29  6 26 23 21 17            -0.000000006
  -7188625.252 9  -5583927.23346  23898910.673    23898909.7594   23898924.6064
        -0.000          -0.000
 -10756406.159 9  -8366840.69246  23658486.700    23658486.5804   23658498.1294
        -0.000          -0.000
  -2958060.052 7   -237532.49442         0.000           0.0004          0.0004
        -0.000          -0.000
 -10204415.039 9  -7934407.96847  21995838.532    21995838.5484   21995848.8724
        -0.000          -0.000
  -4003818.441 9  -2485227.10946  22402745.058    22402745.1234   22402754.1604
        -0.000          -0.000
 -23521644.184 9 -18300734.33749  20700340.811    20700340.5134   20700348.1564
        -0.000          -0.000
 -17815854.049 9 -13335097.98147  22475271.445    22475271.1434   22475282.0964
        -0.000          -0.000
 -27007010.837 9 -20504769.29549  20762124.630    20762124.1214   20762131.7364
        -0.000          -0.000
 99  5 11  0 11 30.0000000  0  8 22  3 29  6 26 23 21 17            -0.000000019
  -7138892.849 9  -5545174.93246  23908374.616    23908373.6774   23908388.8304
        -0.000          -0.000
 -10851499.754 9  -8440939.45946  23640390.750    23640390.6894   23640402.1904
        -0.000          -0.000
  -3066524.789 7   -322045.36242         0.000           0.0004          0.0004
        -0.000          -0.000
 -10114325.987 9  -7864208.83747  22012981.814    22012981.8204   22012992.2924
        -0.000          -0.000
  -3942286.912 9  -2437280.46046  22414453.921    22414454.0874   22414463.2504
        -0.000          -0.000
 -23517403.782 9 -18297430.10949  20701147.807    20701147.4944   20701155.1324
        -0.000          -0.000
 -17873744.148 9 -13380207.00547  22464255.430    22464254.9514   22464265.7574
        -0.000          -0.000
 -27007709.041 9 -20505313.34349  20761991.797    20761991.2334   20761998.9144
        -0.000          -0.000
 99  5 11  0 12  0.0000000  0  8 22  3 29  6 26 23 21 17            -0.000000025
  -7088851.279 9  -5506181.70046  23917897.341    23917896.4254   23917911.5044
        -0.000          -0.000
 -10946347.727 9  -8514846.82646  23622341.520    23622341.4244   23622353.0104
        -0.000          -0.000
  -3174991.540 7   -406545.86952         0.000           0.0004          0.0005
        -0.000          -0.000
 -10023892.314 9  -7793741.17047  22030190.859    22030190.8154   22030201.3414
        -0.000          -0.000
  -3880212.414 9  -2388910.73446  22426266.265    22426266.4494   22426275.6214
        -0.000          -0.000
 -23512803.424 9 -18293845.39049  20702023.291    20702022.9484   20702030.5124
        -0.000          -0.000
 -17931381.101 9 -13425118.77347  22453287.107    22453286.7044   22453297.5354
        -0.000          -0.000
 -27008152.036 9 -20505658.54049  20761907.433    20761906.9114   20761914.6734
        -0.000          -0.000
 99  5 11  0 12 30.0000000  0  8 22  3 29  6 26 23 21 17            -0.000000032
  -7038527.406 9  -5466968.49546  23927473.781    23927472.8854   23927487.7454
        -0.000          -0.000
 -11040965.521 9  -8588574.83146  23604336.075    23604335.8704   23604347.6424
        -0.000          -0.000
  -3283467.35917   -196613.70152         0.000           0.0005          0.0005
        -0.000          -0.000
  -9933110.450 9  -7723002.20147  22047466.430    22047466.3364   22047476.7294
        -0.000          -0.000
  -3817619.337 9  -2340136.92846  22438177.269    22438177.4344   22438186.7564
        -0.000          -0.000
 -23507867.573 9 -18289999.24249  20702962.532    20702962.1484   20702969.7284
        -0.000          -0.000
 -17988745.356 9 -13469818.06747  22442370.668    22442370.4214   22442381.3034
        -0.000          -0.000
 -27008367.416 9 -20505826.36749  20761866.490    20761865.9594   20761873.7304
        -0.000          -0.000
 99  5 11  0 13  0.0000000  0  8 22  3 29  6 26 23 21 17            -0.000000038
  -6987917.946 8  -5427532.75746  23937104.134    23937103.4584   23937118.3264
        -0.000          -0.000
 -11135351.637 9  -8662122.32546  23586374.703    23586374.4034   23586386.2414
        -0.000          -0.000
  -3391964.456 8   -281159.98342         0.000           0.0004          0.0004
        -0.000          -0.000
  -9841979.406 9  -7651991.15047  22064808.413    22064808.3004   22064818.5454
        -0.000          -0.000
  -3754521.406 9  -2290969.74546  22450184.347    22450184.5594   22450193.9864
        -0.000          -0.000
 -23502597.850 9 -18285892.95349  20703965.152    20703964.8344   20703972.5334
        -0.000          -0.000
 -18045841.455 9 -13514308.39247  22431505.311    22431505.2224   22431516.1164
        -0.000          -0.000
 -27008375.170 9 -20505832.41349  20761864.986    20761864.4604   20761872.2264
        -0.000          -0.000
 99  5 11  0 13 30.0000000  0  8 22  3 29  6 26 23 21 17            -0.000000029
  -6936997.844 8  -5387854.97845  23946793.618    23946793.1804   23946808.3314
        -0.000          -0.000
 -11229499.282 9  -8735483.99746  23568458.517    23568458.3864   23568470.2454
        -0.000          -0.000
  -3500457.030 8   -365715.55252         0.000           0.0004          0.0005
        -0.000          -0.000
  -9750488.456 9  -7580699.64747  22082218.572    22082218.4984   22082228.8944
        -0.000          -0.000
  -3690902.798 9  -2241396.85646  22462290.575    22462290.7204   22462300.2354
        -0.000          -0.000
 -23496984.984 9 -18281519.27949  20705033.173    20705032.8544   20705040.6134
        -0.000          -0.000
 -18102648.253 9 -13558573.28747  22420695.336    22420695.1864   22420706.0944
        -0.000          -0.000
 -27008178.957 9 -20505679.52849  20761902.294    20761901.7754   20761909.5064
        -0.000          -0.000
 99  5 11  0 14  0.0000000  0  8 22  3 29  6 26 23 21 17            -0.000000013
  -6885798.673 8  -5347959.77645  23956537.389    23956536.4444   23956551.2234
        -0.000          -0.000
 -11323438.805 9  -8808683.47546  23550582.256    23550582.0814   23550593.7634
        -0.000          -0.000
  -3608975.749 8    447471.867 1         0.000           0.000           0.000
        -0.000          -0.000
  -9658662.060 9  -7509146.73847  22099692.566    22099692.5414   22099703.1074
        -0.000          -0.000
  -3626795.489 9  -2191443.15546  22474489.559    22474489.8254   22474499.1994
        -0.000          -0.000
 -23491071.499 9 -18276911.35049  20706158.539    20706158.1954   20706165.8934
        -0.000          -0.000
 -18159196.290 9 -13602636.55947  22409934.739    22409934.4564   22409945.3844
        -0.000          -0.000
 -27007812.904 9 -20505394.28549  20761971.915    20761971.3874   20761979.1294
        -0.000          -0.000
 99  5 11  0 14 30.0000000  0  8 22  3 29  6 26 23 21 17             0.000000002
  -6834345.539 8  -5307866.60345  23966328.762    23966327.7674   23966342.3944
        -0.000          -0.000
 -11417171.044 9  -8881721.41746  23532745.354    23532745.1704   23532756.8034
        -0.000          -0.000
  -3717533.169 8   -240289.30742         0.000           0.0004          0.0004
        -0.000          -0.000
  -9566521.606 9  -7437349.11647  22117226.441    22117226.3934   22117237.1294
        -0.000          -0.000
  -3562208.400 9  -2141115.60446  22486780.013    22486780.3854   22486789.4544
        -0.000          -0.000
 -23484880.626 9 -18272087.26649  20707336.740    20707336.3694   20707343.9404
        -0.000          -0.000
 -18215518.859 9 -13646524.15947  22399216.777    22399216.4854   22399227.5384
        -0.000          -0.000
 -27007283.293 9 -20504981.59649  20762072.568    20762072.0774   20762079.8604
        -0.000          -0.000
 99  5 11  0 15  0.0000000  0  8 22  3 29  6 26 23 21 17             0.000000025
  -6782626.682 9  -5267566.35846  23976170.633    23976169.5634   23976184.5444
        -0.000          -0.000
 -11510686.027 9  -8954590.08546  23514949.851    23514949.8094   23514961.2444
        -0.000          -0.000
  -3826112.314 8   -324894.71652         0.000           0.0004          0.0005
        -0.000          -0.000
  -9474057.062 9  -7365298.97747  22134821.876    22134821.8814   22134832.7224
        -0.000          -0.000
  -3497122.409 9  -2090399.27646  22499165.882    22499166.1414   22499174.8974
        -0.000          -0.000
 -23478399.155 9 -18267036.74249  20708570.127    20708569.7564   20708577.3204
        -0.000          -0.000
 -18271621.567 9 -13690240.42847  22388540.560    22388540.3264   22388551.4154
        -0.000          -0.000
 -27006553.465 9 -20504412.90449  20762211.378    20762210.9404   20762218.8034
        -0.000          -0.000
 99  5 11  0 15 30.0000000  0  8 22  3 29  6 26 23 21 17             0.000000020
  -6730690.078 9  -5227096.48546  23986053.789    23986052.8904   23986068.1194
        -0.000          -0.000
 -11604010.258 9  -9027310.13446  23497190.766    23497190.7744   23497202.0644
        -0.000          -0.000
  -3934731.882 8   -409531.66652         0.000           0.0004          0.0005
        -0.000          -0.000
  -9381297.536 9  -7293018.98547  22152473.536    22152473.5414   22152484.3744
        -0.000          -0.000
  -3431583.007 9  -2039329.68846  22511637.883    22511638.1174   22511646.6534
        -0.000          -0.000
 -23471651.584 9 -18261778.87249  20709854.075    20709853.7674   20709861.4474
        -0.000          -0.000
 -18327530.304 9 -13733805.53947  22377901.528    22377901.2614   22377912.1274
        -0.000          -0.000
 -27005634.940 9 -20503697.18049  20762386.253    20762385.7894   20762393.6894
        -0.000          -0.000
 99  5 11  0 16  0.0000000  0  8 22  3 29  6 26 23 21 17             0.000000013
  -6678482.243 9  -5186415.26246  23995988.647    23995987.9234   23996003.3384
        -0.000          -0.000
 -11697068.178 9  -9099822.68046  23479482.399    23479482.4324   23479493.5764
        -0.000          -0.000
  -4043341.216 9   -201210.21042         0.000           0.0004          0.0004
        -0.000          -0.000
  -9288194.234 9  -7220471.12747  22170190.793    22170190.7264   22170201.4494
        -0.000          -0.000
  -3365551.341 9  -1987876.48646  22524203.274    22524203.5094   22524212.4524
        -0.000          -0.000
 -23464567.731 9 -18256258.96749  20711202.139    20711201.7834   20711209.5374
        -0.000          -0.000
 -18383197.830 9 -13777182.69747  22367308.384    22367307.9754   22367318.9004
        -0.000          -0.000
 -27004454.506 9 -20502777.36349  20762610.993    20762610.5344   20762618.4234
        -0.000          -0.000
 99  5 11  0 16 30.0000000  0  8 22  3 29  6 26 23 21 17             0.000000002
  -6625995.791 9  -5145516.95946  24005976.496    24005975.9374   24005991.4304
        -0.000          -0.000
 -11789844.263 9  -9172115.61246  23461827.936    23461827.8244   23461838.6134
        -0.000          -0.000
  -4151927.825 9   -285826.39152         0.000           0.0004          0.0005
        -0.000          -0.000
  -9194752.016 9  -7147659.17247  22187972.480    22187972.3964   22187983.1504
        -0.000          -0.000
  -3299037.481 9  -1936047.55046  22536860.520    22536860.7664   22536869.6734
        -0.000          -0.000
 -23457143.709 9 -18250473.99049  20712614.907    20712614.5054   20712622.2244
        -0.000          -0.000
 -18438609.540 9 -13820360.53647  22356763.669    22356763.3554   22356774.5594
        -0.000          -0.000
 -27003001.937 9 -20501645.47949  20762887.447    20762886.9734   20762894.7714
        -0.000          -0.000
 99  5 11  0 17  0.0000000  0  8 22  3 29  6 26 23 21 17            -0.000000042
  -6573203.545 9  -5104380.35246  24016023.375    24016022.5324   24016037.6754
        -0.000          -0.000
 -11882321.227 9  -9244175.44046  23444230.327    23444230.1774   23444240.5984
        -0.000          -0.000
  -4260475.575 8   -370412.15952         0.000           0.0004          0.0005
        -0.000          -0.000
  -9100951.255 9  -7074567.82047  22205822.123    22205822.0494   22205833.0474
        -0.000          -0.000
  -3232045.692 9  -1883846.21146  22549608.712    22549608.9114   22549617.6514
        -0.000          -0.000
 -23449347.770 9 -18244399.19849  20714098.504    20714098.0784   20714105.6854
        -0.000          -0.000
 -18493731.990 9 -13863312.97647  22346274.205    22346273.8074   22346285.0044
        -0.000          -0.000
 -27001269.446 9 -20500295.49149  20763217.080    20763216.6244   20763224.5114
        -0.000          -0.000
 99  5 11  0 17 30.0000000  0  8 22  3 29  6 26 23 21 17            -0.000000041
  -6520109.521 9  -5063008.59646  24026127.519    24026126.3794   24026141.4074
        -0.000          -0.000
 -11974497.254 9  -9316000.78446  23426690.033    23426689.7304   23426699.9014
        -0.000          -0.000
  -4368998.638 8   -160367.32142         0.000           0.0004          0.0004
        -0.000          -0.000
  -9006811.857 9  -7001212.60647  22223736.062    22223735.9784   22223747.3604
        -0.000          -0.000
  -3164592.730 9  -1831285.53245  22562444.493    22562444.6554   22562453.3734
        -0.000          -0.000
 -23441189.442 9 -18238042.04249  20715651.027    20715650.5644   20715658.1334
        -0.000          -0.000
 -18548565.918 9 -13906040.58047  22335839.566    22335839.1604   22335850.1214
        -0.000          -0.000
 -26999276.492 9 -20498742.56049  20763596.349    20763595.9024   20763603.8934
        -0.000          -0.000
 99  5 11  0 18  0.0000000  0  8 22  3 29  6 26 23 21 17            -0.000000034
  -6466705.415 9  -5021395.25146  24036290.206    24036288.9234   24036304.1674
        -0.000          -0.000
 -12066372.144 9  -9387591.48746  23409206.845    23409206.5644   23409216.4304
        -0.000          -0.000
  -4477501.713 8   -244914.36152         0.000           0.0004          0.0005
        -0.000          -0.000
  -8912342.613 9  -6927600.35747  22241712.785    22241712.7334   22241724.4094
        -0.000          -0.000
  -3096663.103 9  -1778353.39145  22575370.920    22575371.3254   22575380.1934
        -0.000          -0.000
 -23432680.150 9 -18231411.41149  20717270.223    20717269.7734   20717277.4154
        -0.000          -0.000
 -18603117.067 9 -13948547.85147  22325458.626    22325458.3174   22325469.1714
        -0.000          -0.000
 -26997035.071 9 -20496995.99549  20764022.905    20764022.4264   20764030.3914
        -0.000          -0.000
 99  5 11  0 18 30.0000000  0  8 22  3 29  6 26 23 21 17            -0.000000028
  -6413022.905 9  -4979564.95146  24046505.523    24046504.4314   24046520.0684
        -0.000          -0.000
 -12157972.882 9  -9458968.56846  23391775.745    23391775.5414   23391785.2274
        -0.000          -0.000
  -4586013.054 9   -329467.94444         0.000           0.0004   24428995.6264
        -0.000          -0.000
  -8817554.468 9  -6853739.65247  22259750.488    22259750.3854   22259762.1454
        -0.000          -0.000
  -3028257.354 9  -1725050.20445  22588388.359    22588388.8134   22588397.5234
        -0.000          -0.000
 -23423848.453 9 -18224529.54749  20718950.785    20718950.3594   20718957.9794
        -0.000          -0.000
 -18657396.462 9 -13990843.36247  22315129.421    22315129.1684   22315139.9404
        -0.000          -0.000
 -26994575.703 9 -20495079.60049  20764490.957    20764490.4124   20764498.2814
        -0.000          -0.000
 99  5 11  0 19  0.0000000  0  8 22  3 29  6 26 23 21 17            -0.000000030
  -6359080.314 9  -4937531.99746  24056770.537    24056769.5354   24056785.3514
        -0.000          -0.000
 -12249308.913 9  -9530139.38246  23374395.077    23374394.9924   23374404.3064
        -0.000          -0.000
  -4694542.442 8   -414035.57245  24408323.635    24408320.3714   24408342.6694
        -0.000          -0.000
  -8722452.168 9  -6779634.13947  22277847.879    22277847.8474   22277859.5234
        -0.000          -0.000
  -2959367.086 8  -1671369.51145  22601498.148    22601498.4674   22601507.0484
        -0.000          -0.000
 -23414692.608 9 -18217395.10249  20720693.141    20720692.7434   20720700.2044
        -0.000          -0.000
 -18711423.245 9 -14032942.03247  22304848.461    22304848.1854   22304858.7434
        -0.000          -0.000
 -26991905.359 9 -20492998.82349  20764999.147    20764998.5914   20765006.4004
        -0.000          -0.000
 99  5 11  0 19 30.0000000  0  8 22  3 29  6 26 23 21 17            -0.000000027
  -6304892.096 9  -4895307.64746  24067082.237    24067081.3364   24067097.3494
        -0.000          -0.000
 -12340371.045 9  -9601096.76846  23357066.653    23357066.5294   23357075.6374
        -0.000          -0.000
  -4803080.972 8   -498610.31845  24387668.706    24387666.6804   24387688.2204
        -0.000          -0.000
  -8627040.462 9  -6705287.53647  22296004.232    22296004.1974   22296015.8254
        -0.000          -0.000
  -2889972.536 8  -1617295.88145  22614703.460    22614703.7664   22614711.8164
        -0.000          -0.000
 -23405220.824 9 -18210014.47749  20722495.602    20722495.1654   20722502.5434
        -0.000          -0.000
 -18765195.267 9 -14074842.17247  22294615.961    22294615.6994   22294626.1504
        -0.000          -0.000
 -26989010.815 9 -20490743.34149  20765550.024    20765549.4394   20765557.2374
        -0.000          -0.000
 99  5 11  0 20  0.0000000  0  8 22  3 29  6 26 23 21 17            -0.000000022
  -6250479.996 9  -4852908.83346  24077436.556    24077435.6884   24077451.8904
        -0.000          -0.000
 -12431173.123 9  -9671851.49846  23339787.550    23339787.4024   23339796.5324
        -0.000          -0.000
  -4911622.416 8   -583187.33145  24367013.477    24367010.3504   24367032.5764
        -0.000          -0.000
  -8531327.248 9  -6630705.95447  22314217.842    22314217.8694   22314229.3984
        -0.000          -0.000
  -2820070.942 8  -1562827.14145  22628005.299    22628005.5304   22628013.4154
        -0.000          -0.000
 -23395443.075 9 -18202395.44049  20724356.230    20724355.8174   20724363.1834
        -0.000          -0.000
 -18818718.745 9 -14116548.63647  22284430.647    22284430.3114   22284440.9364
        -0.000          -0.000
 -26985890.233 9 -20488311.72749  20766143.855    20766143.2884   20766151.0974
        -0.000          -0.000
 99  5 11  0 20 30.0000000  0  8 22  3 29  6 26 23 21 17            -0.000000021
  -6195859.636 9  -4810347.73246  24087830.464    24087829.6324   24087845.9194
        -0.000          -0.000
 -12521719.633 9  -9742407.10946  23322556.892    23322556.6814   23322565.9094
        -0.000          -0.000
  -5020153.473 8   -667756.25945  24346359.779    24346357.3484   24346379.2924
        -0.000          -0.000
  -8435313.262 9  -6555890.03447  22332488.840    22332488.9004   22332500.2534
        -0.000          -0.000
  -2749677.129 8  -1507974.82245  22641400.242    22641400.9054   22641409.1884
        -0.000          -0.000
 -23385362.817 9 -18194540.68149  20726274.384    20726274.0194   20726281.3354
        -0.000          -0.000
 -18871990.628 9 -14158059.08047  22274293.162    22274292.7784   22274303.6064
        -0.000          -0.000
 -26982534.652 9 -20485696.99049  20766782.465    20766781.8664   20766789.7304
        -0.000          -0.000
 99  5 11  0 21  0.0000000  0  8 22  3 29  6 26 23 21 17            -0.000000007
  -6141005.646 9  -4767604.54646  24098268.888    24098267.9964   24098284.3324
        -0.000          -0.000
 -12611976.861 9  -9812737.30746  23305381.132    23305381.0324   23305390.3884
        -0.000          -0.000
  -5128632.078 8   -752284.35145  24325716.054    24325714.6484   24325736.2214
        -0.000          -0.000
  -8338988.967 9  -6480832.30447  22350818.999    22350819.0594   22350830.3074
        -0.000          -0.000
  -2678783.465 8  -1452733.04945  22654890.508    22654890.9684   22654899.5774
        -0.000          -0.000
 -23374960.757 9 -18186435.17049  20728253.841    20728253.4494   20728260.7374
        -0.000          -0.000
 -18924990.483 9 -14199357.55247  22264207.739    22264207.2704   22264217.7644
        -0.000          -0.000
 -26978916.041 9 -20482877.29149  20767471.081    20767470.4704   20767478.3094
        -0.000          -0.000
 99  5 11  0 21 30.0000000  0  8 22  3 29  6 26 23 21 17            -0.000000003
  -6085948.723 9  -4724703.27146  24108746.335    24108745.3824   24108761.4014
        -0.000          -0.000
 -12701984.319 9  -9882872.88346  23288253.038    23288252.9184   23288262.3164
        -0.000          -0.000
  -5237095.530 8   -836800.62445  24305075.670    24305074.8064   24305096.1874
        -0.000          -0.000
  -8242394.247 9  -6405563.86147  22369200.609    22369200.6544   22369211.8524
        -0.000          -0.000
  -2607437.507 8  -1397138.75945  22668466.340    22668467.0164   22668476.3144
        -0.000          -0.000
 -23364289.661 9 -18178120.02349  20730284.398    20730284.0034   20730291.3164
        -0.000          -0.000
 -18977750.595 9 -14240469.21847  22254167.882    22254167.3114   22254177.4834
        -0.000          -0.000
 -26975084.250 9 -20479891.49949  20768200.091    20768199.5454   20768207.4104
        -0.000          -0.000
 99  5 11  0 22  0.0000000  0  8 22  3 29  6 26 23 21 17             0.000000006
  -6030651.026 9  -4681614.36246  24119269.519    24119268.4784   24119284.3504
        -0.000          -0.000
 -12791730.648 9  -9952804.96846  23271174.805    23271174.5824   23271183.9954
        -0.000          -0.000
  -5345526.529 8   -921291.61345  24284441.762    24284441.1414   24284462.2724
        -0.000          -0.000
  -8145506.978 9  -6330067.47447  22387638.030    22387637.9704   22387649.1654
        -0.000          -0.000
  -2535638.063 8  -1341191.21845  22682129.812    22682130.3774   22682139.9474
        -0.000          -0.000
 -23353334.951 9 -18169583.87649  20732368.844    20732368.5304   20732375.8804
        -0.000          -0.000
 -19030263.398 9 -14281388.16648  22244175.005    22244174.4394   22244184.5364
        -0.000          -0.000
 -26971034.965 9 -20476736.22749  20768970.619    20768970.0914   20768977.9794
        -0.000          -0.000
 99  5 11  0 22 30.0000000  0  8 22  3 29  6 26 23 21 17             0.000000016
  -5975093.384 9  -4638322.93146  24129841.670    24129840.8384   24129856.7974
        -0.000          -0.000
 -12881201.610 9 -10022522.49046  23254148.954    23254148.7384   23254158.0874
        -0.000          -0.000
  -5453928.346 9  -1005759.87545  24263813.463    24263812.9824   24263833.7624
        -0.000          -0.000
  -8048319.258 9  -6254336.95347  22406132.570    22406132.4764   22406143.7134
        -0.000          -0.000
  -2463397.418 8  -1284899.91345  22695877.074    22695877.3604   22695886.7384
        -0.000          -0.000
 -23342091.505 9 -18160822.73349  20734508.257    20734507.9594   20734515.3844
        -0.000          -0.000
 -19082526.559 9 -14322112.58048  22234229.565    22234229.0744   22234239.1954
        -0.000          -0.000
 -26966784.380 9 -20473424.10149  20769779.361    20769778.8814   20769786.8634
        -0.000          -0.000
 99  5 11  0 23  0.0000000  0  8 22  3 29  6 26 23 21 17             0.000000029
  -5919282.974 9  -4594834.56346  24140461.970    24140461.3264   24140477.2524
        -0.000          -0.000
 -12970401.112 9 -10092028.50246  23237174.741    23237174.7484   23237183.9934
        -0.000          -0.000
  -5562309.486 8  -1090212.03245  24243188.600    24243188.1624   24243209.5144
        -0.000          -0.000
  -7950834.806 9  -6178375.21547  22424683.345    22424683.2244   22424694.6274
        -0.000          -0.000
  -2390713.277 8  -1228262.99045  22709708.770    22709709.0954   22709717.6374
        -0.000          -0.000
 -23330565.321 9 -18151841.28249  20736701.491    20736701.2014   20736708.7704
        -0.000          -0.000
 -19134549.616 9 -14362649.92148  22224329.764    22224329.3174   22224339.5214
        -0.000          -0.000
 -26962349.145 9 -20469968.07149  20770623.302    20770622.8574   20770630.7754
        -0.000          -0.000
 99  5 11  0 23 30.0000000  0  8 22  3 29  6 26 23 21 17             0.000000029
  -5863240.782 9  -4551165.56046  24151126.714    24151126.0924   24151141.8224
        -0.000          -0.000
 -13059360.666 9 -10161347.53646  23220246.203    23220246.3484   23220255.8124
        -0.000          -0.000
  -5670693.083 8  -1174666.14745  24222563.126    24222562.8694   24222584.8754
        -0.000          -0.000
  -7853073.376 9  -6102197.65647  22443286.636    22443286.6064   22443298.1714
        -0.000          -0.000
  -2317605.801 8  -1171296.18345  22723620.669    22723620.9954   22723629.2884
        -0.000          -0.000
 -23318785.883 9 -18142662.49049  20738943.116    20738942.8194   20738950.3404
        -0.000          -0.000
 -19186354.345 9 -14403017.12748  22214471.411    22214471.0224   22214481.2334
        -0.000          -0.000
 -26957746.036 9 -20466381.23848  20771499.269    20771498.7914   20771506.6964
        -0.000          -0.000
 99  5 11  0 24  0.0000000  0  8 22  3 29  6 26 23 21 17             0.000000042
  -5806935.471 9  -4507291.53846  24161841.754    24161840.9354   24161856.6094
        -0.000          -0.000
 -13148023.566 9 -10230435.41446  23203374.322    23203374.3684   23203383.9984
        -0.000          -0.000
  -5779026.968 9  -1259081.53945  24201947.491    24201947.4014   24201969.3034
        -0.000          -0.000
  -7754996.869 9  -6025774.60047  22461950.197    22461950.1154   22461961.6124
        -0.000          -0.000
  -2244034.217 8  -1113967.78645  22737620.919    22737621.2414   22737629.5394
        -0.000          -0.000
 -23306695.332 9 -18133241.26949  20741243.894    20741243.5464   20741251.1174
        -0.000          -0.000
 -19237891.667 9 -14443175.96348  22204664.057    22204663.7314   22204673.8024
        -0.000          -0.000
 -26952910.266 9 -20462613.11749  20772419.485    20772419.0144   20772426.9454
        -0.000          -0.000
 99  5 11  0 24 30.0000000  0  8 22  3 29  6 26 23 21 17             0.000000053
  -5750413.424 9  -4463248.61246  24172597.311    24172596.6904   24172612.7464
        -0.000          -0.000
 -13236400.699 9 -10299300.60746  23186556.529    23186556.7514   23186566.5734
        -0.000          -0.000
  -5887338.620 9  -1343479.57345  24181336.192    24181336.0904   24181357.6944
        -0.000          -0.000
  -7656631.388 9  -5949126.35347  22480668.736    22480668.6774   22480680.0044
        -0.000          -0.000
  -2170010.041 8  -1056286.66745  22751707.737    22751707.9304   22751716.2734
        -0.000          -0.000
 -23294310.973 9 -18123591.11349  20743600.519    20743600.1944   20743607.7684
        -0.000          -0.000
 -19289180.839 9 -14483141.42148  22194904.081    22194903.7284   22194913.6234
        -0.000          -0.000
 -26947850.192 9 -20458670.20849  20773382.397    20773381.9074   20773389.8794
        -0.000          -0.000
 99  5 11  0 25  0.0000000  0  8 22  3 29  6 26 23 21 17             0.000000052
  -5693692.776 9  -4419050.93646  24183390.639    24183390.2474   24183406.7134
        -0.000          -0.000
 -13324501.106 9 -10367950.19646  23169791.392    23169791.6674   23169801.6044
        -0.000          -0.000
  -5995636.513 9  -1427866.92445  24160727.193    24160727.1384   24160748.5004
        -0.000          -0.000
  -7558000.848 9  -5872271.57047  22499437.522    22499437.4744   22499448.9174
        -0.000          -0.000
  -2095544.633 8   -998261.67245  22765878.541    22765878.5294   22765887.0834
        -0.000          -0.000
 -23281651.803 9 -18113726.81749  20746009.491    20746009.1574   20746016.7004
        -0.000          -0.000
 -19340238.043 9 -14522926.14848  22185188.099    22185187.7154   22185197.5514
        -0.000          -0.000
 -26942557.269 9 -20454545.86749  20774389.597    20774389.0504   20774397.0394
        -0.000          -0.000
 99  5 11  0 25 30.0000000  0  8 22  3 29  6 26 23 21 17             0.000000049
  -5636739.882 9  -4374672.30146  24194228.409    24194228.0244   24194244.6344
        -0.000          -0.000
 -13412292.818 9 -10436359.23146  23153084.977    23153085.2134   23153095.4444
        -0.000          -0.000
  -6103907.807 8  -1512233.59445  24140122.850    24140122.9534   24140144.3564
        -0.000          -0.000
  -7459086.009 9  -5795195.24847  22518260.566    22518260.5124   22518272.0764
        -0.000          -0.000
  -2020631.350 7   -939887.68444  22780134.270    22780134.0614   22780142.5944
        -0.000          -0.000
 -23268697.250 9 -18103632.35649  20748474.722    20748474.4004   20748481.8374
        -0.000          -0.000
 -19391032.956 9 -14562506.49048  22175521.937    22175521.6364   22175531.4284
        -0.000          -0.000
 -26936997.209 9 -20450213.36549  20775447.506    20775447.0274   20775455.0794
        -0.000          -0.000
 99  5 11  0 26  0.0000000  0  8 22  3 29  6 26 23 21 17             0.000000042
  -5579563.377 9  -4330119.44846  24205109.313    24205108.7314   24205124.9334
        -0.000          -0.000
 -13499773.115 9 -10504525.61246  23136437.865    23136438.0984   23136448.5204
        -0.000          -0.000
  -6212159.046 8  -1596584.67845  24119522.134    24119522.5344   24119544.2224
        -0.000          -0.000
  -7359890.422 9  -5717900.17147  22537137.204    22537137.0944   22537148.7504
        -0.000          -0.000
  -1945276.80317   -881169.86454  22794473.509    22794474.0375          0.0005
        -0.000          -0.000
 -23255451.483 9 -18093310.96649  20750995.430    20750995.0654   20751002.3504
        -0.000          -0.000
 -19441571.598 9 -14601887.13748  22165904.743    22165904.3944   22165914.1614
        -0.000          -0.000
 -26931178.898 9 -20445679.62249  20776554.689    20776554.2214   20776562.2504
        -0.000          -0.000
 99  5 11  0 26 30.0000000  0  8 22  3 29  6 26 23 21 17             0.000000029
  -5522173.983 9  -4285400.70246  24216031.005    24216030.2604   24216046.0014
        -0.000          -0.000
 -13586962.693 9 -10572465.46146  23119846.067    23119846.4034   23119856.8784
        -0.000          -0.000
  -6320397.598 8  -1680925.84345  24098923.916    24098924.5734   24098946.6404
        -0.000          -0.000
  -7260431.082 9  -5640399.56747  22556063.709    22556063.6624   22556075.5524
        -0.000          -0.000
  -1869494.62017   -822118.84554  22808894.146    22808893.7315          0.0005
        -0.000          -0.000
 -23241944.698 9 -18082786.19049  20753565.687    20753565.2764   20753572.5414
        -0.000          -0.000
 -19491871.772 9 -14641081.96148  22156332.903    22156332.4314   22156342.2314
        -0.000          -0.000
 -26925125.677 9 -20440962.81949  20777706.595    20777706.1234   20777714.1574
        -0.000          -0.000
 99  5 11  0 27  0.0000000  0  8 22  3 29  6 26 23 21 17             0.000000021
  -5464561.259 9  -4240507.93646  24226994.994    24226994.1804   24227009.4864
        -0.000          -0.000
 -13673854.251 9 -10640173.07646  23103311.154    23103311.4314   23103321.8974
        -0.000          -0.000
  -6428592.617 8  -1765233.09245  24078334.477    24078335.1764   24078357.4804
        -0.000          -0.000
  -7160710.961 9  -5562695.77147  22575039.969    22575039.8854   22575051.8644
        -0.000          -0.000
  -1793284.431 8   -762734.31644  22823396.316    22823396.2534   22823405.4264
        -0.000          -0.000
 -23228175.764 9 -18072057.16549  20756185.776    20756185.4024   20756192.7884
        -0.000          -0.000
 -19541923.226 9 -14680082.99948  22146807.834    22146807.5454   22146817.6124
        -0.000          -0.000
 -26918830.843 9 -20436057.77549  20778904.428    20778904.0044   20778912.0874
        -0.000          -0.000
 99  5 11  0 27 30.0000000  0  8 22  3 29  6 26 23 21 17             0.000000010
  -5406746.567 9  -4195457.78545  24237997.197    24237996.2844   24238011.2294
        -0.000          -0.000
 -13760449.103 9 -10707649.50146  23086832.699    23086832.9784   23086843.4194
        -0.000          -0.000
  -6536732.431 8  -1849497.30945  24057755.959    24057756.5024   24057778.6794
        -0.000          -0.000
  -7060734.481 9  -5484792.22347  22594065.032    22594064.9244   22594076.9064
        -0.000          -0.000
  -1716645.964 8   -703016.04245  22837979.959    22837979.9544   22837989.3204
        -0.000          -0.000
 -23214142.119 9 -18061121.85249  20758856.351    20758855.9934   20758863.3774
        -0.000          -0.000
 -19591722.771 9 -14718887.72648  22137331.153    22137330.9154   22137340.9314
        -0.000          -0.000
 -26912294.138 9 -20430964.24949  20780148.422    20780148.0034   20780156.0264
        -0.000          -0.000
 99  5 11  0 28  0.0000000  0  8 22  3 29  6 26 23 21 17             0.000000011
  -5348732.215 9  -4150252.05945  24249036.791    24249035.8634   24249050.8854
        -0.000          -0.000
 -13846726.636 9 -10774878.65147  23070414.602    23070414.8054   23070425.3624
        -0.000          -0.000
  -6644771.387 8  -1933682.94645  24037196.686    24037197.0464   24037219.2084
        -0.000          -0.000
  -6960492.315 9  -5406681.64147  22613140.528    22613140.4784   22613152.4844
        -0.000          -0.000
  -1639557.204 8   -642947.02645  22852649.653    22852649.6804   22852658.7414
        -0.000          -0.000
 -23199815.883 9 -18049958.54449  20761582.530    20761582.1564   20761589.5134
        -0.000          -0.000
 -19641252.687 9 -14757482.35448  22127906.169    22127905.7694   22127915.6324
        -0.000          -0.000
 -26905501.665 9 -20425671.41849  20781441.148    20781440.6984   20781448.6384
        -0.000          -0.000
 99  5 11  0 28 30.0000000  0  8 22  3 29  6 26 23 21 17             0.000000005
  -5290544.062 9  -4104910.92445  24260109.053    24260108.4974   24260123.8394
        -0.000          -0.000
 -13932703.033 9 -10841873.15247  23054053.804    23054053.9614   23054064.6684
        -0.000          -0.000
  -6752719.586 8  -2017797.83645  24016654.355    24016654.5774   24016676.7774
        -0.000          -0.000
  -6860016.570 9  -5328389.04147  22632260.422    22632260.4714   22632272.6184
        -0.000          -0.000
  -1562049.789 8   -582551.66445  22867398.782    22867398.8994   22867408.4374
        -0.000          -0.000
 -23185212.226 9 -18038579.07149  20764361.416    20764361.0624   20764368.5074
        -0.000          -0.000
 -19690535.032 9 -14795884.08248  22118528.065    22118527.6624   22118537.4434
        -0.000          -0.000
 -26898472.646 9 -20420194.27149  20782778.827    20782778.3624   20782786.2654
        -0.000          -0.000
 99  5 11  0 29  0.0000000  0  8 22  3 29  6 26 23 21 17            -0.000000012
  -5232174.054 9  -4059428.04946  24271216.321    24271215.8964   24271231.6874
        -0.000          -0.000
 -14018365.048 9 -10908622.67947  23037752.778    23037752.9464   23037763.8074
        -0.000          -0.000
  -6860572.329 8  -2101838.37145  23996130.068    23996130.3364   23996152.3924
        -0.000          -0.000
  -6759294.101 9  -5249904.20247  22651427.444    22651427.5034   22651439.7974
        -0.000          -0.000
  -1484126.302 8   -521832.09045  22882227.146    22882227.3134   22882237.3534
        -0.000          -0.000
 -23170309.016 9 -18026966.18449  20767197.347    20767197.0094   20767204.4724
        -0.000          -0.000
 -19739557.920 9 -14834083.63948  22109199.345    22109198.9704   22109208.6514
        -0.000          -0.000
 -26891191.019 9 -20414520.27849  20784164.521    20784164.0234   20784171.8724
        -0.000          -0.000
 99  5 11  0 29 30.0000000  0  8 22  3 29  6 26 23 21 17            -0.000000031
  -5173592.708 9  -4013780.52346  24282364.204    24282363.6894   24282379.9704
        -0.000          -0.000
 -14103688.596 9 -10975108.47747  23021516.151    23021516.3364   23021527.1894
        -0.000          -0.000
  -6968324.234 8  -2185800.32845  23975625.386    23975625.6104   23975647.1334
        -0.000          -0.000
  -6658295.771 9  -5171204.41147  22670647.031    22670647.0774   22670659.3654
        -0.000          -0.000
  -1405775.069 7   -460779.19145  22897136.495    22897136.9744   22897147.6414
        -0.000          -0.000
 -23155078.234 9 -18015098.04149  20770095.765    20770095.3724   20770102.7184
        -0.000          -0.000
 -19788298.591 9 -14872063.27748  22099924.201    22099923.7814   22099933.4824
        -0.000          -0.000
 -26883646.112 9 -20408641.13849  20785600.221    20785599.7394   20785607.5674
        -0.000          -0.000
 99  5 11  0 30  0.0000000  0  8 22  3 29  6 26 23 21 17            -0.000000040
  -5114762.415 9  -3967938.96746  24293559.591    24293558.9584   24293575.6194
        -0.000          -0.000
 -14188656.988 9 -11041317.54347  23005347.099    23005347.3404   23005358.0434
        -0.000          -0.000
  -7075978.230 8  -2269685.95145  23955139.398    23955139.4834   23955160.3584
        -0.000          -0.000
  -6557001.491 9  -5092274.02047  22689922.892    22689922.9824   22689935.1574
        -0.000          -0.000
  -1326987.420 8   -399386.22645  22912128.920    22912129.0854   22912140.7324
        -0.000          -0.000
 -23139505.600 9 -18002963.51349  20773059.164    20773058.7414   20773066.0074
        -0.000          -0.000
 -19836751.756 9 -14909818.88448  22090703.606    22090703.2954   22090713.0264
        -0.000          -0.000
 -26875837.402 9 -20402556.42949  20787086.061    20787085.6004   20787093.4344
        -0.000          -0.000
 99  5 11  0 30 30.0000000  0  8 22  3 29  6 26 23 21 17            -0.000000046
  -5055687.899 9  -3921907.12446  24304801.158    24304800.6964   24304817.5884
        -0.000          -0.000
 -14273290.401 9 -11107265.56947  22989241.831    22989242.1784   22989252.7144
        -0.000          -0.000
  -7183577.547 8  -2353528.96146  23934663.527    23934663.5184   23934684.0324
        -0.000          -0.000
  -6455432.546 9  -5013129.60047  22709251.095    22709251.1624   22709263.1764
        -0.000          -0.000
  -1247784.920 8   -337670.09944  22927201.334    22927201.3364   22927212.6304
        -0.000          -0.000
 -23123624.769 9 -17990588.83049  20776081.101    20776080.7294   20776088.0584
        -0.000          -0.000
 -19884944.944 9 -14947371.90648  22081532.779    22081532.4234   22081542.0414
        -0.000          -0.000
 -26867782.306 9 -20396279.73948  20788618.807    20788618.3794   20788626.2284
        -0.000          -0.000
 99  5 11  0 31  0.0000000  0  8 22  3 29  6 26 23 21 17            -0.000000046
  -4996368.588 9  -3875684.55246  24316090.097    24316089.2114   24316105.8554
        -0.000          -0.000
 -14357577.851 9 -11172944.01947  22973202.655    22973202.9124   22973213.2384
        -0.000          -0.000
  -7291125.254 8  -2437331.78646  23914197.324    23914197.3474   23914217.7714
        -0.000          -0.000
  -6353574.628 9  -4933760.02247  22728634.023    22728634.0744   22728646.2604
        -0.000          -0.000
  -1168155.516 7   -275621.35644  22942354.496    22942355.2374   22942365.2924
        -0.000          -0.000
 -23107435.041 9 -17977973.45349  20779161.964    20779161.5764   20779168.9724
        -0.000          -0.000
 -19932866.406 9 -14984713.19848  22072413.576    22072413.1774   22072422.7784
        -0.000          -0.000
 -26859472.399 9 -20389804.49648  20790200.109    20790199.6844   20790207.4314
        -0.000          -0.000
 99  5 11  0 31 30.0000000  0  8 22  3 29  6 26 23 21 17            -0.000000055
  -4936850.326 9  -3829306.95946  24327416.410    24327415.3614   24327431.8084
        -0.000          -0.000
 -14441544.634 9 -11238372.59147  22957224.442    22957224.5844   22957234.7584
        -0.000          -0.000
  -7398654.306 8  -2521120.06446  23893734.705    23893734.6734   23893755.2034
        -0.000          -0.000
  -6251468.742 9  -4854197.20447  22748064.014    22748064.2324   22748076.5534
        -0.000          -0.000
  -1088133.287 7   -213266.50544  22957581.683    22957582.3694   22957592.5404
        -0.000          -0.000
 -23090988.974 9 -17965158.32849  20782291.646    20782291.2094   20782298.6354
        -0.000          -0.000
 -19980562.091 9 -15021878.56648  22063337.174    22063336.9004   22063346.4804
        -0.000          -0.000
 -26850950.252 9 -20383163.86148  20791821.854    20791821.3824   20791829.1504
        -0.000          -0.000
 99  5 11  0 32  0.0000000  0  8 22  3 29  6 26 23 21 17            -0.000000042
  -4877106.731 9  -3782753.79546  24338785.289    24338784.3804   24338800.8264
        -0.000          -0.000
 -14525145.518 9 -11303516.03447  22941315.752    22941315.7884   22941326.0244
        -0.000          -0.000
  -7506104.993 8  -2604847.29646  23873287.016    23873287.1684   23873307.4784
        -0.000          -0.000
  -6149077.934 9  -4774412.38347  22767548.470    22767548.7244   22767561.1204
        -0.000          -0.000
  -1007673.408 7   -150570.49544  22972892.175    22972892.4894   22972903.8684
        -0.000          -0.000
 -23074255.060 9 -17952118.90949  20785475.984    20785475.5354   20785482.9794
        -0.000          -0.000
 -20027989.699 9 -15058835.04548  22054312.066    22054311.7184   22054321.1674
        -0.000          -0.000
 -26842148.870 9 -20376305.64148  20793496.724    20793496.2424   20793504.0064
        -0.000          -0.000
 99  5 11  0 32 30.0000000  0  8 22  3 29  6 26 23 21 17            -0.000000031
  -4817205.553 9  -3736077.85046  24350184.208    24350183.3884   24350199.9384
        -0.000          -0.000
 -14608418.384 9 -11368403.88847  22925469.329    22925469.3594   22925479.7124
        -0.000          -0.000
  -7613501.648 9  -2688532.42746  23852849.743    23852850.0264   23852869.9664
        -0.000          -0.000
  -6046449.344 9  -4694442.27647  22787078.387    22787078.5734   22787090.8784
        -0.000          -0.000
   -926818.473 8    -87566.62144  22988279.163    22988279.3154   22988290.3954
        -0.000          -0.000
 -23057280.474 9 -17938891.94849  20788706.081    20788705.6694   20788713.0914
        -0.000          -0.000
 -20075187.585 9 -15095612.51548  22045330.535    22045330.2354   22045339.6414
        -0.000          -0.000
 -26833101.863 9 -20369256.03249  20795218.245    20795217.7714   20795225.6554
        -0.000          -0.000
 99  5 11  0 33  0.0000000  0  8 22  3 29  6 26 23 21 17            -0.000000027
  -4757161.603 9  -3689290.61646  24361610.299    24361609.4584   24361626.3984
        -0.000          -0.000
 -14691361.973 9 -11433035.18247  22909685.405    22909685.5554   22909696.0444
        -0.000          -0.000
  -7720824.959 9  -2772160.41546  23832426.555    23832426.8554   23832446.1274
        -0.000          -0.000
  -5943579.763 9  -4614284.40147  22806653.977    22806654.1724   22806666.5824
        -0.000          -0.000
   -845566.723 8    -24253.66345  23003741.127    23003741.1614   23003752.3934
        -0.000          -0.000
 -23040061.771 9 -17925474.76149  20791982.698    20791982.2504   20791989.6654
        -0.000          -0.000
 -20122159.825 9 -15132214.14548  22036392.013    22036391.7034   22036401.0274
        -0.000          -0.000
 -26823808.526 9 -20362014.47949  20796986.535    20796986.1264   20796994.2234
        -0.000          -0.000
 99  5 11  0 33 30.0000000  0  8 22  3 29  6 26 23 21 17            -0.000000034
  -4696987.224 9  -3642401.75546  24373061.467    24373060.6304   24373077.6044
        -0.000          -0.000
 -14773994.558 9 -11497424.11147  22893960.805    22893961.0214   22893971.5134
        -0.000          -0.000
  -7828081.261 9  -2855736.19546  23812016.264    23812016.3644   23812035.0994
        -0.000          -0.000
  -5840497.801 9  -4533961.02647  22826270.061    22826270.1424   22826282.7594
        -0.000          -0.000
   -763927.257 8     39361.40145  23019276.986    23019277.1244   23019287.9564
        -0.000          -0.000
 -23022609.331 9 -17911875.43949  20795303.771    20795303.3114   20795310.7194
        -0.000          -0.000
 -20168930.624 9 -15168658.81448  22027491.970    22027491.5554   22027500.6994
        -0.000          -0.000
 -26814284.762 9 -20354593.36349  20798798.888    20798798.4614   20798806.5994
        -0.000          -0.000
 99  5 11  0 34  0.0000000  0  8 22  3 29  6 26 23 21 17            -0.000000023
  -4636636.107 9  -3595375.16346  24384546.391    24384545.3104   24384562.1244
        -0.000          -0.000
 -14856280.321 9 -11561542.81847  22878302.284    22878302.4414   22878312.8164
        -0.000          -0.000
  -7935221.656 9  -2939221.66346  23791628.163    23791628.0094   23791646.1634
        -0.000          -0.000
  -5737159.728 9  -4453438.08047  22845934.804    22845934.8284   22845947.6614
        -0.000          -0.000
   -681847.395 8    103319.71444  23034896.991    23034897.2804   23034907.4574
        -0.000          -0.000
 -23004867.408 9 -17898050.55649  20798679.820    20798679.4044   20798686.9304
        -0.000          -0.000
 -20215448.453 9 -15204906.36948  22018639.881    22018639.4834   22018648.5854
        -0.000          -0.000
 -26804477.659 9 -20346951.48349  20800665.190    20800664.7494   20800672.8184
        -0.000          -0.000
 99  5 11  0 34 30.0000000  0  8 22  3 29  6 26 23 21 17            -0.000000017
  -4576139.043 9  -3548234.84046  24396058.433    24396057.4514   24396074.6074
        -0.000          -0.000
 -14938252.342 9 -11625417.02247  22862703.391    22862703.6204   22862713.8964
        -0.000          -0.000
  -8042286.313 9  -3022648.15046  23771254.126    23771253.9554   23771271.6944
        -0.000          -0.000
  -5633594.668 9  -4372738.28047  22865642.644    22865642.6944   22865655.6984
        -0.000          -0.000
   -599351.245 7    167602.44854  23050595.649    23050595.7094          0.0005
        -0.000          -0.000
 -22986863.944 9 -17884021.87249  20802105.616    20802105.2524   20802112.8224
        -0.000          -0.000
 -20261737.299 9 -15240975.49248  22009831.258    22009830.8524   22009840.1314
        -0.000          -0.000
 -26794436.297 9 -20339127.04949  20802576.046    20802575.6264   20802583.5204
        -0.000          -0.000
 99  5 11  0 35  0.0000000  0  7 22  3 29  6 23 21 17               -0.000000013
  -4515498.008 9  -3500982.38046  24407597.712    24407597.0134   24407614.4284
        -0.000          -0.000
 -15019917.225 9 -11689051.90847  22847163.290    22847163.4274   22847173.5694
        -0.000          -0.000
  -8149286.031 9  -3106024.03446  23750891.953    23750892.0014   23750909.7584
        -0.000          -0.000
  -5529814.342 9  -4291870.74046  22885391.536    22885391.5634   22885404.5574
        -0.000          -0.000
 -22968610.109 9 -17869798.08349  20805579.257    20805578.9274   20805586.3624
        -0.000          -0.000
 -20307799.448 9 -15276867.98048  22001065.695    22001065.2204   22001074.7174
        -0.000          -0.000
 -26784163.568 9 -20331122.32449  20804530.984    20804530.5234   20804538.3804
        -0.000          -0.000
 99  5 11  0 35 30.0000000  0  7 22  3 29  6 23 21 17               -0.000000051
  -4454717.673 9  -3453621.36046  24419163.857    24419163.2444   24419180.6704
        -0.000          -0.000
 -15101262.656 9 -11752437.84747  22831684.250    22831684.0144   22831693.9674
        -0.000          -0.000
  -8256219.802 9  -3189348.54345  23730542.314    23730542.5194   23730560.3474
        -0.000          -0.000
  -5425820.646 9  -4210836.93546  22905181.181    22905181.1134   22905193.9444
        -0.000          -0.000
 -22950113.748 9 -17855385.30649  20809099.081    20809098.7314   20809105.9784
        -0.000          -0.000
 -20353625.909 9 -15312576.81648  21992344.840    21992344.5074   21992354.1244
        -0.000          -0.000
 -26773659.742 9 -20322937.53049  20806529.900    20806529.3894   20806537.3044
        -0.000          -0.000
 99  5 11  0 36  0.0000000  0  7 22  3 29  6 23 21 17               -0.000000071
  -4393739.976 9  -3406106.55146  24430768.010    24430767.3614   24430784.5194
        -0.000          -0.000
 -15182219.834 9 -11815521.25947  22816278.837    22816278.4894   22816288.2634
        -0.000          -0.000
  -8363016.613 9  -3272566.35145  23710219.109    23710219.0294   23710237.2154
        -0.000          -0.000
  -5321547.116 9  -4129585.08446  22925024.037    22925023.8964   22925036.6884
        -0.000          -0.000
 -22931323.396 9 -17840743.44649  20812674.846    20812674.4254   20812681.6164
        -0.000          -0.000
 -20399155.817 9 -15348054.56848  21983680.803    21983680.4554   21983689.9124
        -0.000          -0.000
 -26762863.633 9 -20314524.98449  20808584.338    20808583.8074   20808591.7014
        -0.000          -0.000
 99  5 11  0 36 30.0000000  0  7 22  3 29  6 23 21 17               -0.000000061
  -4332570.030 9  -3358441.91046  24442408.946    24442408.0924   24442425.1634
        -0.000          -0.000
 -15262769.928 9 -11878287.47347  22800950.613    22800950.3114   22800960.0034
        -0.000          -0.000
  -8469671.538 8  -3355673.59345  23689922.482    23689922.5104   23689940.9834
        -0.000          -0.000
  -5217006.288 9  -4048124.91946  22944917.584    22944917.5144   22944930.3624
        -0.000          -0.000
 -22912248.166 9 -17825879.61549  20816304.704    20816304.3324   20816311.5194
        -0.000          -0.000
 -20444399.113 9 -15383308.99448  21975071.376    21975070.9554   21975080.2774
        -0.000          -0.000
 -26751786.827 9 -20305893.71748  20810692.139    20810691.6084   20810699.5304
        -0.000          -0.000
 99  5 11  0 37  0.0000000  0  7 22  3 29  6 23 21 17               -0.000000044
  -4271271.414 8  -3310677.00846  24454073.590    24454072.7784   24454090.1454
        -0.000          -0.000
 -15342969.159 9 -11940780.31147  22785688.969    22785688.8164   22785698.4414
        -0.000          -0.000
  -8576236.300 8  -3438710.60945  23669642.958    23669643.1294   23669661.6734
        -0.000          -0.000
  -5112276.451 9  -3966517.50446  22964847.012    22964846.9874   22964859.9594
        -0.000          -0.000
 -22892962.890 9 -17810852.10449  20819974.710    20819974.2624   20819981.4284
        -0.000          -0.000
 -20489440.951 9 -15418406.43348  21966500.184    21966499.7394   21966509.1174
        -0.000          -0.000
 -26740496.603 9 -20297096.16649  20812840.557    20812840.0814   20812848.0384
        -0.000          -0.000
 99  5 11  0 37 30.0000000  0  7 22  3 29  6 23 21 17               -0.000000030
  -4209854.586 8  -3262820.01146  24465760.329    24465759.7874   24465777.2964
        -0.000          -0.000
 -15422839.673 9 -12003016.97947  22770490.020    22770489.8384   22770499.5084
        -0.000          -0.000
  -8682727.419 8  -3521690.24445  23649377.609    23649378.0084   23649396.3294
        -0.000          -0.000
  -5007376.850 9  -3884777.78046  22984808.757    22984808.7084   22984821.9184
        -0.000          -0.000
 -22873481.689 9 -17795671.93849  20823681.863    20823681.4054   20823688.6294
        -0.000          -0.000
 -20534305.368 9 -15453365.62848  21957962.590    21957962.1904   21957971.6934
        -0.000          -0.000
 -26729009.144 9 -20288144.92449  20815026.658    20815026.1374   20815034.1214
        -0.000          -0.000
 99  5 11  0 38  0.0000000  0  7 22  3 29  6 23 21 17               -0.000000007
  -4148287.777 9  -3214846.12046  24477476.254    24477475.7164   24477493.0734
        -0.000          -0.000
 -15502357.897 9 -12064979.13547  22755358.326    22755357.9744   22755367.6834
        -0.000          -0.000
  -8789118.436 8  -3604591.88146  23629131.667    23629132.1034   23629149.9884
        -0.000          -0.000
  -4902288.486 9  -3802890.99846  23004806.532    23004806.4834   23004819.7194
        -0.000          -0.000
 -22853774.339 9 -17780315.55849  20827432.004    20827431.5594   20827438.8084
        -0.000          -0.000
 -20578961.573 9 -15488162.58048  21949464.665    21949464.2824   21949473.7664
        -0.000          -0.000
 -26717290.190 9 -20279013.28649  20817256.752    20817256.2334   20817264.1964
        -0.000          -0.000
 99  5 11  0 38 30.0000000  0  7 22  3 29  6 23 21 17               -0.000000007
  -4086602.042 9  -3166779.61245  24489214.927    24489214.2404   24489231.6054
        -0.000          -0.000
 -15581558.178 9 -12126693.55747  22740287.166    22740286.7274   22740296.4284
        -0.000          -0.000
  -8895452.900 8  -3687449.46546  23608896.646    23608896.9614   23608914.4264
        -0.000          -0.000
  -4797046.009 9  -3720884.11746  23024833.943    23024833.8084   23024846.8724
        -0.000          -0.000
 -22833868.641 9 -17764804.61049  20831219.951    20831219.4874   20831226.6824
        -0.000          -0.000
 -20623432.900 9 -15522815.47048  21941002.054    21941001.6414   21941010.9494
        -0.000          -0.000
 -26705369.194 9 -20269724.20449  20819525.271    20819524.7334   20819532.6184
        -0.000          -0.000
 99  5 11  0 39  0.0000000  0  7 22  3 29  6 23 21 17               -0.000000018
  -4024768.471 9  -3118597.91345  24500982.057    24500981.2134   24500998.1034
        -0.000          -0.000
 -15660427.898 9 -12188150.39447  22725278.869    22725278.3474   22725288.1184
        -0.000          -0.000
  -9001707.690 9  -3770244.97346  23588677.018    23588677.4184   23588694.1924
        -0.000          -0.000
  -4691611.126 9  -3638727.31346  23044897.886    23044897.6694   23044910.7314
        -0.000          -0.000
 -22813734.079 9 -17749115.32249  20835051.314    20835050.8954   20835058.0974
        -0.000          -0.000
 -20667684.542 9 -15557297.18048  21932580.996    21932580.7014   21932589.9584
        -0.000          -0.000
 -26693196.762 9 -20260239.19048  20821841.510    20821840.9994   20821848.8204
        -0.000          -0.000
 99  5 11  0 39 30.0000000  0  7 22  3 29  6 23 21 17               -0.000000023
  -3962753.416 9  -3070274.76946  24512783.605    24512782.7934   24512799.5444
        -0.000          -0.000
 -15738924.196 9 -12249316.26847  22710341.358    22710340.8594   22710350.8334
        -0.000          -0.000
  -9107849.098 9  -3852952.11746  23568479.204    23568479.4114   23568495.6524
        -0.000          -0.000
  -4585941.540 9  -3556387.62946  23065006.279    23065006.1484   23065019.4214
        -0.000          -0.000
 -22793320.574 9 -17733208.68849  20838935.726    20838935.3364   20838942.7464
        -0.000          -0.000
 -20711664.633 9 -15591567.28848  21924211.831    21924211.5544   21924220.7724
        -0.000          -0.000
 -26680720.251 9 -20250517.25348  20824215.569    20824215.1264   20824222.8764
        -0.000          -0.000
 99  5 11  0 40  0.0000000  0  7 22  3 29  6 23 21 17               -0.000000043
  -3900595.477 9  -3021840.29245  24524611.904    24524611.1344   24524628.5994
        -0.000          -0.000
 -15817061.992 9 -12310202.79847  22695471.975    22695471.5524   22695481.7184
        -0.000          -0.000
  -9213904.750 9  -3935592.46446  23548297.492    23548297.5734   23548313.4604
        -0.000          -0.000
  -4480071.823 9  -3473892.00346  23085152.761    23085152.6814   23085166.1604
        -0.000          -0.000
 -22772656.651 9 -17717106.94249  20842867.769    20842867.4534   20842875.0794
        -0.000          -0.000
 -20755398.602 9 -15625645.61348  21915889.670    21915889.2964   21915898.4454
        -0.000          -0.000
 -26667974.113 9 -20240585.23648  20826640.974    20826640.5774   20826648.3874
        -0.000          -0.000
 99  5 11  0 40 30.0000000  0  7 22  3 29  6 23 21 17               -0.000000047
  -3838257.603 8  -2973265.60945  24536474.563    24536473.7324   24536491.9814
        -0.000          -0.000
 -15894804.644 9 -12370781.41947  22680677.827    22680677.5434   22680687.8344
        -0.000          -0.000
  -9319834.011 9  -4018134.33646  23528139.457    23528139.4894   23528155.2404
        -0.000          -0.000
  -4373957.402 9  -3391205.69346  23105345.907    23105345.8614   23105359.3154
        -0.000          -0.000
 -22751704.148 9 -17700780.31549  20846854.956    20846854.6534   20846862.3074
        -0.000          -0.000
 -20798849.692 9 -15659503.53048  21907621.179    21907620.7304   21907629.8484
        -0.000          -0.000
 -26654920.668 9 -20230413.72448  20829124.993    20829124.6174   20829132.4184
        -0.000          -0.000
 99  5 11  0 41  0.0000000  0  7 22  3 29  6 23 21 17               -0.000000051
  -3775780.385 9  -2924582.33745  24548363.373    24548362.8424   24548381.5494
        -0.000          -0.000
 -15972162.272 9 -12431060.02047  22665957.195    22665956.7954   22665967.0814
        -0.000          -0.000
  -9425649.272 9  -4100587.37946  23508003.182    23508003.3584   23508018.6984
        -0.000          -0.000
  -4267628.143 9  -3308351.99346  23125580.015    23125580.0234   23125593.3514
        -0.000          -0.000
 -22730489.597 9 -17684249.49149  20850892.004    20850891.6884   20850899.2494
        -0.000          -0.000
 -20842041.231 9 -15693159.20848  21899401.885    21899401.5704   21899410.7174
        -0.000          -0.000
 -26641585.067 9 -20220022.35948  20831662.752    20831662.3204   20831670.1524
        -0.000          -0.000
 99  5 11  0 41 30.0000000  0  7 22  3 29  6 23 21 17               -0.000000059
  -3713165.945 9  -2875792.15945  24560278.872    24560278.2814   24560296.8294
        -0.000          -0.000
 -16049118.837 9 -12491026.10147  22651312.812    22651312.3234   22651322.5094
        -0.000          -0.000
  -9531343.992 9  -4182946.50946  23487889.885    23487890.2324   23487905.0184
        -0.000          -0.000
  -4161093.794 9  -3225338.49246  23145853.175    23145853.1494   23145866.4284
        -0.000          -0.000
 -22709008.136 9 -17667510.68449  20854979.815    20854979.4484   20854986.9504
        -0.000          -0.000
 -20884966.054 9 -15726607.04548  21891233.647    21891233.3254   21891242.3464
        -0.000          -0.000
 -26627978.301 9 -20209419.69448  20834252.091    20834251.6284   20834259.4924
        -0.000          -0.000
 99  5 11  0 42  0.0000000  0  7 22  3 29  6 23 21 17               -0.000000080
  -3650417.988 9  -2826897.93145  24572220.543    24572219.5454   24572237.5904
        -0.000          -0.000
 -16125678.564 9 -12550682.96647  22636743.824    22636743.4194   22636753.3784
        -0.000          -0.000
  -9636903.332 9  -4265200.12546  23467802.405    23467802.6894   23467817.1954
        -0.000          -0.000
  -4054352.836 9  -3142163.99546  23166165.613    23166165.4874   23166178.8654
        -0.000          -0.000
 -22687267.467 9 -17650569.91049  20859116.847    20859116.4944   20859123.9614
        -0.000          -0.000
 -20927615.155 9 -15759840.02248  21883117.861    21883117.4634   21883126.3854
        -0.000          -0.000
 -26614103.528 9 -20198608.20448  20836892.390    20836891.9004   20836899.8204
        -0.000          -0.000
 99  5 11  0 42 30.0000000  0  7 22  3 29  6 23 21 17               -0.000000104
  -3587524.985 9  -2777890.69445  24584189.054    24584188.1804   24584206.2034
        -0.000          -0.000
 -16201817.045 9 -12610011.59247  22622254.938    22622254.5704   22622264.3714
        -0.000          -0.000
  -9742295.920 9  -4347323.82946  23447746.422    23447746.7644   23447761.2794
        -0.000          -0.000
  -3947384.305 9  -3058812.15546  23186520.898    23186520.8064   23186534.6384
        -0.000          -0.000
 -22665247.477 9 -17633411.47949  20863307.116    20863306.7634   20863314.1754
        -0.000          -0.000
 -20969973.302 9 -15792846.28448  21875057.160    21875056.7744   21875065.8234
        -0.000          -0.000
 -26599942.573 9 -20187573.71248  20839587.000    20839586.5754   20839594.5444
        -0.000          -0.000
 99  5 11  0 43  0.0000000  0  7 22  3 29  6 23 21 17               -0.000000117
  -3524488.999 8  -2728772.04845  24596185.017    24596183.9274   24596202.1974
        -0.000          -0.000
 -16277515.591 9 -12668997.39347  22607849.777    22607849.4324   22607859.0914
        -0.000          -0.000
  -9847513.200 9  -4429310.91946  23427723.689    23427724.0764   23427738.8284
        -0.000          -0.000
  -3840192.456 9  -2975286.30446  23206918.701    23206918.7544   23206932.8764
        -0.000          -0.000
 -22642932.876 9 -17616023.47649  20867553.544    20867553.1244   20867560.5604
        -0.000          -0.000
 -21012050.881 9 -15825633.93448  21867049.740    21867049.4674   21867058.6824
        -0.000          -0.000
 -26585494.255 9 -20176315.28848  20842336.496    20842336.1114   20842344.0184
        -0.000          -0.000
 99  5 11  0 43 30.0000000  0  7 22  3 29  6 23 21 17               -0.000000138
  -3461316.391 8  -2679546.94345  24608206.087    24608205.1744   24608223.8514
        -0.000          -0.000
 -16352812.345 9 -12727670.11447  22593521.107    22593520.7314   22593530.3064
        -0.000          -0.000
  -9952578.932 9  -4511179.94446  23407729.918    23407730.2974   23407745.2664
        -0.000          -0.000
  -3732798.269 9  -2891602.79746  23227355.234    23227355.2464   23227369.5844
        -0.000          -0.000
 -22620343.435 9 -17598421.32149  20871852.124    20871851.7484   20871859.2424
        -0.000          -0.000
 -21053870.672 9 -15858220.70848  21859091.510    21859091.2964   21859100.5734
        -0.000          -0.000
 -26570776.124 9 -20164846.62349  20845137.464    20845136.9824   20845144.8824
        -0.000          -0.000
 99  5 11  0 44  0.0000000  0  7 22  3 29  6 23 21 17               -0.000000135
  -3397984.104 9  -2630197.32345  24620258.142    24620257.1704   24620275.8384
        -0.000          -0.000
 -16427672.371 9 -12786002.52947  22579275.530    22579275.2334   22579284.5114
        -0.000          -0.000
 -10057462.749 9  -4592907.19046  23387770.940    23387771.2534   23387786.2544
        -0.000          -0.000
  -3625162.086 9  -2807730.73146  23247838.112    23247838.1664   23247852.3414
        -0.000          -0.000
 -22597447.845 9 -17580580.60249  20876209.088    20876208.7114   20876216.1924
        -0.000          -0.000
 -21095419.679 9 -15890596.47048  21851184.940    21851184.7204   21851194.0404
        -0.000          -0.000
 -26555762.177 9 -20153147.46048  20847994.472    20847994.0044   20848001.9584
        -0.000          -0.000
 99  5 11  0 44 30.0000000  0  7 22  3 29  6 23 21 17               -0.000000109
  -3334531.188 9  -2580753.78545  24632333.102    24632332.1704   24632350.6874
        -0.000          -0.000
 -16502124.400 9 -12844017.02647  22565107.823    22565107.5114   22565116.4764
        -0.000          -0.000
 -10162221.973 9  -4674537.36146  23367836.018    23367836.1844   23367850.8494
        -0.000          -0.000
  -3517331.308 9  -2723707.02446  23268358.136    23268358.1394   23268372.0964
        -0.000          -0.000
 -22574287.288 9 -17562533.41949  20880616.443    20880616.0604   20880623.5454
        -0.000          -0.000
 -21136761.497 9 -15922810.79748  21843317.725    21843317.4964   21843326.8134
        -0.000          -0.000
 -26540493.428 9 -20141249.74948  20850900.046    20850899.5534   20850907.4944
        -0.000          -0.000
 99  5 11  0 45  0.0000000  0  7 22  3 29  6 23 21 17               -0.000000084
  -3270985.322 9  -2531237.80446  24644425.637    24644424.6894   24644443.4294
        -0.000          -0.000
 -16576213.728 9 -12901748.87947  22551009.144    22551008.8414   22551017.5284
        -0.000          -0.000
 -10266883.916 9  -4756091.71446  23347919.667    23347919.6524   23347933.8214
        -0.000          -0.000
  -3409336.978 9  -2639555.90046  23288909.245    23288909.1734   23288923.0244
        -0.000          -0.000
 -22550907.480 9 -17544315.39449  20885065.437    20885065.0604   20885072.5614
        -0.000          -0.000
 -21177918.085 9 -15954880.78148  21835485.826    21835485.5584   21835494.8484
        -0.000          -0.000
 -26524985.597 9 -20129165.74448  20853851.043    20853850.5804   20853858.6164
        -0.000          -0.000
 99  5 11  0 45 30.0000000  0  7 22  3 29  6 23 21 17               -0.000000048
  -3207318.234 9  -2481627.35946  24656541.381    24656540.3724   24656559.2264
        -0.000          -0.000
 -16649921.382 9 -12959183.34047  22536982.970    22536982.7424   22536991.2674
        -0.000          -0.000
 -10371409.225 9  -4837539.58946  23328029.182    23328029.1024   23328042.8954
        -0.000          -0.000
  -3301145.831 9  -2555251.41646  23309497.659    23309497.5704   23309511.3374
        -0.000          -0.000
 -22527298.543 9 -17525918.82049  20889557.976    20889557.6504   20889565.0944
        -0.000          -0.000
 -21218844.335 9 -15986771.27848  21827697.783    21827697.5194   21827706.8384
        -0.000          -0.000
 -26509198.745 9 -20116864.31249  20856855.143    20856854.7204   20856862.9124
        -0.000          -0.000
 99  5 11  0 46  0.0000000  0  7 22  3 29  6 23 21 17                0.000000001
  -3143558.084 9  -2431944.46946  24668674.441    24668673.7524   24668692.4984
        -0.000          -0.000
 -16723234.406 9 -13016310.28847  22523031.928    22523031.7504   22523040.1414
        -0.000          -0.000
 -10475787.830 9  -4918873.15346  23308166.402    23308166.3234   23308180.0184
        -0.000          -0.000
  -3192768.254 9  -2470801.68646  23330121.410    23330121.2034   23330135.1934
        -0.000          -0.000
 -22503479.731 9 -17507358.71549  20894090.521    20894090.2324   20894097.6284
        -0.000          -0.000
 -21259547.187 9 -16018487.70748  21819952.294    21819952.0114   21819961.2804
        -0.000          -0.000
 -26493128.490 9 -20104342.05449  20859913.285    20859912.8434   20859921.0874
        -0.000          -0.000
 99  5 11  0 46 30.0000000  0  7 22  3 29  6 23 21 17                0.000000020
  -3079751.479 9  -2382225.32746  24680816.436    24680815.8874   24680834.3584
        -0.000          -0.000
 -16796205.850 9 -13073171.07247  22509145.821    22509145.6934   22509154.1344
        -0.000          -0.000
 -10580045.866 9  -5000112.77546  23288326.408    23288326.2294   23288340.1284
        -0.000          -0.000
  -3084253.538 9  -2386245.05846  23350770.759    23350770.8084   23350785.0864
        -0.000          -0.000
 -22479508.571 9 -17488679.89449  20898652.173    20898651.8344   20898659.2304
        -0.000          -0.000
 -21300052.296 9 -16050050.03748  21812244.556    21812244.1384   21812253.3244
        -0.000          -0.000
 -26476797.404 9 -20091616.55449  20863020.991    20863020.5414   20863028.7454
        -0.000          -0.000
 99  5 11  0 47  0.0000000  0  7 22  3 29  6 23 21 17                0.000000022
  -3015864.044 9  -2332443.18846  24692973.836    24692973.2604   24692991.7604
        -0.000          -0.000
 -16868800.179 9 -13129738.00347  22495331.462    22495331.3564   22495339.9314
        -0.000          -0.000
 -10684136.212 9  -5081221.72546  23268517.989    23268517.9124   23268532.2664
        -0.000          -0.000
  -2975553.248 9  -2301543.82546  23371455.765    23371455.8674   23371470.4954
        -0.000          -0.000
 -22455346.125 9 -17469852.02149  20903250.124    20903249.7714   20903257.1694
        -0.000          -0.000
 -21340295.679 9 -16081408.43748  21804586.375    21804585.9994   21804595.2044
        -0.000          -0.000
 -26460156.016 9 -20078649.25149  20866187.810    20866187.3694   20866195.4434
        -0.000          -0.000
 99  5 11  0 47 30.0000000  0  7 22  3 29  6 23 21 17                0.000000008
  -2951893.798 9  -2282596.57146  24705146.814    24705146.6424   24705165.2134
        -0.000          -0.000
 -16940998.383 9 -13185996.26047  22481592.507    22481592.3774   22481601.1084
        -0.000          -0.000
 -10788061.762 9  -5162202.26946  23248741.126    23248741.2124   23248755.6104
        -0.000          -0.000
  -2866674.630 9  -2216703.65546  23392174.894    23392175.0734   23392189.8704
        -0.000          -0.000
 -22430978.620 9 -17450864.34549  20907887.079    20907886.7714   20907894.0594
        -0.000          -0.000
 -21380282.298 9 -16112566.74748  21796977.191    21796976.7374   21796985.9634
        -0.000          -0.000
 -26443216.649 9 -20065449.74848  20869411.286    20869410.8284   20869418.8054
        -0.000          -0.000
 99  5 11  0 48  0.0000000  0  7 22  3 29  6 23 21 17               -0.000000009
  -2887854.362 9  -2232695.97746  24717333.704    24717333.2354   24717351.7274
        -0.000          -0.000
 -17012794.538 9 -13241941.24047  22467930.281    22467930.0664   22467938.8984
        -0.000          -0.000
 -10891843.499 9  -5243070.75146  23228991.885    23228991.8944   23229006.3844
        -0.000          -0.000
  -2757636.857 9  -2131739.48246  23412924.429    23412924.5294   23412939.2074
        -0.000          -0.000
 -22406415.172 9 -17431723.98849  20912561.355    20912561.0254   20912568.2364
        -0.000          -0.000
 -21420043.343 9 -16143549.29648  21789410.837    21789410.3454   21789419.6294
        -0.000          -0.000
 -26425998.983 9 -20052033.41148  20872687.632    20872687.2294   20872695.2324
        -0.000          -0.000
 99  5 11  0 48 30.0000000  0  7 22  3 29  6 23 21 17               -0.000000023
  -2823717.354 9  -2182719.39545  24729539.091    24729538.3484   24729556.8484
        -0.000          -0.000
 -17084187.310 9 -13297571.90047  22454344.755    22454344.5014   22454353.2364
        -0.000          -0.000
 -10995484.761 9  -5323829.74846  23209269.097    23209269.0494   23209283.7854
        -0.000          -0.000
  -2648441.014 9  -2046652.11446  23433704.010    23433703.9654   23433718.6684
        -0.000          -0.000
 -22381635.986 9 -17412415.53349  20917276.682    20917276.3514   20917283.6334
        -0.000          -0.000
 -21459582.832 9 -16174359.20348  21781886.494    21781886.1044   21781895.3644
        -0.000          -0.000
 -26408514.221 9 -20038408.93149  20876014.953    20876014.5554   20876022.4984
        -0.000          -0.000
 99  5 11  0 49  0.0000000  0  7 22  3 29  6 23 21 17               -0.000000027
  -2759472.726 8  -2132658.91145  24741764.613    24741763.6944   24741782.5684
        -0.000          -0.000
 -17155155.155 9 -13352871.44047  22440840.009    22440839.7804   22440848.3304
        -0.000          -0.000
 -11098991.200 9  -5404483.72846  23189571.712    23189571.8644   23189586.8704
        -0.000          -0.000
  -2539102.740 9  -1961453.76946  23454510.419    23454510.5204   23454525.3404
        -0.000          -0.000
 -22356625.156 9 -17392926.57849  20922036.122    20922035.7664   20922043.1614
        -0.000          -0.000
 -21498907.556 9 -16205001.74848  21774403.242    21774402.8354   21774411.8904
        -0.000          -0.000
 -26390778.230 9 -20024588.68548  20879390.153    20879389.6694   20879397.4754
        -0.000          -0.000
 99  5 11  0 49 30.0000000  0  7 22  3 29  6 23 21 17               -0.000000014
  -2695126.596 8  -2082519.37345  24754009.495    24754008.5464   24754027.7034
        -0.000          -0.000
 -17225691.174 9 -13407834.49247  22427417.443    22427417.2424   22427425.5924
        -0.000          -0.000
 -11202353.406 9  -5485025.30246  23169902.059    23169902.2624   23169917.3464
        -0.000          -0.000
  -2429642.257 9  -1876160.20346  23475340.250    23475340.3994   23475355.3264
        -0.000          -0.000
 -22331389.088 9 -17373262.09749  20926838.337    20926838.0124   20926845.3924
        -0.000          -0.000
 -21538039.225 9 -16235493.87348  21766956.749    21766956.3004   21766965.2274
        -0.000          -0.000
 -26372800.444 9 -20010580.04148  20882811.192    20882810.7014   20882818.5234
        -0.000          -0.000
 99  5 11  0 50  0.0000000  0  7 22  3 29  6 23 21 17               -0.000000003
  -2630713.128 8  -2032327.36445  24766267.298    24766266.3194   24766285.6284
        -0.000          -0.000
 -17295822.975 9 -13462482.57447  22414071.924    22414071.6314   22414079.8314
        -0.000          -0.000
 -11305597.370 9  -5565474.73646  23150255.311    23150255.4724   23150270.2304
        -0.000          -0.000
  -2320093.208 9  -1790797.61446  23496187.269    23496187.3174   23496202.2064
        -0.000          -0.000
 -22305964.118 9 -17353450.41649  20931676.591    20931676.2424   20931683.5374
        -0.000          -0.000
 -21577000.710 9 -16265853.40248  21759542.575    21759542.1524   21759551.0864
        -0.000          -0.000
 -26354592.266 9 -19996391.86948  20886276.004    20886275.5624   20886283.4264
        -0.000          -0.000
 99  5 11  0 50 30.0000000  0  7 22  3 29  6 23 21 17                0.000000000
  -2566219.223 8  -1982072.66045  24778540.721    24778539.7034   24778558.4294
        -0.000          -0.000
 -17365542.117 9 -13516809.09847  22400804.740    22400804.3864   22400812.6924
        -0.000          -0.000
 -11408710.598 9  -5645822.29346  23130633.710    23130633.5964   23130648.0854
        -0.000          -0.000
  -2210441.740 9  -1705355.23546  23517053.770    23517053.7414   23517068.4254
        -0.000          -0.000
 -22280331.034 9 -17333476.58749  20936554.380    20936553.9954   20936561.3544
        -0.000          -0.000
 -21615757.403 9 -16296053.34848  21752167.372    21752166.9684   21752175.8204
        -0.000          -0.000
 -26336136.272 9 -19982010.59448  20889788.092    20889787.6314   20889795.6284
        -0.000          -0.000
 99  5 11  0 51  0.0000000  0  7 22  3 29  6 23 21 17               -0.000000004
  -2501650.749 8  -1931759.81045  24790828.110    24790827.0384   24790845.2854
        -0.000          -0.000
 -17434825.630 9 -13570796.17747  22387620.282    22387620.0534   22387628.4254
        -0.000          -0.000
 -11511668.350 9  -5726048.72646  23111041.370    23111041.2394   23111055.6134
        -0.000          -0.000
  -2100647.501 9  -1619801.62146  23537947.549    23537947.4174   23537961.7474
        -0.000          -0.000
 -22254480.455 9 -17313333.28649  20941473.533    20941473.2204   20941480.5714
        -0.000          -0.000
 -21654271.501 9 -16326064.24748  21744838.266    21744837.8824   21744846.5744
        -0.000          -0.000
 -26317405.787 9 -19967415.42648  20893352.386    20893351.9334   20893359.9714
        -0.000          -0.000
 99  5 11  0 51 30.0000000  0  7 22  3 29  6 23 21 17               -0.000000020
  -2437022.427 8  -1881400.33345  24803126.143    24803125.3044   24803143.5454
        -0.000          -0.000
 -17503683.968 9 -13624451.95147  22374516.855    22374516.6454   22374524.9234
        -0.000          -0.000
 -11614463.323 9  -5806148.33346  23091479.742    23091479.8914   23091494.2204
        -0.000          -0.000
  -1990692.005 9  -1534122.36746  23558871.846    23558871.6124   23558885.6784
        -0.000          -0.000
 -22228419.467 9 -17293026.01749  20946432.835    20946432.4974   20946439.7804
        -0.000          -0.000
 -21692540.545 9 -16355884.20048  21737555.866    21737555.4644   21737564.0534
        -0.000          -0.000
 -26298394.539 9 -19952601.49048  20896970.141    20896969.6994   20896977.7044
        -0.000          -0.000
 99  5 11  0 52  0.0000000  0  7 22  3 29  6 23 21 17               -0.000000044
  -2372308.805 8  -1830974.41845  24815440.568    24815439.9684   24815458.4184
        -0.000          -0.000
 -17572101.780 9 -13677764.46347  22361497.253    22361497.0784   22361505.3344
        -0.000          -0.000
 -11717076.133 9  -5886105.98746  23071952.939    23071953.1604   23071967.4124
        -0.000          -0.000
  -1880545.275 9  -1448294.07646  23579831.994    23579831.8624   23579846.1634
        -0.000          -0.000
 -22202114.691 9 -17272528.78149  20951438.350    20951438.0414   20951445.3624
        -0.000          -0.000
 -21730524.661 9 -16385482.13248  21730327.707    21730327.3284   21730335.9734
        -0.000          -0.000
 -26279078.234 9 -19937549.84248  20900646.033    20900645.5644   20900653.3994
        -0.000          -0.000
 99  5 11  0 52 30.0000000  0  7 22  3 29  6 23 21 17               -0.000000050
  -2307470.289 9  -1780451.18245  24827779.252    24827778.5864   24827797.2824
        -0.000          -0.000
 -17640042.840 9 -13730705.48447  22348568.349    22348568.2694   22348576.5144
        -0.000          -0.000
 -11819457.114 9  -5965882.98046  23052470.454    23052470.4084   23052484.5614
        -0.000          -0.000
  -1770148.823 9  -1362271.18446  23600839.405    23600839.4994   23600854.2984
        -0.000          -0.000
 -22175522.566 9 -17251807.63349  20956498.580    20956498.2684   20956505.6984
        -0.000          -0.000
 -21768180.240 9 -16414824.07648  21723161.902    21723161.5984   21723170.4074
        -0.000          -0.000
 -26259424.865 9 -19922235.54949  20904386.051    20904385.6154   20904393.2834
        -0.000          -0.000
 99  5 11  0 53  0.0000000  0  7 22  3 29  6 23 21 17               -0.000000048
  -2242531.098 8  -1729849.48845  24840136.824    24840136.0824   24840155.5134
        -0.000          -0.000
 -17707524.775 9 -13783288.72747  22335726.779    22335726.7194   22335735.1334
        -0.000          -0.000
 -11921607.055 9  -6045479.97446  23033031.716    23033031.5654   23033045.4364
        -0.000          -0.000
  -1659530.919 9  -1276075.72546  23621889.228    23621889.3764   23621904.6784
        -0.000          -0.000
 -22148672.804 9 -17230885.73149  20961607.930    20961607.6014   20961615.1424
        -0.000          -0.000
 -21805540.148 9 -16443935.62848  21716052.460    21716052.2504   21716060.8964
        -0.000          -0.000
 -26239446.954 9 -19906668.34849  20908187.776    20908187.2834   20908194.9214
        -0.000          -0.000
 99  5 11  0 53 30.0000000  0  7 22  3 29  6 23 21 17               -0.000000036
  -2177485.664 8  -1679165.02845  24852514.436    24852513.9124   24852534.0074
        -0.000          -0.000
 -17774551.416 9 -13835517.21447  22322971.889    22322971.7484   22322980.3184
        -0.000          -0.000
 -12023520.668 9  -6124892.81146  23013637.588    23013637.5714   23013651.2504
        -0.000          -0.000
  -1548733.484 9  -1189740.39746  23642973.282    23642973.5004   23642989.0104
        -0.000          -0.000
 -22121572.236 9 -17209768.40549  20966764.970    20966764.6414   20966772.2394
        -0.000          -0.000
 -21842626.275 9 -16472833.84248  21708995.414    21708995.0754   21709003.3964
        -0.000          -0.000
 -26219136.749 9 -19890842.22948  20912052.675    20912052.1884   20912059.8574
        -0.000          -0.000
 99  5 11  0 54  0.0000000  0  7 22  3 29  6 23 21 17               -0.000000030
  -2112364.936 8  -1628421.87745  24864906.889    24864906.3424   24864926.5044
        -0.000          -0.000
 -17841150.505 9 -13887412.53247  22310298.250    22310298.0824   22310306.7794
        -0.000          -0.000
 -12125230.894 9  -6204147.17446  22994282.483    22994282.5004   22994295.8694
        -0.000          -0.000
  -1437811.422 9  -1103307.97146  23664081.380    23664081.4964   23664096.9744
        -0.000          -0.000
 -22094272.291 9 -17188495.71749  20971959.995    20971959.6744   20971967.1544
        -0.000          -0.000
 -21879482.407 9 -16501552.84148  21701981.933    21701981.6314   21701989.7544
        -0.000          -0.000
 -26198532.302 9 -19874786.82148  20915973.542    20915973.0634   20915980.8204
        -0.000          -0.000
 99  5 11  0 54 30.0000000  0  7 22  3 29  6 23 21 17                0.000000001
  -2047150.302 9  -1577605.54345  24877317.321    24877316.7904   24877336.8514
        -0.000          -0.000
 -17907277.781 9 -13938940.21147  22297714.561    22297714.3344   22297723.0054
        -0.000          -0.000
 -12226701.314 9  -6283214.69046  22974973.143    22974973.0784   22974986.3234
        -0.000          -0.000
  -1326744.099 9  -1016762.37346  23685217.280    23685217.3354   23685232.5524
        -0.000          -0.000
 -22066763.732 9 -17167060.48149  20977194.707    20977194.4004   20977201.7964
        -0.000          -0.000
 -21916101.898 9 -16530087.45248  21695013.544    21695013.2454   21695021.3434
        -0.000          -0.000
 -26177610.946 9 -19858484.49548  20919954.748    20919954.2374   20919962.0464
        -0.000          -0.000
 99  5 11  0 55  0.0000000  0  7 22  3 29  6 23 21 17                0.000000003
  -1981923.367 9  -1526779.59945  24889730.428    24889729.6874   24889749.3584
        -0.000          -0.000
 -17973001.036 9 -13990153.08047  22285207.662    22285207.5324   22285216.2114
        -0.000          -0.000
 -12328006.345 9  -6362153.34246  22955695.133    22955695.0044   22955708.2414
        -0.000          -0.000
  -1215628.907 9   -930179.45046  23706362.332    23706362.2964   23706377.4194
        -0.000          -0.000
 -22039120.883 9 -17145520.60349  20982455.010    20982454.6694   20982462.0894
        -0.000          -0.000
 -21952570.286 9 -16558504.31348  21688073.790    21688073.4504   21688081.6264
        -0.000          -0.000
 -26156454.916 9 -19841999.29748  20923980.544    20923980.0304   20923987.9264
        -0.000          -0.000
 99  5 11  0 55 30.0000000  0  7 22  3 29  6 23 21 17               -0.000000063
  -1916634.141 9  -1475905.12045  24902154.628    24902153.9084   24902173.7424
        -0.000          -0.000
 -18038255.783 9 -14041000.87247  22272789.847    22272789.8694   22272798.7364
        -0.000          -0.000
 -12429106.551 9  -6440932.40746  22936456.088    22936456.0724   22936469.1634
        -0.000          -0.000
  -1104404.810 9   -843511.67846  23727527.789    23727527.6744   23727543.1394
        -0.000          -0.000
 -22011283.591 9 -17123829.21249  20987752.266    20987751.9324   20987759.3484
        -0.000          -0.000
 -21988822.418 9 -16586752.66848  21681174.888    21681174.6454   21681182.9844
        -0.000          -0.000
 -26135022.481 9 -19825298.72548  20928058.975    20928058.4874   20928066.4984
        -0.000          -0.000
 99  5 11  0 56  0.0000000  0  7 22  3 29  6 23 21 17               -0.000000044
  -1851321.722 8  -1425012.54245  24914582.831    24914582.5034   24914602.4564
        -0.000          -0.000
 -18103073.126 9 -14091507.84247  22260455.311    22260455.4774   22260464.6134
        -0.000          -0.000
 -12530054.063 9  -6519592.46846  22917246.227    22917246.1714   22917259.1734
        -0.000          -0.000
   -993083.274 9   -756767.97046  23748711.671    23748711.5894   23748727.6904
        -0.000          -0.000
 -21983290.691 9 -17102016.56149  20993079.150    20993078.8244   20993086.1484
        -0.000          -0.000
 -22024884.306 9 -16614852.77448  21674312.349    21674312.1564   21674320.5794
        -0.000          -0.000
 -26113355.001 9 -19808414.98648  20932182.124    20932181.6424   20932189.7224
        -0.000          -0.000
 99  5 11  0 56 30.0000000  0  7 22  3 29  6 23 21 17               -0.000000034
  -1786034.871 8  -1374139.92645  24927006.300    24927005.9234   24927026.3124
        -0.000          -0.000
 -18167495.861 9 -14141707.31347  22248195.858    22248196.1154   22248205.5074
        -0.000          -0.000
 -12630905.379 9  -6598177.59346  22898054.670    22898054.4684   22898067.6274
        -0.000          -0.000
   -881696.990 9   -669973.81246  23769908.335    23769908.0744   23769924.2774
        -0.000          -0.000
 -21955167.902 9 -17080102.70549  20998430.741    20998430.3894   20998437.7394
        -0.000          -0.000
 -22060799.769 9 -16642838.78648  21667477.722    21667477.4684   21667486.0304
        -0.000          -0.000
 -26091483.623 9 -19791372.37748  20936344.127    20936343.6714   20936351.8054
        -0.000          -0.000
 99  5 11  0 57  0.0000000  0  7 22  3 29  6 23 21 17               -0.000000021
  -1720738.965 9  -1323260.25945  24939431.601    24939431.4304   24939452.1544
        -0.000          -0.000
 -18231492.562 9 -14191574.80547  22236017.579    22236017.8554   22236027.4124
        -0.000          -0.000
 -12731626.784 9  -6676661.48646  22878887.175    22878887.3674   22878900.6854
        -0.000          -0.000
   -770206.390 9   -583098.40246  23791124.882    23791124.6254   23791140.2724
        -0.000          -0.000
 -21926871.165 9 -17058053.31249  21003815.433    21003815.1114   21003822.4864
        -0.000          -0.000
 -22096516.816 9 -16670670.20348  21660680.913    21660680.6334   21660689.2054
        -0.000          -0.000
 -26069360.315 9 -19774133.46248  20940554.083    20940553.6074   20940561.7584
        -0.000          -0.000
 99  5 11  0 57 30.0000000  0  7 22  3 29  6 23 21 17                0.000000010
  -1655434.694 8  -1272374.08345  24951858.975    24951858.6984   24951879.5704
        -0.000          -0.000
 -18295063.349 9 -14241110.41847  22223920.462    22223920.7694   22223930.2114
        -0.000          -0.000
 -12832216.473 9  -6755042.78846  22859745.145    22859745.6784   22859758.6444
        -0.000          -0.000
   -658598.106 9   -496131.24245  23812363.721    23812363.5734   23812378.7014
        -0.000          -0.000
 -21898405.014 9 -17035871.89948  21009232.417    21009232.0914   21009239.4544
        -0.000          -0.000
 -22132040.006 9 -16698350.53748  21653921.127    21653920.8024   21653929.3444
        -0.000          -0.000
 -26046963.674 9 -19756681.55448  20944815.895    20944815.5054   20944823.6844
        -0.000          -0.000
 99  5 11  0 58  0.0000000  0  7 22  3 29  6 23 21 17                0.000000045
  -1590120.263 8  -1221479.96845  24964287.838    24964287.6144   24964308.8504
        -0.000          -0.000
 -18358215.666 9 -14290319.97347  22211903.263    22211903.3994   22211912.6494
        -0.000          -0.000
 -12932653.755 9  -6833305.30046  22840632.813    22840633.1494   22840645.7254
        -0.000          -0.000
   -546871.098 9   -409071.62646  23833624.689    23833624.7054   23833639.7964
        -0.000          -0.000
 -21869765.347 9 -17013555.28448  21014682.432    21014682.1084   21014689.3344
        -0.000          -0.000
 -22167372.981 9 -16725882.67148  21647197.675    21647197.2874   21647205.7854
        -0.000          -0.000
 -26024283.835 9 -19739008.97148  20949131.817    20949131.3684   20949139.5164
        -0.000          -0.000
 99  5 11  0 58 30.0000000  0  7 22  3 29  6 23 21 17                0.000000074
  -1524778.137 8  -1170564.24445  24976721.538    24976721.4964   24976742.9894
        -0.000          -0.000
 -18420926.056 9 -14339185.16247  22199969.878    22199969.9414   22199979.1564
        -0.000          -0.000
 -13032890.774 9  -6911411.74547  22821558.469    22821558.5254   22821571.0594
        -0.000          -0.000
   -435024.414 9   -321918.70646  23854908.471    23854908.6494   23854924.0614
        -0.000          -0.000
 -21840922.306 9 -16991080.18949  21020171.218    21020170.8784   21020177.9714
        -0.000          -0.000
 -22202494.691 9 -16753250.18048  21640514.316    21640513.8544   21640522.3774
        -0.000          -0.000
 -26001304.331 9 -19721102.87848  20953504.484    20953504.0514   20953512.4054
        -0.000          -0.000
 99  5 11  0 59  0.0000000  0  7 22  3 29  6 23 21 17                0.000000079
  -1459410.040 8  -1119628.23245  24989160.178    24989160.2854   24989182.5904
        -0.000          -0.000
 -18483194.271 9 -14387705.79947  22188120.589    22188120.6044   22188129.8564
        -0.000          -0.000
 -13132905.839 9  -6989345.25846  22802525.671    22802525.7914   22802538.5624
        -0.000          -0.000
   -323064.182 9   -234677.32346  23876214.136    23876214.1914   23876230.0864
        -0.000          -0.000
 -21811877.416 9 -16968447.81449  21025698.383    21025698.0324   21025705.1124
        -0.000          -0.000
 -22237385.905 9 -16780438.07348  21633874.590    21633874.1614   21633882.7494
        -0.000          -0.000
 -25978021.994 9 -19702960.80848  20957934.906    20957934.4544   20957942.8844
        -0.000          -0.000
 99  5 11  0 59 30.0000000  0  7 22  3 29  6 23 21 17                0.000000064
  -1393983.891 8  -1068647.02545  25001610.471    25001610.4954   25001633.2914
        -0.000          -0.000
 -18544984.933 9 -14435854.32147  22176362.267    22176362.2644   22176371.4754
        -0.000          -0.000
 -13232653.269 9  -7067070.26246  22783543.532    22783543.8424   22783556.8514
        -0.000          -0.000
   -210966.048 9   -147328.47346  23897546.067    23897546.1024   23897562.2044
        -0.000          -0.000
 -21782592.280 9 -16945628.23149  21031271.181    21031270.7844   21031277.8964
        -0.000          -0.000
 -22272007.720 9 -16807416.04148  21627286.286    21627285.8624   21627294.3874
        -0.000          -0.000
 -25954394.391 9 -19684549.71148  20962431.162    20962430.7314   20962439.0244
        -0.000          -0.000
 99  5 11  1  0  0.0000000  0  7 22  3 29  6 23 21 17                0.000000027
  -1328463.989 8  -1017592.81145  25014078.817    25014078.8334   25014101.4254
        -0.000          -0.000
 -18606256.122 9 -14483598.05447  22164702.899    22164702.7264   22164711.9434
        -0.000          -0.000
 -13332084.654 9  -7144548.99746  22764621.760    22764622.3404   22764635.3284
        -0.000          -0.000
    -98714.957 9    -59860.43745  23918906.881    23918907.0244   23918923.3214
        -0.000          -0.000
 -21753031.882 9 -16922594.16349  21036896.254    21036895.8504   21036903.0284
        -0.000          -0.000
 -22306312.229 9 -16834146.75048  21620758.421    21620757.8914   21620766.2924
        -0.000          -0.000
 -25930392.167 9 -19665846.69248  20966998.739    20966998.3094   20967006.3994
        -0.000          -0.000
 99  5 11  1  0 30.0000000  0  7 22  3 29  6 23 21 17               -0.000000025
  -1262855.103 9   -966469.24945  25026564.647    25026564.5384   25026586.5984
        -0.000          -0.000
 -18667004.094 9 -14530934.10748  22153143.091    22153142.9284   22153151.9734
        -0.000          -0.000
 -13431211.750 9  -7221790.61946  22745758.443    22745758.9594   22745771.7314
        -0.000          -0.000
     13670.095 9     27711.96645  23940293.288    23940293.3794   23940309.8464
        -0.000          -0.000
 -21723210.041 9 -16899356.37249  21042571.131    21042570.7224   21042577.9534
        -0.000          -0.000
 -22340314.911 9 -16860642.28448  21614287.799    21614287.3014   21614295.6444
        -0.000          -0.000
 -25906010.892 9 -19646848.30948  20971638.341    20971637.9374   20971645.9734
        -0.000          -0.000
 99  5 11  1  1  0.0000000  0  7 22  3 29  6 23 21 17               -0.000000079
  -1197167.301 9   -915284.21845  25039065.467    25039065.1344   25039086.6224
        -0.000          -0.000
 -18727223.584 9 -14577858.35148  22141683.870    22141683.6414   22141692.5064
        -0.000          -0.000
 -13530042.644 9  -7298801.42147  22726951.539    22726951.8794   22726964.6804
        -0.000          -0.000
    126195.832 8    115394.02145  23961706.336    23961706.3374   23961723.1844
        -0.000          -0.000
 -21693134.238 9 -16875920.68849  21048294.291    21048293.9394   21048301.1384
        -0.000          -0.000
 -22374014.539 9 -16886901.67248  21607874.905    21607874.4404   21607882.6184
        -0.000          -0.000
 -25881243.628 9 -19627549.16048  20976351.480    20976351.0344   20976359.0614
        -0.000          -0.000
 99  5 11  1  1 30.0000000  0  7 22  3 29  6 23 21 17               -0.000000124
  -1131403.700 9   -864040.06145  25051580.348    25051579.9114   25051600.7444
        -0.000          -0.000
 -18786912.996 9 -14624369.54348  22130325.376    22130325.1354   22130333.8034
        -0.000          -0.000
 -13628585.933 9  -7375588.11347  22708199.157    22708199.4014   22708212.4544
        -0.000          -0.000
    238847.524 8    203174.21045  23983142.930    23983143.0964   23983160.7684
        -0.000          -0.000
 -21662818.854 9 -16852298.31249  21054063.048    21054062.7264   21054069.9414
        -0.000          -0.000
 -22407439.194 9 -16912946.78048  21601514.267    21601513.8734   21601521.9914
        -0.000          -0.000
 -25856108.698 9 -19607963.51048  20981134.551    20981134.0834   20981142.1434
        -0.000          -0.000
 99  5 11  1  2  0.0000000  0  7 22  3 29  6 23 21 17               -0.000000151
  -1065583.821 8   -812752.03545  25064105.978    25064105.5304   25064125.7084
        -0.000          -0.000
 -18846093.009 9 -14670483.81648  22119063.620    22119063.4714   22119072.0004
        -0.000          -0.000
 -13726878.016 9  -7452179.06247  22689494.490    22689494.7714   22689507.8144
        -0.000          -0.000
    351605.584 8    291037.22645  24004600.269    24004600.5004   24004617.9294
        -0.000          -0.000
 -21632292.853 9 -16828511.81949  21059871.898    21059871.5644   21059878.8974
        -0.000          -0.000
 -22440629.988 9 -16938809.66348  21595198.159    21595197.7664   21595205.9824
        -0.000          -0.000
 -25830651.061 9 -19588126.40248  20985978.995    20985978.5094   20985986.7214
        -0.000          -0.000
 99  5 11  1  2 30.0000000  0  7 22  3 29  6 23 21 17               -0.000000173
   -999757.701 8   -761459.17945  25076632.601    25076632.1894   25076652.1404
        -0.000          -0.000
 -18904814.810 9 -14716241.02548  22107889.020    22107888.9574   22107897.4674
        -0.000          -0.000
 -13824976.415 9  -7528619.10047  22670826.846    22670827.1134   22670839.8904
        -0.000          -0.000
    464439.721 8    378959.54845  24026072.604    24026072.8754   24026089.6594
        -0.000          -0.000
 -21601601.209 9 -16804596.25149  21065712.247    21065711.9314   21065719.3774
        -0.000          -0.000
 -22473634.739 9 -16964527.58248  21588917.359    21588917.0644   21588925.3134
        -0.000          -0.000
 -25804923.030 9 -19568078.59848  20990874.958    20990874.5004   20990882.6224
        -0.000          -0.000
 99  5 11  1  3  0.0000000  0  7 22  3 29  6 23 21 17               -0.000000190
   -933932.000 8   -710166.65945  25089158.771    25089158.5074   25089178.1704
        -0.000          -0.000
 -18963078.463 9 -14761641.24548  22096801.783    22096801.7324   22096810.2454
        -0.000          -0.000
 -13922883.109 9  -7604909.75047  22652195.883    22652196.0614   22652208.4294
        -0.000          -0.000
    577358.301 8    466947.64445  24047561.161    24047561.1094   24047577.3974
        -0.000          -0.000
 -21570735.723 9 -16780545.22749  21071585.871    21071585.5544   21071592.9044
        -0.000          -0.000
 -22506443.666 9 -16990092.92248  21582674.078    21582673.8064   21582681.8864
        -0.000          -0.000
 -25778932.817 9 -19547826.51648  20995820.825    20995820.3564   20995828.4174
        -0.000          -0.000
 99  5 11  1  3 30.0000000  0  7 22  3 29  6 23 21 17               -0.000000190
   -868070.693 8   -658846.41645  25101692.367    25101691.7014   25101711.6324
        -0.000          -0.000
 -19020868.926 9 -14806672.74648  22085804.743    22085804.6754   22085812.9964
        -0.000          -0.000
 -14020571.702 9  -7681030.44647  22633606.420    22633606.6004   22633618.6004
        -0.000          -0.000
    690392.277 8    555025.69045  24069070.830    24069070.7604   24069086.7064
        -0.000          -0.000
 -21539669.321 9 -16756337.63549  21077497.844    21077497.4624   21077504.6164
        -0.000          -0.000
 -22539039.978 9 -17015492.57548  21576471.275    21576470.8804   21576478.9244
        -0.000          -0.000
 -25752664.871 9 -19527357.98948  21000819.490    21000818.9564   21000827.0334
        -0.000          -0.000
 99  5 11  1  4  0.0000000  0  8 22  3 29  6 23 21 31 17            -0.000000162
   -802194.110 8   -607514.26745  25114228.801    25114227.8414   25114248.4174
        -0.000          -0.000
 -19078191.530 9 -14851339.66848  22074896.949    22074896.7774   22074904.8264
        -0.000          -0.000
 -14118042.985 9  -7756981.81847  22615058.384    22615058.4904   22615070.2374
        -0.000          -0.000
    803551.627 8    643201.43645  24090603.562    24090603.9634   24090620.2954
        -0.000          -0.000
 -21508412.729 9 -16731981.85449  21083445.860    21083445.4444   21083452.4894
        -0.000          -0.000
 -22571420.703 9 -17040724.25948  21570309.291    21570308.8964   21570317.1404
        -0.000          -0.000
   -720166.477 8   -541728.27452         0.000           0.0004          0.0005
        -0.000          -0.000
 -25726117.589 9 -19506671.82648  21005871.104    21005870.5794   21005878.8264
        -0.000          -0.000
 99  5 11  1  4 30.0000000  0  8 22  3 29  6 23 21 31 17            -0.000000123
   -736333.783 8   -556194.75245  25126762.046    25126760.7654   25126781.5594
        -0.000          -0.000
 -19135067.294 9 -14895658.41148  22064074.120    22064073.8204   22064081.7124
        -0.000          -0.000
 -14215315.282 9  -7832778.15247  22596547.934    22596548.0064   22596559.7684
        -0.000          -0.000
    916803.582 8    731449.34345  24112154.480    24112154.7734   24112171.9184
        -0.000          -0.000
 -21476996.578 9 -16707501.73349  21089424.200    21089423.7954   21089430.7104
        -0.000          -0.000
 -22603608.679 9 -17065805.74248  21564183.967    21564183.6464   21564192.0854
        -0.000          -0.000
   -816986.877 8   -349723.74942         0.000           0.0004          0.0004
        -0.000          -0.000
 -25699294.193 9 -19485770.50548  21010975.317    21010974.8454   21010983.1144
        -0.000          -0.000
 99  5 11  1  5  0.0000000  0  8 22  3 29  6 23 21 31 17            -0.000000071
   -670486.233 8   -504885.16345  25139291.840    25139291.0014   25139312.2144
        -0.000          -0.000
 -19191482.135 9 -14939617.98648  22053338.623    22053338.3524   22053346.3054
        -0.000          -0.000
 -14312369.094 9  -7908404.23647  22578078.840    22578078.9124   22578090.8064
        -0.000          -0.000
   1030145.452 8    819767.30845  24133723.414    24133723.4504   24133740.8124
        -0.000          -0.000
 -21445425.337 9 -16682900.76149  21095432.067    21095431.6174   21095438.4504
        -0.000          -0.000
 -22635601.471 9 -17090735.13548  21558095.914    21558095.5314   21558104.1094
        -0.000          -0.000
   -913606.465 8   -425011.65452         0.000           0.0004          0.0005
        -0.000          -0.000
 -25672187.793 9 -19464648.65348  21016133.538    21016133.0744   21016141.2034
        -0.000          -0.000
 99  5 11  1  5 30.0000000  0  8 22  3 29  6 23 21 31 17            -0.000000010
   -604653.311 9   -453586.99145  25151819.367    25151818.5974   25151839.9994
        -0.000          -0.000
 -19247428.561 9 -14983212.56448  22042692.102    22042691.8624   22042700.0774
        -0.000          -0.000
 -14409194.593 9  -7983852.40147  22559653.380    22559653.4674   22559665.0814
        -0.000          -0.000
   1143566.114 8    908146.68145  24155307.154    24155307.1184   24155324.6284
        -0.000          -0.000
 -21413710.691 9 -16658188.05248  21101467.117    21101466.6494   21101473.5774
        -0.000          -0.000
 -22667408.211 9 -17115519.55748  21552043.219    21552042.8514   21552051.3964
        -0.000          -0.000
  -1010019.976 8   -500139.14544         0.000           0.0004   24826712.5844
        -0.000          -0.000
 -25644793.413 9 -19443302.40648  21021346.690    21021346.1854   21021354.2664
        -0.000          -0.000
 99  5 11  1  6  0.0000000  0  8 22  3 29  6 23 21 31 17             0.000000041
   -538846.763 8   -402309.36545  25164342.218    25164341.4594   25164362.7304
        -0.000          -0.000
 -19302903.281 9 -15026439.58048  22032135.304    22032135.1414   22032143.5934
        -0.000          -0.000
 -14505801.016 9  -8059129.86347  22541269.737    22541269.8144   22541280.9844
        -0.000          -0.000
   1257030.066 8    996559.78745  24176899.123    24176898.9504   24176916.5854
        -0.000          -0.000
 -21381857.351 9 -16633367.27648  21107528.566    21107528.0924   21107535.1354
        -0.000          -0.000
 -22699032.763 9 -17140162.01648  21546025.255    21546024.9074   21546033.3434
        -0.000          -0.000
  -1106216.154 8   -575097.11445  24808397.509    24808396.9444   24808409.6674
        -0.000          -0.000
 -25617105.591 9 -19421727.52348  21026615.446    21026614.9674   21026623.1194
        -0.000          -0.000
 99  5 11  1  6 30.0000000  0  8 22  3 29  6 23 21 31 17             0.000000068
   -473045.667 8   -351035.99845  25176863.725    25176863.0404   25176884.4804
        -0.000          -0.000
 -19357902.259 9 -15069295.89948  22021669.187    22021669.0964   22021677.7044
        -0.000          -0.000
 -14602185.989 9  -8134234.78147  22522928.039    22522928.1224   22522939.0474
        -0.000          -0.000
   1370521.185 8   1084994.04945  24198496.457    24198496.1284   24198513.8264
        -0.000          -0.000
 -21349847.336 9 -16608424.40948  21113619.773    21113619.3164   21113626.5194
        -0.000          -0.000
 -22730465.185 9 -17164654.77348  21540043.756    21540043.4484   21540051.9664
        -0.000          -0.000
  -1202177.757 9   -649872.34245  24790136.892    24790136.6464   24790148.5324
        -0.000          -0.000
 -25589124.112 9 -19399923.79948  21031940.137    21031939.6714   21031947.7924
        -0.000          -0.000
 99  5 11  1  7  0.0000000  0  8 22  3 29  6 23 21 31 17             0.000000082
   -407240.939 9   -299759.82445  25189386.384    25189385.6604   25189407.2874
        -0.000          -0.000
 -19412399.773 9 -15111761.44248  22011298.662    22011298.4754   22011307.0894
        -0.000          -0.000
 -14698325.432 9  -8209148.39647  22504632.903    22504633.0284   22504643.9824
        -0.000          -0.000
   1484056.381 8   1173462.66545  24220101.927    24220101.7724   24220119.4074
        -0.000          -0.000
 -21317660.552 9 -16583343.79448  21119744.512    21119744.1554   21119751.4734
        -0.000          -0.000
 -22761679.510 9 -17188977.58748  21534103.754    21534103.4804   21534112.0184
        -0.000          -0.000
  -1297887.654 9   -724451.44445  24771923.979    24771923.5244   24771934.9454
        -0.000          -0.000
 -25560853.630 9 -19377894.85948  21037319.879    21037319.4174   21037327.3754
        -0.000          -0.000
 99  5 11  1  7 30.0000000  0  8 22  3 29  6 23 21 31 17             0.000000102
   -341406.867 9   -248460.78845  25201914.836    25201913.8474   25201935.4164
        -0.000          -0.000
 -19466362.379 9 -15153810.19048  22001029.982    22001029.8134   22001038.2624
        -0.000          -0.000
 -14794200.727 9  -8283856.19147  22486388.207    22486388.3184   22486399.3914
        -0.000          -0.000
   1597655.246 8   1261980.88145  24241719.166    24241718.5164   24241736.6094
        -0.000          -0.000
 -21285257.309 9 -16558094.51349  21125910.618    21125910.2674   21125917.6044
        -0.000          -0.000
 -22792648.696 9 -17213109.38548  21528210.413    21528210.1704   21528218.7694
        -0.000          -0.000
  -1393327.761 9   -798820.31645  24753762.354    24753761.5774   24753773.1084
        -0.000          -0.000
 -25532264.449 9 -19355617.60248  21042760.329    21042759.8204   21042767.7714
        -0.000          -0.000
 99  5 11  1  8  0.0000000  0  8 22  3 29  6 23 21 31 17             0.000000118
   -275578.252 8   -197165.94945  25214442.049    25214440.8564   25214462.1594
        -0.000          -0.000
 -19519816.876 9 -15195463.00948  21990858.110    21990857.8564   21990866.0314
        -0.000          -0.000
 -14889834.681 9  -8358375.90747  22468189.387    22468189.5474   22468200.6644
        -0.000          -0.000
   1711295.753 8   1350531.61344  24263344.283    24263343.4164   24263361.4014
        -0.000          -0.000
 -21252663.549 9 -16532696.78549  21132112.995    21132112.6434   21132120.0104
        -0.000          -0.000
 -22823400.559 9 -17237071.84848  21522358.447    21522358.1924   21522366.9304
        -0.000          -0.000
  -1488533.965 9   -873006.90245  24735645.137    24735644.5694   24735655.8884
        -0.000          -0.000
 -25503382.051 9 -19333111.86748  21048256.519    21048256.0164   21048264.0434
        -0.000          -0.000
 99  5 11  1  8 30.0000000  0  8 22  3 29  6 23 21 31 17             0.000000148
   -209763.223 8   -145881.72245  25226965.972    25226964.9074   25226986.0544
        -0.000          -0.000
 -19572746.972 9 -15236707.20748  21980785.770    21980785.6094   21980793.5774
        -0.000          -0.000
 -14985205.543 9  -8432690.61447  22450040.732    22450040.8704   22450051.9764
        -0.000          -0.000
   1825000.633 8   1439132.48244  24284981.494    24284980.8174   24284998.1084
        -0.000          -0.000
 -21219882.537 9 -16507153.14948  21138350.982    21138350.6844   21138358.0494
        -0.000          -0.000
 -22853927.648 9 -17260859.16348  21516549.205    21516548.9934   21516557.7344
        -0.000          -0.000
  -1583500.684 9   -947006.88945  24717573.593    24717573.1104   24717584.1754
        -0.000          -0.000
 -25474202.271 9 -19310374.40948  21053809.172    21053808.7124   21053816.8884
        -0.000          -0.000
 99  5 11  1  9  0.0000000  0  8 22  3 29  6 23 21 31 17             0.000000184
   -144021.481 8    -94654.63345  25239475.680    25239474.7544   25239496.2094
        -0.000          -0.000
 -19625179.362 9 -15277563.57248  21970808.158    21970808.0464   21970815.9364
        -0.000          -0.000
 -15080342.900 9  -8506823.37747  22431936.414    22431936.6144   22431947.7194
        -0.000          -0.000
   1938732.750 8   1527754.49844  24306624.381    24306623.7134   24306640.6764
        -0.000          -0.000
 -21186965.468 9 -16481503.48848  21144614.909    21144614.5784   21144621.9244
        -0.000          -0.000
 -22884278.354 9 -17284509.01048  21510773.766    21510773.4714   21510781.9574
        -0.000          -0.000
  -1678270.385 9  -1020853.38545  24699539.501    24699538.9654   24699549.8224
        -0.000          -0.000
 -25444752.497 9 -19287426.55548  21059413.268    21059412.7924   21059421.0274
        -0.000          -0.000
 99  5 11  1  9 30.0000000  0  8 22  3 29  6 23 21 31 17             0.000000210
    -78360.212 8    -43490.20545  25251970.646    25251969.6574   25251991.0844
        -0.000          -0.000
 -19677121.856 9 -15318038.20248  21960923.740    21960923.6794   21960931.5924
        -0.000          -0.000
 -15175239.724 9  -8580768.73447  22413877.848    22413878.1364   22413889.2324
        -0.000          -0.000
   2052483.504 8   1616391.04444  24328271.416    24328270.2584   24328287.9484
        -0.000          -0.000
 -21153919.258 9 -16455753.21448  21150903.328    21150902.9754   21150910.3614
        -0.000          -0.000
 -22914465.508 9 -17308031.43748  21505029.292    21505028.9884   21505037.4624
        -0.000          -0.000
  -1772838.822 8  -1094543.04945  24681543.605    24681542.9944   24681553.7414
        -0.000          -0.000
 -25415006.576 9 -19264247.94248  21065073.636    21065073.1734   21065081.4844
        -0.000          -0.000
 99  5 11  1 10  0.0000000  0  8 22  3 29  6 23 21 31 17             0.000000184
    -12824.895 8      7576.08045  25264441.448    25264440.5814   25264462.0904
        -0.000          -0.000
 -19728618.034 9 -15358165.04748  21951124.385    21951124.2934   21951132.2404
        -0.000          -0.000
 -15269924.775 9  -8654549.05947  22395859.695    22395859.9494   22395871.0194
        -0.000          -0.000
   2166214.689 8   1705012.36344  24349914.285    24349913.5034   24349931.4384
        -0.000          -0.000
 -21120800.584 9 -16429946.47448  21157205.577    21157205.2814   21157212.6164
        -0.000          -0.000
 -22944520.277 9 -17331450.71348  21499309.863    21499309.6784   21499318.2854
        -0.000          -0.000
  -1867223.942 8  -1168089.85045  24663582.245    24663581.7184   24663592.4854
        -0.000          -0.000
 -25384990.214 9 -19240858.60348  21070785.546    21070785.1094   21070793.3834
        -0.000          -0.000
 99  5 11  1 10 30.0000000  0  8 22  3 29  6 23 21 31 17             0.000000136
     52647.310 8     58593.19245  25276900.603    25276899.9644   25276921.8554
        -0.000          -0.000
 -19779607.815 9 -15397897.29848  21941421.323    21941421.2004   21941429.2864
        -0.000          -0.000
 -15364342.190 9  -8728120.85647  22377892.476    22377892.7974   22377903.5974
        -0.000          -0.000
   2279980.458 8   1793660.68444  24371563.435    24371562.6884   24371581.2454
        -0.000          -0.000
 -21087565.003 9 -16404048.62848  21163530.257    21163529.9334   21163537.1594
        -0.000          -0.000
 -22974369.805 9 -17354710.05248  21493629.710    21493629.5494   21493638.0674
        -0.000          -0.000
  -1961354.059 8  -1241437.89445  24645669.530    24645669.0594   24645679.9234
        -0.000          -0.000
 -25354652.724 9 -19217219.04348  21076558.658    21076558.2224   21076566.5124
        -0.000          -0.000
 99  5 11  1 11  0.0000000  0  8 22  3 29  6 23 21 31 17             0.000000079
    118082.322 8    109581.28645  25289353.201    25289352.6444   25289374.6164
        -0.000          -0.000
 -19830083.396 9 -15437228.86348  21931816.005    21931815.9304   21931824.2624
        -0.000          -0.000
 -15458486.046 9  -8801479.49747  22359977.450    22359977.7604   22359988.3894
        -0.000          -0.000
   2393798.275 8   1882349.57444  24393222.148    24393222.1834   24393240.5964
        -0.000          -0.000
 -21054200.676 9 -16378050.45348  21169879.310    21169878.9484   21169886.1914
        -0.000          -0.000
 -23004001.419 9 -17377799.56548  21487991.359    21487991.0234   21487999.2354
        -0.000          -0.000
  -2055214.508 8  -1314575.84545  24627807.748    24627807.5554   24627818.6364
        -0.000          -0.000
 -25323979.407 9 -19193317.79348  21082395.722    21082395.2224   21082403.4994
        -0.000          -0.000
 99  5 11  1 11 30.0000000  0  8 22  3 29  6 23 21 31 17             0.000000024
    183509.786 8    160563.50245  25301804.135    25301803.4944   25301825.8814
        -0.000          -0.000
 -19880042.027 9 -15476157.61848  21922309.006    21922308.9614   21922317.5274
        -0.000          -0.000
 -15552340.169 9  -8874612.38147  22342117.677    22342117.7844   22342128.4024
        -0.000          -0.000
   2507692.040 8   1971097.63344  24414895.672    24414895.9394   24414914.6684
        -0.000          -0.000
 -21020680.319 9 -16351930.70748  21176257.901    21176257.5524   21176264.8424
        -0.000          -0.000
 -23033397.351 9 -17400705.44048  21482397.442    21482397.1164   21482405.2744
        -0.000          -0.000
  -2148777.711 8  -1387482.20145  24610002.730    24610002.4704   24610013.8794
        -0.000          -0.000
 -25292954.008 9 -19169142.19848  21088299.599    21088299.1744   21088307.4234
        -0.000          -0.000
 99  5 11  1 12  0.0000000  0  8 22  3 29  6 23 21 31 17            -0.000000023
    248913.535 8    211527.19545  25314250.657    25314249.9694   25314271.9874
        -0.000          -0.000
 -19929503.646 9 -15514699.09348  21912896.722    21912896.6674   21912905.3434
        -0.000          -0.000
 -15645937.049 9  -8947544.82547  22324306.449    22324306.6244   22324317.3334
        -0.000          -0.000
   2621649.431 8   2059895.31544  24436581.270    24436581.0274   24436600.7484
        -0.000          -0.000
 -20987019.304 9 -16325701.34248  21182663.311    21182662.9484   21182670.2024
        -0.000          -0.000
 -23062569.461 9 -17423436.91848  21476846.141    21476845.8794   21476853.9814
        -0.000          -0.000
  -2242067.308 8  -1460175.34445  24592249.885    24592249.8004   24592261.3344
        -0.000          -0.000
 -25261626.286 9 -19144731.01448  21094261.041    21094260.6374   21094268.9004
        -0.000          -0.000
 99  5 11  1 12 30.0000000  0  8 22  3 29  6 23 21 31 17            -0.000000050
    314303.930 8    262480.57845  25326694.309    25326693.6744   25326715.2844
        -0.000          -0.000
 -19978464.773 9 -15552850.56848  21903579.706    21903579.5984   21903588.3464
        -0.000          -0.000
 -15739270.398 9  -9020271.92047  22306545.511    22306545.7604   22306556.3104
        -0.000          -0.000
   2735680.056 7   2148750.00744  24458281.039    24458280.1974   24458300.1034
        -0.000          -0.000
 -20953192.712 9 -16299342.96548  21189100.342    21189099.9714   21189107.2524
        -0.000          -0.000
 -23091518.874 9 -17445994.85348  21471337.246    21471336.9434   21471345.0334
        -0.000          -0.000
  -2335092.732 8  -1532662.59345  24574547.324    24574547.4064   24574559.0954
        -0.000          -0.000
 -25230010.232 9 -19120095.16348  21100277.548    21100277.1224   21100285.4144
        -0.000          -0.000
 99  5 11  1 13  0.0000000  0  8 22  3 29  6 23 21 31 17            -0.000000048
    379710.524 8    313446.56245  25339140.979    25339140.1694   25339161.3654
        -0.000          -0.000
 -20026902.812 9 -15590594.44548  21894362.041    21894361.9994   21894370.9514
        -0.000          -0.000
 -15832308.852 9  -9092769.20547  22288840.942    22288841.1174   22288851.2484
        -0.000          -0.000
   2849809.204 8   2237681.44544  24479999.027    24479997.9714   24480018.0194
        -0.000          -0.000
 -20919136.582 9 -16272805.73848  21195581.006    21195580.6254   21195588.0394
        -0.000          -0.000
 -23120230.165 9 -17468367.23848  21465873.303    21465873.1064   21465881.3964
        -0.000          -0.000
  -2427823.727 8  -1604920.43845  24556901.328    24556901.1114   24556913.0394
        -0.000          -0.000
 -25198060.955 9 -19095199.65348  21106357.384    21106356.8644   21106365.2504
        -0.000          -0.000
 99  5 11  1 13 30.0000000  0  8 22  3 29  6 23 21 31 17            -0.000000023
    445121.317 8    364415.81645  25351587.411    25351587.0624   25351608.4704
        -0.000          -0.000
 -20074817.817 9 -15627930.76348  21885244.023    21885244.0514   21885253.1224
        -0.000          -0.000
 -15925051.101 9  -9165035.69247  22271192.742    22271192.8044   22271202.7824
        -0.000          -0.000
   2964017.431 8   2326674.51654  24501732.404    24501731.5134          0.0005
        -0.000          -0.000
 -20884850.152 9 -16246089.05148  21202105.485    21202105.1184   21202112.6314
        -0.000          -0.000
 -23148709.434 9 -17490558.82948  21460453.600    21460453.5674   21460461.9754
        -0.000          -0.000
  -2520255.394 8  -1676945.08845  24539312.669    24539312.2374   24539323.9414
        -0.000          -0.000
 -25165779.413 9 -19070045.24248  21112500.268    21112499.8114   21112508.1954
        -0.000          -0.000
 99  5 11  1 14  0.0000000  0  8 22  3 29  6 23 21 31 17            -0.000000226
    510510.720 8    415368.40245  25364030.619    25364030.0974   25364051.4904
        -0.000          -0.000
 -20122224.789 9 -15664871.21648  21876222.790    21876222.8064   21876231.8654
        -0.000          -0.000
 -16017508.639 9  -9237080.32647  22253598.424    22253598.4054   22253608.7364
        -0.000          -0.000
   3078270.823 8   2415702.86244  24523474.330    24523474.0314   24523495.4204
        -0.000          -0.000
 -20850369.227 9 -16219220.79948  21208667.014    21208666.6554   21208674.0744
        -0.000          -0.000
 -23176970.528 9 -17512580.41748  21455075.725    21455075.6404   21455083.9944
        -0.000          -0.000
  -2612401.216 8  -1748746.95545  24521778.276    24521777.5474   24521789.1784
        -0.000          -0.000
 -25133185.519 9 -19044647.44248  21118702.693    21118702.2474   21118710.5894
        -0.000          -0.000
 99  5 11  1 14 30.0000000  0  8 22  3 29  6 23 21 31 17            -0.000000090
    576130.307 8    466500.34445  25376517.433    25376516.9524   25376538.3874
        -0.000          -0.000
 -20168867.902 9 -15701216.45648  21867346.931    21867346.9514   21867355.7364
        -0.000          -0.000
 -16109408.766 9  -9308690.61847  22236109.940    22236110.0624   22236120.7604
        -0.000          -0.000
   3192808.552 8   2504952.73544  24545270.503    24545269.8644   24545292.4144
        -0.000          -0.000
 -20815439.066 9 -16192002.49048  21215314.131    21215313.7344   21215321.0614
        -0.000          -0.000
 -23204771.850 9 -17534243.74048  21449785.357    21449785.1634   21449793.4444
        -0.000          -0.000
  -2703993.430 8  -1820117.45745  24504349.083    24504348.1634   24504359.9154
        -0.000          -0.000
 -25099997.870 9 -19018786.96548  21125018.239    21125017.7554   21125026.0214
        -0.000          -0.000
 99  5 11  1 15  0.0000000  0  8 22  3 29  6 23 21 31 17            -0.000000009
    641562.581 9    517486.29145  25388968.885    25388968.3734   25388990.2574
        -0.000          -0.000
 -20215129.893 9 -15737264.71148  21858543.620    21858543.5854   21858552.0544
        -0.000          -0.000
 -16201143.876 9  -9380172.32947  22218653.160    22218653.4164   22218664.0884
        -0.000          -0.000
   3307217.629 8   2594102.40044  24567041.663    24567041.2294   24567063.8914
        -0.000          -0.000
 -20780477.668 9 -16164759.84648  21221967.017    21221966.6294   21221973.9934
        -0.000          -0.000
 -23232529.639 9 -17555873.14448  21444503.174    21444502.9904   21444511.1504
        -0.000          -0.000
  -2795426.084 8  -1891363.66845  24486950.109    24486949.2184   24486961.1774
        -0.000          -0.000
 -25066605.349 9 -18992766.86148  21131372.589    21131372.1064   21131380.4394
        -0.000          -0.000
 99  5 11  1 15 30.0000000  0  8 22  3 29  6 23 21 31 17             0.000000042
    706832.838 8    568346.05745  25401390.146    25401389.2244   25401411.2984
        -0.000          -0.000
 -20260959.812 9 -15772976.29848  21849822.448    21849822.3734   21849830.6814
        -0.000          -0.000
 -16292670.263 9  -9451491.40247  22201236.481    22201236.5144   22201247.0484
        -0.000          -0.000
   3421539.922 8   2683184.46754  24588796.803    24588795.6544          0.0005
        -0.000          -0.000
 -20745477.212 9 -16137486.77148  21228627.292    21228626.9674   21228634.3734
        -0.000          -0.000
 -23260197.477 9 -17577432.45048  21439238.289    21439238.0744   21439245.9254
        -0.000          -0.000
  -2886655.493 8  -1962451.49245  24469589.284    24469588.6374   24469600.9144
        -0.000          -0.000
 -25032975.862 9 -18966562.09748  21137771.999    21137771.5264   21137779.9554
        -0.000          -0.000
 99  5 11  1 16  0.0000000  0  8 22  3 29  6 23 21 31 17             0.000000080
    771982.526 8    619111.86945  25413787.689    25413786.2334   25413809.4214
        -0.000          -0.000
 -20306311.448 9 -15808315.19848  21841192.143    21841192.1474   21841200.5054
        -0.000          -0.000
 -16383950.679 9  -9522618.81247  22183866.410    22183866.3994   22183876.9494
        -0.000          -0.000
   3535825.087 8   2772237.45444  24610545.273    24610543.9514   24610566.2444
        -0.000          -0.000
 -20710395.598 9 -16110150.45148  21235303.134    21235302.8264   21235310.2214
        -0.000          -0.000
 -23287727.233 9 -17598884.14948  21433999.595    21433999.3114   21434007.0734
        -0.000          -0.000
  -2977646.187 8  -2033353.29445  24452274.046    24452273.4934   24452285.9244
        -0.000          -0.000
 -24999065.236 9 -18940138.26548  21144224.843    21144224.4084   21144232.8634
        -0.000          -0.000
 99  5 11  1 16 30.0000000  0  8 22  3 29  6 23 21 31 17             0.000000097
    837030.441 7    669798.40245  25426166.180    25426164.5834   25426188.3064
        -0.000          -0.000
 -20351145.098 9 -15843250.47648  21832660.546    21832660.5244   21832668.9344
        -0.000          -0.000
 -16474979.553 9  -9593550.23047  22166543.912    22166544.0014   22166554.8204
        -0.000          -0.000
   3650098.376 8   2861281.16144  24632291.955    24632290.5014   24632310.9304
        -0.000          -0.000
 -20675204.297 9 -16082728.66048  21241999.879    21241999.5504   21242006.9174
        -0.000          -0.000
 -23315096.066 9 -17620210.47148  21428791.359    21428791.0974   21428798.9574
        -0.000          -0.000
  -3068385.082 9  -2104058.91645  24435006.751    24435006.4474   24435019.0794
        -0.000          -0.000
 -24964850.008 9 -18913477.08348  21150735.797    21150735.3814   21150743.8274
        -0.000          -0.000
 99  5 11  1 17  0.0000000  0  8 22  3 29  6 23 21 31 17             0.000000084
    901987.341 8    720414.00545  25438526.670    25438525.5044   25438549.8084
        -0.000          -0.000
 -20395454.510 9 -15877777.25048  21824228.738    21824228.6314   21824237.1384
        -0.000          -0.000
 -16565759.255 9  -9664287.47947  22149269.054    22149268.9714   22149279.9084
        -0.000          -0.000
   3764377.862 8   2950329.76544  24654039.321    24654037.8134   24654057.2634
        -0.000          -0.000
 -20639904.653 9 -16055222.44148  21248717.195    21248716.8594   21248724.1974
        -0.000          -0.000
 -23342266.995 9 -17641382.56748  21423620.938    21423620.6864   21423628.5414
        -0.000          -0.000
  -3158862.635 9  -2174560.87146  24417789.662    24417789.3764   24417801.6764
        -0.000          -0.000
 -24930325.677 9 -18886575.03648  21157305.604    21157305.1524   21157313.5634
        -0.000          -0.000
 99  5 11  1 17 30.0000000  0  8 22  3 29  6 23 21 31 17             0.000000059
    966912.018 8    771004.51545  25450881.832    25450880.6514   25450905.1104
        -0.000          -0.000
 -20439216.065 9 -15911877.12948  21815901.210    21815901.1164   21815909.6274
        -0.000          -0.000
 -16656248.545 9  -9734798.43647  22132049.226    22132049.0524   22132060.0594
        -0.000          -0.000
   3878716.655 8   3039424.66644  24675797.412    24675796.2924   24675815.3074
        -0.000          -0.000
 -20604448.206 9 -16027594.04248  21255464.336    21255463.9594   21255471.4014
        -0.000          -0.000
 -23369167.416 9 -17662343.88348  21418502.001    21418501.7404   21418509.5874
        -0.000          -0.000
  -3249026.927 9  -2244818.70346  24400632.411    24400631.9544   24400643.8694
        -0.000          -0.000
 -24895450.837 9 -18859399.86748  21163942.347    21163941.8574   21163950.1074
        -0.000          -0.000
 99  5 11  1 18  0.0000000  0  9 22  3 29  6 23 21 31  1 17          0.000000037
   1031826.033 8    821586.63345  25463234.984    25463233.5924   25463257.8144
        -0.000          -0.000
 -20482406.923 9 -15945532.30048  21807682.445    21807682.2164   21807690.7504
        -0.000          -0.000
 -16746410.854 9  -9805054.61447  22114891.206    22114891.2904   22114902.3424
        -0.000          -0.000
   3993128.345 7   3128576.36844  24697569.236    24697568.2894   24697587.3414
        -0.000          -0.000
 -20568808.613 9 -15999822.93948  21262246.214    21262245.8644   21262253.4644
        -0.000          -0.000
 -23395781.771 9 -17683082.29548  21413437.384    21413437.1464   21413445.0864
        -0.000          -0.000
  -3338856.104 9  -2314815.39945  24383538.830    24383538.0584   24383549.6644
        -0.000          -0.000
  -1890031.585 8  -1453914.19752         0.000           0.0004          0.0005
        -0.000          -0.000
 -24860209.460 9 -18831939.09548  21170648.756    21170648.2254   21170656.4244
        -0.000          -0.000
 99  5 11  1 18 30.0000000  0  9 22  3 29  6 23 21 31  1 17          0.000000033
   1096721.020 8    872153.96745  25475584.223    25475582.9094   25475606.7484
        -0.000          -0.000
 -20525030.050 9 -15978745.10048  21799571.345    21799571.2514   21799579.8294
        -0.000          -0.000
 -16836222.404 9  -9875037.48347  22097800.116    22097800.4314   22097811.3974
        -0.000          -0.000
   4107608.092 7   3217781.05544  24719354.407    24719353.4744   24719373.2364
        -0.000          -0.000
 -20532989.627 9 -15971912.05448  21269062.216    21269061.9054   21269069.6734
        -0.000          -0.000
 -23422123.384 9 -17703608.18548  21408424.604    21408424.3674   21408432.4474
        -0.000          -0.000
  -3428345.269 9  -2384547.18345  24366509.707    24366508.8074   24366520.1514
        -0.000          -0.000
  -2000790.32118  -1540218.92545         0.000           0.0005   25085783.0024
        -0.000          -0.000
 -24824605.564 9 -18804195.83048  21177424.006    21177423.4354   21177431.6654
        -0.000          -0.000
 99  5 11  1 19  0.0000000  0  9 22  3 29  6 23 21 31  1 17          0.000000055
   1161581.558 8    922694.49445  25487927.400    25487925.8154   25487949.0304
        -0.000          -0.000
 -20567096.515 9 -16011524.13848  21791566.285    21791566.2234   21791574.7174
        -0.000          -0.000
 -16925668.071 9  -9944735.23447  22080779.084    22080779.3854   22080790.2904
        -0.000          -0.000
   4222142.690 7   3307028.50144  24741150.454    24741149.4694   24741168.4694
        -0.000          -0.000
 -20496999.689 9 -15943867.95848  21275910.852    21275910.6034   21275918.3764
        -0.000          -0.000
 -23448224.016 9 -17723946.28648  21403457.688    21403457.4854   21403465.5944
        -0.000          -0.000
  -3517502.282 8  -2454020.09145  24349543.490    24349542.5644   24349554.1614
        -0.000          -0.000
  -2111481.358 9  -1626470.97445  25064696.271    25064694.9734   25064716.3944
        -0.000          -0.000
 -24788657.900 9 -18776184.69048  21184264.528    21184264.0294   21184272.3174
        -0.000          -0.000
 99  5 11  1 19 30.0000000  0  9 22  3 29  6 23 21 31  1 17          0.000000074
   1226352.276 8    973164.99045  25500253.014    25500251.7914   25500274.3524
        -0.000          -0.000
 -20608626.695 9 -16043885.29948  21783663.302    21783663.2644   21783671.7024
        -0.000          -0.000
 -17014791.089 9 -10014181.56547  22063819.631    22063819.9354   22063830.5914
        -0.000          -0.000
   4336675.493 8   3396274.55344  24762946.021    24762945.5964   24762963.6604
        -0.000          -0.000
 -20460878.547 9 -15915721.61548  21282784.687    21282784.4054   21282792.0274
        -0.000          -0.000
 -23474159.223 9 -17744155.48448  21398522.463    21398522.2014   21398530.2904
        -0.000          -0.000
  -3606375.748 8  -2523272.04745  24332630.942    24332630.1814   24332642.0634
        -0.000          -0.000
  -2222147.761 8  -1712703.81545  25043636.830    25043636.5314   25043656.9824
        -0.000          -0.000
 -24752417.477 9 -18747945.41648  21191160.807    21191160.3054   21191168.6984
        -0.000          -0.000
 99  5 11  1 20  0.0000000  0  9 22  3 29  6 23 21 31  1 17          0.000000101
   1291024.525 8   1023558.84445  25512559.914    25512558.6944   25512581.1684
        -0.000          -0.000
 -20649591.022 9 -16075805.53348  21775867.988    21775868.0004   21775876.4464
        -0.000          -0.000
 -17103586.374 9 -10083372.51047  22046922.822    22046922.9724   22046933.1114
        -0.000          -0.000
   4451190.927 7   3485507.06844  24784738.278    24784737.9834   24784755.0434
        -0.000          -0.000
 -20424624.766 9 -15887471.91448  21289683.584    21289683.2794   21289690.8974
        -0.000          -0.000
 -23499946.003 9 -17764249.03448  21393615.326    21393615.1184   21393623.2074
        -0.000          -0.000
  -3694959.800 8  -2592298.49745  24315773.532    24315772.8914   24315784.8474
        -0.000          -0.000
  -2332797.514 9  -1798923.72345  25022580.893    25022579.7994   25022601.4324
        -0.000          -0.000
 -24715870.506 9 -18719467.29248  21198115.388    21198114.9104   21198123.3244
        -0.000          -0.000
 99  5 11  1 20 30.0000000  0  9 22  3 29  6 23 21 31  1 17          0.000000098
   1355549.921 8   1073838.28045  25524838.855    25524837.3244   25524860.1094
        -0.000          -0.000
 -20690038.921 9 -16107323.35248  21768171.124    21768171.0594   21768179.4774
        -0.000          -0.000
 -17192115.413 9 -10152355.99547  22030076.437    22030076.5354   22030086.2284
        -0.000          -0.000
   4565633.044 8   3574682.48545  24806516.335    24806515.8664   24806532.7724
        -0.000          -0.000
 -20388281.595 9 -15859152.57548  21296599.342    21296599.0614   21296606.8114
        -0.000          -0.000
 -23525630.852 9 -17784263.16848  21388727.675    21388727.4724   21388735.4934
        -0.000          -0.000
  -3783297.769 8  -2661133.17545  24298962.982    24298962.5584   24298974.5954
        -0.000          -0.000
  -2443489.934 9  -1885176.88545  25001516.651    25001515.3024   25001537.0864
        -0.000          -0.000
 -24679062.332 9 -18690785.63548  21205119.788    21205119.2724   21205127.5734
        -0.000          -0.000
 99  5 11  1 21  0.0000000  0  9 22  3 29  6 23 21 31  1 17          0.000000076
   1419968.761 8   1124034.58045  25537096.719    25537095.5874   25537118.8944
        -0.000          -0.000
 -20729930.276 9 -16138407.49748  21760579.942    21760579.8944   21760588.5564
        -0.000          -0.000
 -17280363.894 9 -10221120.85947  22013283.367    22013283.3314   22013292.9004
        -0.000          -0.000
   4680042.669 7   3663832.60345  24828287.864    24828287.5844   24828304.5844
        -0.000          -0.000
 -20351815.784 9 -15830737.67048  21303538.575    21303538.3074   21303546.0644
        -0.000          -0.000
 -23551161.045 9 -17804156.78448  21383869.629    21383869.3054   21383877.0954
        -0.000          -0.000
  -3871344.300 8  -2729740.80245  24282208.062    24282207.8084   24282219.6354
        -0.000          -0.000
  -2554184.928 8  -1971432.09245  24980451.368    24980450.2564   24980472.2204
        -0.000          -0.000
 -24641959.413 9 -18661874.30248  21212180.080    21212179.6644   21212187.9774
        -0.000          -0.000
 99  5 11  1 21 30.0000000  0  9 22  3 29  6 23 21 31  1 17          0.000000040
   1484289.452 8   1174154.49745  25549335.998    25549335.2724   25549358.9804
        -0.000          -0.000
 -20769273.156 9 -16169064.26048  21753093.055    21753093.1274   21753102.0114
        -0.000          -0.000
 -17368333.120 9 -10289668.14047  21996543.493    21996543.3904   21996552.8164
        -0.000          -0.000
   4794432.20717   3752967.08244  24850054.803    24850054.8275   24850072.1044
        -0.000          -0.000
 -20315230.280 9 -15802229.49548  21310500.732    21310500.4374   21310508.0744
        -0.000          -0.000
 -23576508.080 9 -17823907.67948  21379046.282    21379045.9254   21379053.5814
        -0.000          -0.000
  -3959078.237 8  -2798104.78845  24265512.564    24265512.5654   24265524.3714
        -0.000          -0.000
  -2664868.280 8  -2057678.25345  24959387.786    24959386.9984   24959409.2984
        -0.000          -0.000
 -24604547.389 9 -18632722.10748  21219299.440    21219299.0654   21219307.2844
        -0.000          -0.000
 99  5 11  1 22  0.0000000  0  9 22  3 29  6 23 21 31  1 17          0.000000007
   1548527.550 8   1224210.07045  25561560.475    25561559.4704   25561583.4124
        -0.000          -0.000
 -20808083.718 9 -16199306.23148  21745707.525    21745707.6404   21745716.5704
        -0.000          -0.000
 -17455994.761 9 -10357975.74748  21979861.984    21979861.9084   21979871.2594
        -0.000          -0.000
   4908816.99117   3842097.91454  24871820.374    24871820.7815          0.0005
        -0.000          -0.000
 -20278508.691 9 -15773615.27048  21317488.692    21317488.3604   21317495.8504
        -0.000          -0.000
 -23601651.662 9 -17843500.04548  21374261.621    21374261.2574   21374268.8144
        -0.000          -0.000
  -4046486.367 8  -2866214.92445  24248879.298    24248879.3494   24248891.0784
        -0.000          -0.000
  -2775519.272 8  -2143899.23845  24938330.362    24938330.1254   24938352.5204
        -0.000          -0.000
 -24566808.635 9 -18603315.31248  21226481.084    21226480.6234   21226488.8464
        -0.000          -0.000
 99  5 11  1 22 30.0000000  0  9 22  3 29  6 23 21 31  1 17         -0.000000023
   1612709.620 8   1274221.91745  25573774.766    25573773.3954   25573797.1694
        -0.000          -0.000
 -20846357.949 9 -16229130.29348  21738424.250    21738424.2924   21738433.2084
        -0.000          -0.000
 -17543331.348 9 -10426030.08248  21963242.206    21963242.1644   21963251.5064
        -0.000          -0.000
   5023235.73116   3931255.25254  24893592.826    24893592.1085          0.0005
        -0.000          -0.000
 -20241627.979 9 -15744877.06048  21324506.832    21324506.4714   21324513.8964
        -0.000          -0.000
 -23626565.589 9 -17862913.45548  21369520.598    21369520.2394   21369527.7284
        -0.000          -0.000
  -4133553.326 9  -2934059.20445  24232311.330    24232311.3204   24232322.7564
        -0.000          -0.000
  -2886113.737 8  -2230076.15045  24917284.306    24917283.7854   24917306.3134
        -0.000          -0.000
 -24528735.876 9 -18573648.24548  21233726.064    21233725.5784   21233733.9594
        -0.000          -0.000
 99  5 11  1 23  0.0000000  0  9 22  3 29  6 23 21 31  1 17         -0.000000044
   1676841.518 8   1324194.73045  25585979.656    25585977.9044   25586001.2104
        -0.000          -0.000
 -20884086.152 9 -16258528.86748  21731244.848    21731244.8624   21731253.7234
        -0.000          -0.000
 -17630324.179 9 -10493816.55048  21946687.693    21946687.7254   21946697.1694
        -0.000          -0.000
   5137694.87016   4020444.08854         0.000           0.0005          0.0005
        -0.000          -0.000
 -20204584.245 9 -15716011.82948  21331556.075    21331555.7014   21331563.1334
        -0.000          -0.000
 -23651235.131 9 -17882136.42948  21364826.167    21364825.7794   21364833.2164
        -0.000          -0.000
  -4220268.867 9  -3001629.63845  24215810.092    24215810.0034   24215821.3104
        -0.000          -0.000
  -2996628.913 8  -2316191.27245  24896253.270    24896252.8644   24896275.2074
        -0.000          -0.000
 -24490313.868 9 -18543709.02548  21241037.388    21241036.9164   21241045.5324
        -0.000          -0.000
 99  5 11  1 23 30.0000000  0  9 22  3 29  6 23 21 31  1 17         -0.000000046
   1740901.248 8   1374111.22845  25598170.468    25598168.3964   25598191.8464
        -0.000          -0.000
 -20921287.674 9 -16287517.05348  21724165.623    21724165.6634   21724174.2994
        -0.000          -0.000
 -17716964.848 9 -10561328.59947  21930200.243    21930200.2694   21930209.7334
        -0.000          -0.000
   5252156.53617   7523583.78142         0.000           0.0005          0.0004
        -0.000          -0.000
 -20167378.417 9 -15687020.29448  21338636.287    21338635.8704   21338643.3424
        -0.000          -0.000
 -23675689.102 9 -17901191.43548  21360172.713    21360172.3804   21360179.8064
        -0.000          -0.000
  -4306644.009 9  -3068934.83446  24199373.502    24199373.4224   24199384.6144
        -0.000          -0.000
  -3107072.913 8  -2402250.94445  24875235.674    24875235.5344   24875258.1384
        -0.000          -0.000
 -24451546.126 9 -18513500.41148  21248414.578    21248414.1794   21248422.8554
        -0.000          -0.000
 99  5 11  1 24  0.0000000  0  9 22  3 29  6 23 21 31  1 17         -0.000000042
   1804870.213 8   1423957.00645  25610343.598    25610341.4904   25610364.5644
        -0.000          -0.000
 -20957948.678 9 -16316084.04848  21717189.431    21717189.3924   21717197.8134
        -0.000          -0.000
 -17803263.229 9 -10628573.93847  21913777.655    21913777.9184   21913787.4644
        -0.000          -0.000
   5366598.03817   7612740.49152         0.000           0.0005          0.0005
        -0.000          -0.000
 -20130016.148 9 -15657906.86048  21345746.167    21345745.7084   21345753.2944
        -0.000          -0.000
 -23699944.556 9 -17920091.74248  21355557.187    21355556.7964   21355564.1504
        -0.000          -0.000
  -4392688.213 9  -3135982.15546  24182999.968    24182999.8774   24183010.8884
        -0.000          -0.000
  -3217467.135 8  -2488271.88345  24854227.501    24854227.4784   24854250.2044
        -0.000          -0.000
 -24412439.500 9 -18483027.74748  21255856.409    21255855.9974   21255864.5994
        -0.000          -0.000
 99  5 11  1 24 30.0000000  0  9 22  3 29  6 23 21 31  1 17         -0.000000038
   1868738.185 8   1473724.12745  25622497.476    25622495.3344   25622518.4904
        -0.000          -0.000
 -20994062.149 9 -16344224.39148  21710317.576    21710317.4404   21710325.6404
        -0.000          -0.000
 -17889238.212 9 -10695567.27347  21897416.982    21897417.2144   21897426.8714
        -0.000          -0.000
   5481009.586 7   7701851.43552         0.000           0.0004          0.0005
        -0.000          -0.000
 -20092513.185 9 -15628683.78348  21352882.649    21352882.2274   21352889.8734
        -0.000          -0.000
 -23724006.505 9 -17938841.26748  21350978.306    21350977.8964   21350985.3224
        -0.000          -0.000
  -4478398.476 9  -3202769.29146  24166689.843    24166689.8384   24166700.7204
        -0.000          -0.000
  -3327823.376 8  -2574263.19245  24833226.502    24833226.4574   24833249.5934
        -0.000          -0.000
 -24373005.525 9 -18452300.00948  21263360.554    21263360.1024   21263368.5214
        -0.000          -0.000
 99  5 11  1 25  0.0000000  0  9 22  3 29  6 23 21 31  1 17         -0.000000011
   1932506.536 8   1523413.59745  25634632.723    25634630.7024   25634653.6374
        -0.000          -0.000
 -21029623.282 9 -16371934.35448  21703550.727    21703550.5554   21703558.5454
        -0.000          -0.000
 -17974874.528 9 -10762296.72047  21881120.879    21881121.0354   21881130.7904
        -0.000          -0.000
   5595387.238 7   7549987.63442         0.000           0.0004          0.0004
        -0.000          -0.000
 -20054867.253 9 -15599349.29448  21360046.321    21360045.9484   21360053.5784
        -0.000          -0.000
 -23747871.566 9 -17957437.37048  21346436.687    21346436.3404   21346444.0184
        -0.000          -0.000
  -4563754.381 9  -3269280.29146  24150447.133    24150447.0834   24150457.7834
        -0.000          -0.000
  -3438126.426 8  -2660213.09245  24812235.827    24812235.7984   24812259.5214
        -0.000          -0.000
 -24333219.558 9 -18421297.99048  21270931.584    21270931.1014   21270939.3964
        -0.000          -0.000
 99  5 11  1 25 30.0000000  0  9 22  3 29  6 23 21 31  1 17          0.000000014
   1996135.836 8   1572994.71145  25646740.914    25646739.0134   25646762.3604
        -0.000          -0.000
 -21064671.472 9 -16399244.61848  21696881.321    21696881.1924   21696889.0894
        -0.000          -0.000
 -18060226.153 9 -10828804.32948  21864878.943    21864879.0104   21864888.8634
        -0.000          -0.000
   5709698.775 7   7639106.72852         0.000           0.0004          0.0005
        -0.000          -0.000
 -20017127.731 9 -15569941.88548  21367227.958    21367227.6064   21367235.1144
        -0.000          -0.000
 -23771597.523 9 -17975925.08448  21341921.435    21341921.1764   21341929.1874
        -0.000          -0.000
  -4648800.560 9  -3335549.93046  24134263.396    24134263.2874   24134273.9344
        -0.000          -0.000
  -3548433.164 8  -2746165.89445  24791244.865    24791244.8584   24791268.5894
        -0.000          -0.000
 -24293119.069 9 -18390050.88548  21278562.395    21278561.9484   21278570.2664
        -0.000          -0.000
 99  5 11  1 26  0.0000000  0  9 22  3 29  6 23 21 31  1 17          0.000000036
   2059650.072 8   1622486.22745  25658826.763    25658825.5844   25658848.2474
        -0.000          -0.000
 -21099175.418 9 -16426130.79548  21690315.392    21690315.2974   21690323.2874
        -0.000          -0.000
 -18145276.615 9 -10895077.27248  21848694.184    21848694.2644   21848704.1624
        -0.000          -0.000
   5823983.62817   7728282.40752         0.000           0.0005          0.0005
        -0.000          -0.000
 -19979281.042 9 -15540450.97648  21374429.963    21374429.5604   21374437.0624
        -0.000          -0.000
 -23795153.357 9 -17994280.23448  21337438.791    21337438.5994   21337446.6594
        -0.000          -0.000
  -4733521.229 9  -3401565.93145  24118141.400    24118141.2894   24118151.9774
        -0.000          -0.000
  -3658729.717 9  -2832110.75445  24770256.034    24770256.1194   24770279.4764
        -0.000          -0.000
 -24252677.480 9 -18358537.98348  21286258.275    21286257.8604   21286266.1064
        -0.000          -0.000
 99  5 11  1 26 30.0000000  0  9 22  3 29  6 23 21 31  1 17          0.000000052
   2123048.757 8   1671887.57745  25670890.606    25670889.5034   25670912.9154
        -0.000          -0.000
 -21133165.872 9 -16452616.83748  21683847.077    21683846.9664   21683855.1844
        -0.000          -0.000
 -18230027.227 9 -10961116.56448  21832566.421    21832566.5004   21832576.4934
        -0.000          -0.000
   5938229.982 7   7576270.81642         0.000           0.0004          0.0004
        -0.000          -0.000
 -19941336.739 9 -15510884.01348  21381650.405    21381650.0624   21381657.5784
        -0.000          -0.000
 -23818551.573 9 -18012512.55448  21332986.384    21332986.0514   21332993.9544
        -0.000          -0.000
  -4817927.302 8  -3467336.80345  24102079.207    24102079.2174   24102089.8064
        -0.000          -0.000
  -3769004.354 8  -2918038.51945  24749271.213    24749271.0874   24749294.6044
        -0.000          -0.000
 -24211910.532 9 -18326771.55248  21294016.226    21294015.7294   21294023.9194
        -0.000          -0.000
 99  5 11  1 27  0.0000000  0  9 22  3 29  6 23 21 31  1 17          0.000000066
   2186333.161 8   1721199.97545  25682932.534    25682931.7964   25682956.0384
        -0.000          -0.000
 -21166619.973 9 -16478684.94848  21677480.698    21677480.6334   21677489.0864
        -0.000          -0.000
 -18314465.522 9 -11026912.49048  21816498.099    21816498.2034   21816508.2424
        -0.000          -0.000
   6052436.32717   7665223.25242         0.000           0.0005          0.0004
        -0.000          -0.000
 -19903291.032 9 -15481238.02648  21388890.227    21388889.8804   21388897.3744
        -0.000          -0.000
 -23841787.023 9 -18030618.06548  21328564.549    21328564.3134   21328572.2874
        -0.000          -0.000
  -4902012.485 9  -3532857.59245  24086078.200    24086078.1954   24086088.8224
        -0.000          -0.000
  -3879247.360 8  -3003941.66945  24728292.419    24728292.1804   24728315.8634
        -0.000          -0.000
 -24170811.998 9 -18294746.74048  21301836.982    21301836.5054   21301844.6974
        -0.000          -0.000
 99  5 11  1 27 30.0000000  0  9 22  3 29  6 23 21 31  1 17          0.000000058
   2249507.930 8   1770426.93145  25694954.109    25694953.7734   25694977.8534
        -0.000          -0.000
 -21199506.727 9 -16504310.97948  21671222.413    21671222.3454   21671230.9664
        -0.000          -0.000
 -18398574.302 9 -11092451.63748  21800492.574    21800492.6634   21800502.6074
        -0.000          -0.000
   6166611.45317   7754052.39052         0.000           0.0005          0.0005
        -0.000          -0.000
 -19865132.538 9 -15451504.14348  21396151.608    21396151.2334   21396158.5844
        -0.000          -0.000
 -23864853.772 9 -18048592.11148  21324174.994    21324174.8814   21324182.8474
        -0.000          -0.000
  -4985781.434 8  -3598131.97745  24070137.237    24070137.3724   24070148.0944
        -0.000          -0.000
  -3989454.036 9  -3089816.49945  24707320.469    24707320.2494   24707343.6674
        -0.000          -0.000
 -24129397.606 9 -18262475.80648  21309717.830    21309717.3504   21309725.5694
        -0.000          -0.000
 99  5 11  1 28  0.0000000  0  9 22  3 29  6 23 21 31  1 17          0.000000037
   2312611.768 8   1819598.63745  25706962.142    25706961.5934   25706987.1054
        -0.000          -0.000
 -21231782.773 9 -16529461.12948  21665080.336    21665080.3074   21665089.0144
        -0.000          -0.000
 -18482299.308 9 -11157691.74148  21784560.033    21784560.1434   21784569.9584
        -0.000          -0.000
   6280785.26816   7602474.32342         0.000           0.0005          0.0004
        -0.000          -0.000
 -19826814.588 9 -15421646.00048  21403443.412    21403442.9854   21403450.1044
        -0.000          -0.000
 -23887693.466 9 -18066389.22948  21319828.833    21319828.6604   21319836.5424
        -0.000          -0.000
  -5069193.370 9  -3663128.15846  24054264.084    24054264.1614   24054275.2414
        -0.000          -0.000
  -4099575.380 9  -3175624.81945  24686365.214    24686364.7254   24686387.6174
        -0.000          -0.000
 -24087643.777 9 -18229940.38348  21317663.324    21317662.7994   21317671.1004
        -0.000          -0.000
 99  5 11  1 28 30.0000000  0  9 22  3 29  6 23 21 31  1 17          0.000000005
   2375633.018 7   1868705.99945  25718954.629    25718953.9774   25718979.7384
        -0.000          -0.000
 -21263453.110 9 -16554139.29848  21659053.728    21659053.6494   21659062.2884
        -0.000          -0.000
 -18565656.088 9 -11222644.93048  21768697.697    21768697.8444   21768707.3654
        -0.000          -0.000
   6394946.92916   7691448.45342         0.000           0.0005          0.0004
        -0.000          -0.000
 -19788362.016 9 -15391682.95848  21410760.912    21410760.4094   21410767.4084
        -0.000          -0.000
 -23910324.080 9 -18084023.42748  21315522.383    21315522.2114   21315529.9984
        -0.000          -0.000
  -5152245.300 9  -3727843.81146  24038459.689    24038459.6614   24038470.9274
        -0.000          -0.000
  -4209609.766 9  -3261365.41145  24665426.570    24665425.9804   24665448.1394
        -0.000          -0.000
 -24045575.247 9 -18197159.75848  21325668.660    21325668.1574   21325676.6034
        -0.000          -0.000
 99  5 11  1 29  0.0000000  0  8 22  3 29 23 21 31  1 17            -0.000000029
   2438568.595 7   1917746.48844  25730931.587    25730931.3344   25730955.4204
        -0.000          -0.000
 -21294492.383 9 -16578325.71848  21653147.193    21653147.0384   21653155.5874
        -0.000          -0.000
 -18648636.257 9 -11287304.64448  21752907.300    21752907.3154   21752916.6234
        -0.000          -0.000
 -19749762.165 9 -15361605.16448  21418106.284    21418105.7744   21418112.8344
        -0.000          -0.000
 -23932721.872 9 -18101476.20348  21311260.378    21311260.1414   21311267.7534
        -0.000          -0.000
  -5234912.357 9  -3792259.55046  24022728.479    24022728.6414   24022739.9264
        -0.000          -0.000
  -4319549.848 9  -3347032.49045  24644505.508    24644505.0544   24644526.7334
        -0.000          -0.000
 -24003162.006 9 -18164110.53448  21333739.648    21333739.1304   21333747.6394
        -0.000          -0.000
 99  5 11  1 29 30.0000000  0  8 22  3 29 23 21 31  1 17            -0.000000068
   2501385.493 8   1966694.55645  25742886.270    25742885.5904   25742908.8584
        -0.000          -0.000
 -21324951.753 9 -16602060.28148  21647351.039    21647350.8614   21647359.3164
        -0.000          -0.000
 -18731263.229 9 -11351689.17048  21737183.947    21737183.9514   21737193.1514
        -0.000          -0.000
 -19711033.432 9 -15331426.94848  21425476.057    21425475.5524   21425482.7664
        -0.000          -0.000
 -23954914.190 9 -18118768.87448  21307037.469    21307037.1254   21307044.6334
        -0.000          -0.000
  -5317211.945 9  -3856388.96146  24007067.216    24007067.4134   24007078.9194
        -0.000          -0.000
  -4429425.918 9  -3432649.68945  24623596.508    24623596.0304   24623617.6454
        -0.000          -0.000
 -23960415.989 9 -18130801.99248  21341873.992    21341873.4884   21341881.9444
        -0.000          -0.000
 99  5 11  1 30  0.0000000  0  8 22  3 29 23 21 31  1 17            -0.000000051
   2564065.801 8   2015536.24645  25754814.743    25754814.1134   25754835.8234
        -0.000          -0.000
 -21354860.656 9 -16625365.89848  21641659.694    21641659.4314   21641667.8644
        -0.000          -0.000
 -18813556.012 9 -11415813.28748  21721523.977    21721523.9834   21721533.2704
        -0.000          -0.000
 -19672193.188 9 -15301161.83548  21432866.989    21432866.5264   21432873.9114
        -0.000          -0.000
 -23976898.071 9 -18135899.13248  21302854.061    21302853.6824   21302861.2304
        -0.000          -0.000
  -5399118.615 9  -3920212.20446  23991481.069    23991481.1134   23991492.8004
        -0.000          -0.000
  -4539232.510 9  -3518212.76145  24602700.593    24602700.2564   24602721.8324
        -0.000          -0.000
 -23917311.314 9 -18097213.96048  21350076.600    21350076.1104   21350084.4914
        -0.000          -0.000
 99  5 11  1 30 30.0000000  0  8 22  3 29 23 21 31  1 17            -0.000000050
   2626562.10017   2064234.38844  25766707.830    25766706.8605   25766728.7344
        -0.000          -0.000
 -21384251.247 9 -16648267.64348  21636066.760    21636066.6134   21636074.9404
        -0.000          -0.000
 -18895542.927 9 -11479699.06847  21705922.010    21705922.1534   21705931.5114
        -0.000          -0.000
 -19633279.038 9 -15270839.12648  21440272.003    21440271.6394   21440279.0564
        -0.000          -0.000
 -23998712.817 9 -18152897.59848  21298702.627    21298702.3364   21298709.9404
        -0.000          -0.000
  -5480655.040 9  -3983746.94546  23975965.306    23975965.1154   23975976.8104
        -0.000          -0.000
  -4648985.410 9  -3603734.00145  24581814.829    24581814.5354   24581836.2184
        -0.000          -0.000
 -23873860.266 9 -18063356.03248  21358345.137    21358344.6654   21358352.9874
        -0.000          -0.000
 99  5 11  1 31  0.0000000  0  8 22  3 29 23 21 31  1 17            -0.000000040
   2688880.675 8   2112794.28545  25778566.048    25778565.4424   25778587.0764
        -0.000          -0.000
 -21413115.831 9 -16670759.50548  21630574.022    21630573.8454   21630582.1174
        -0.000          -0.000
 -18977195.308 9 -11543324.16348  21690384.174    21690384.2494   21690393.4464
        -0.000          -0.000
 -19594262.409 9 -15240436.56648  21447696.735    21447696.3594   21447703.6214
        -0.000          -0.000
 -24020344.032 9 -18169753.04348  21294586.239    21294585.9654   21294593.5434
        -0.000          -0.000
  -5561827.703 9  -4046998.21546  23960518.484    23960518.3294   23960529.9504
        -0.000          -0.000
  -4758683.271 9  -3689212.34245  24560939.641    24560939.1874   24560960.8234
        -0.000          -0.000
 -23830043.204 9 -18029212.92248  21366683.412    21366682.9034   21366691.2954
        -0.000          -0.000
 99  5 11  1 31 30.0000000  0  8 22  3 29 23 21 31  1 17            -0.000000029
   2751036.395 8   2161227.11044  25790394.457    25790393.7414   25790416.2084
        -0.000          -0.000
 -21441449.001 9 -16692837.28048  21625182.285    21625182.1884   21625190.4284
        -0.000          -0.000
 -19058488.705 9 -11606669.54848  21674914.675    21674914.6594   21674923.6934
        -0.000          -0.000
 -19555145.571 9 -15209955.93148  21455140.513    21455140.1464   21455147.3094
        -0.000          -0.000
 -24041799.483 9 -18186471.54248  21290503.349    21290503.0524   21290510.7694
        -0.000          -0.000
  -5642647.449 9  -4109974.51646  23945138.988    23945138.8864   23945150.1004
        -0.000          -0.000
  -4868317.824 8  -3774641.30545  24540076.556    24540075.9504   24540097.4584
        -0.000          -0.000
 -23785873.722 9 -17994795.21448  21375088.732    21375088.2344   21375096.5614
        -0.000          -0.000
 99  5 11  1 32  0.0000000  0  8 22  3 29 23 21 31  1 17            -0.000000036
   2813045.530 8   2209545.68944  25802194.230    25802193.4284   25802216.5974
        -0.000          -0.000
 -21469231.618 9 -16714486.06048  21619895.407    21619895.3284   21619903.5084
        -0.000          -0.000
 -19139427.591 9 -11669738.67148  21659512.452    21659512.3924   21659521.3844
        -0.000          -0.000
 -19515944.253 9 -15179409.47048  21462600.370    21462600.0014   21462607.1664
        -0.000          -0.000
 -24063082.720 9 -18203055.85348  21286453.277    21286452.9554   21286460.7654
        -0.000          -0.000
  -5723138.946 9  -4172695.01346  23929821.962    23929821.7004   23929832.7674
        -0.000          -0.000
  -4977876.069 8  -3860010.81145  24519227.907    24519227.2244   24519248.6054
        -0.000          -0.000
 -23741378.334 9 -17960123.54348  21383556.028    21383555.4934   21383563.7374
        -0.000          -0.000
 99  5 11  1 32 30.0000000  0  8 22  3 29 23 21 31  1 17            -0.000000062
   2874963.04017   2257793.20054  25813975.811    25813975.2015          0.0005
        -0.000          -0.000
 -21496410.774 9 -16735664.60148  21614723.315    21614723.2784   21614731.5074
        -0.000          -0.000
 -19219964.541 9 -11732494.61248  21644186.642    21644186.6714   21644195.6264
        -0.000          -0.000
 -19476608.590 9 -15148758.32148  21470085.692    21470085.2704   21470092.6024
        -0.000          -0.000
 -24084175.487 9 -18219491.74448  21282439.496    21282439.2044   21282446.8804
        -0.000          -0.000
  -5803288.474 9  -4235149.04346  23914570.061    23914569.6584   23914580.5894
        -0.000          -0.000
  -5087329.883 8  -3945298.96645  24498398.667    24498398.4134   24498419.6534
        -0.000          -0.000
 -23696549.216 9 -17925191.79048  21392086.669    21392086.1874   21392094.4024
        -0.000          -0.000
 99  5 11  1 33  0.0000000  0  8 22  3 29 23 21 31  1 17            -0.000000090
   2936819.723 8   2305993.20744  25825746.621    25825745.7004   25825769.0174
        -0.000          -0.000
 -21522963.530 9 -16756355.04548  21609670.501    21609670.4764   21609678.7094
        -0.000          -0.000
 -19300062.236 9 -11794908.26848  21628944.570    21628944.5734   21628953.4054
        -0.000          -0.000
 -19437105.243 9 -15117976.51548  21477602.839    21477602.4454   21477609.8424
        -0.000          -0.000
 -24105051.330 9 -18235758.58848  21278467.127    21278466.7944   21278474.2144
        -0.000          -0.000
  -5883057.698 9  -4297306.74846  23899390.304    23899390.0074   23899400.8464
        -0.000          -0.000
  -5196653.581 9  -4030485.71745  24477594.416    24477594.4064   24477615.4224
        -0.000          -0.000
 -23651365.003 9 -17889983.35648  21400684.795    21400684.3744   21400692.6524
        -0.000          -0.000
 99  5 11  1 33 30.0000000  0  7  3 29 23 21 31  1 17               -0.000000098
 -21548899.627 9 -16776564.96948  21604734.988    21604734.9234   21604743.2344
        -0.000          -0.000
 -19379745.058 9 -11856998.64848  21613781.192    21613781.2514   21613790.2044
        -0.000          -0.000
 -19397442.365 9 -15087070.38948  21485150.517    21485150.1004   21485157.4644
        -0.000          -0.000
 -24125710.655 9 -18251856.72048  21274535.939    21274535.5064   21274542.8074
        -0.000          -0.000
  -5962425.190 9  -4359151.40546  23884286.935    23884286.7424   23884297.5294
        -0.000          -0.000
  -5305830.041 9  -4115557.69745  24456818.451    24456818.3184   24456839.0454
        -0.000          -0.000
 -23605832.668 9 -17854503.66548  21409349.247    21409348.8664   21409357.2934
        -0.000          -0.000
 99  5 11  1 34  0.0000000  0  7  3 29 23 21 31  1 17               -0.000000105
 -21574276.712 9 -16796339.29948  21599905.729    21599905.6974   21599914.1734
        -0.000          -0.000
 -19459077.065 9 -11918815.66848  21598684.711    21598684.7124   21598693.8334
        -0.000          -0.000
 -19357658.830 9 -15056070.23948  21492721.079    21492720.6594   21492727.9864
        -0.000          -0.000
 -24146206.308 9 -18267827.32348  21270635.614    21270635.1764   21270642.5254
        -0.000          -0.000
  -6041426.077 9  -4420710.41346  23869253.629    23869253.3504   23869264.1474
        -0.000          -0.000
  -5414912.465 9  -4200556.40245  24436060.865    24436060.3284   24436080.7804
        -0.000          -0.000
 -23559991.896 9 -17818783.62448  21418072.561    21418072.1274   21418080.6144
        -0.000          -0.000
 99  5 11  1 34 30.0000000  0  7  3 29 23 21 31  1 17               -0.000000095
 -21599102.562 9 -16815684.08448  21595181.452    21595181.3874   21595189.9424
        -0.000          -0.000
 -19538042.113 9 -11980346.75748  21583658.064    21583658.1244   21583667.2334
        -0.000          -0.000
 -19317744.356 9 -15024968.06048  21500316.561    21500316.1214   21500323.4754
        -0.000          -0.000
 -24166525.916 9 -18283660.75348  21266768.811    21266768.3834   21266775.8204
        -0.000          -0.000
  -6120025.560 9  -4481956.61946  23854296.774    23854296.4244   23854307.2314
        -0.000          -0.000
  -5523902.391 9  -4285483.00545  24415320.548    24415319.8474   24415340.2704
        -0.000          -0.000
 -23513815.354 9 -17782801.94448  21426859.656    21426859.1944   21426867.7284
        -0.000          -0.000
 99  5 11  1 35  0.0000000  0  7  3 29 23 21 31  1 17               -0.000000068
 -21623402.573 9 -16834619.14148  21590557.313    21590557.2484   21590565.6804
        -0.000          -0.000
 -19616663.652 9 -12041610.15148  21568696.771    21568696.8224   21568705.9084
        -0.000          -0.000
 -19277721.174 9 -14993781.19148  21507932.808    21507932.3384   21507939.7254
        -0.000          -0.000
 -24186676.251 9 -18299362.29048  21262934.202    21262933.8074   21262941.3634
        -0.000          -0.000
  -6198233.144 9  -4542897.48046  23839414.563    23839414.1774   23839424.7524
        -0.000          -0.000
  -5632800.983 8  -4370338.44745  24394596.701    24394596.4054   24394617.0664
        -0.000          -0.000
 -23467306.028 9 -17746560.96248  21435710.066    21435709.6174   21435718.1544
        -0.000          -0.000
 99  5 11  1 35 30.0000000  0  7  3 29 23 21 31  1 17               -0.000000042
 -21647193.078 9 -16853157.16948  21586030.349    21586030.2624   21586038.5034
        -0.000          -0.000
 -19694973.868 9 -12102630.96048  21553794.638    21553794.7294   21553803.8214
        -0.000          -0.000
 -19237614.793 9 -14962529.49348  21515564.665    21515564.2454   21515571.7264
        -0.000          -0.000
 -24206687.744 9 -18314955.63748  21259126.019    21259125.6844   21259133.2594
        -0.000          -0.000
  -6276073.353 9  -4603552.06446  23824602.111    23824601.7314   23824612.1694
        -0.000          -0.000
  -5741636.783 8  -4455144.96945  24373884.168    24373884.6134   24373905.8384
        -0.000          -0.000
 -23420487.758 9 -17710079.23048  21444619.296    21444618.8794   21444627.2814
        -0.000          -0.000
 99  5 11  1 36  0.0000000  0  7  3 29 23 21 31  1 17               -0.000000015
 -21670442.074 9 -16871273.25248  21581606.583    21581606.3644   21581614.3134
        -0.000          -0.000
 -19772929.905 9 -12163375.80248  21538959.982    21538960.0494   21538969.0774
        -0.000          -0.000
 -19197416.823 9 -14931206.41448  21523213.953    21523213.5694   21523221.0184
        -0.000          -0.000
 -24226534.473 9 -18330420.60048  21255349.375    21255348.9784   21255356.5494
        -0.000          -0.000
  -6353531.377 9  -4663908.86146  23809862.316    23809861.8964   23809872.3094
        -0.000          -0.000
  -5850397.022 8  -4539892.59645  24353186.387    24353187.3114   24353209.0704
        -0.000          -0.000
 -23373333.589 9 -17673335.76748  21453592.538    21453592.0574   21453600.2804
        -0.000          -0.000
 99  5 11  1 36 30.0000000  0  7  3 29 23 21 31  1 17                0.000000009
 -21693145.087 9 -16888963.88348  21577286.479    21577286.1664   21577293.9584
        -0.000          -0.000
 -19850540.712 9 -12223851.63748  21524190.929    21524191.1134   21524200.0524
        -0.000          -0.000
 -19157142.845 9 -14899824.10048  21530877.844    21530877.5044   21530884.7644
        -0.000          -0.000
 -24246211.762 9 -18345753.53748  21251604.884    21251604.5104   21251612.0934
        -0.000          -0.000
  -6430612.631 9  -4723972.04746  23795194.105    23795193.8214   23795204.0714
        -0.000          -0.000
  -5959071.912 8  -4624573.72945  24332505.960    24332506.6074   24332528.4224
        -0.000          -0.000
 -23325856.165 9 -17636340.42648  21462627.197    21462626.7034   21462635.0484
        -0.000          -0.000
 99  5 11  1 37  0.0000000  0  7  3 29 23 21 31  1 17                0.000000044
 -21715268.642 9 -16906202.99548  21573076.354    21573076.0614   21573083.9114
        -0.000          -0.000
 -19927781.093 9 -12284038.81848  21509492.518    21509492.6384   21509501.4824
        -0.000          -0.000
 -19116755.885 9 -14868353.74848  21538563.268    21538562.9134   21538570.0654
        -0.000          -0.000
 -24265697.209 9 -18360936.97848  21247897.067    21247896.6674   21247904.1304
        -0.000          -0.000
  -6507291.853 9  -4783721.97846  23780602.289    23780602.1624   23780612.2434
        -0.000          -0.000
  -6067632.306 9  -4709165.61845  24311848.007    24311848.1184   24311869.5474
        -0.000          -0.000
 -23278035.458 9 -17599077.58748  21471727.085    21471726.6534   21471735.1734
        -0.000          -0.000
 99  5 11  1 37 30.0000000  0  7  3 29 23 21 31  1 17                0.000000062
 -21736828.271 9 -16923002.68748  21568973.526    21568973.3204   21568981.1294
        -0.000          -0.000
 -20004667.095 9 -12343949.87248  21494861.630    21494861.6574   21494870.3524
        -0.000          -0.000
 -19076288.210 9 -14836820.51248  21546264.009    21546263.6424   21546270.8124
        -0.000          -0.000
 -24285007.358 9 -18375983.81548  21244222.543    21244222.1214   21244229.4564
        -0.000          -0.000
  -6583591.023 9  -4843175.77546  23766082.924    23766082.7834   23766092.6654
        -0.000          -0.000
  -6176114.793 9  -4793696.79245  24291204.663    24291204.4004   24291225.5714
        -0.000          -0.000
 -23229885.955 9 -17561558.54948  21480889.732    21480889.2794   21480897.7584
        -0.000          -0.000
 99  5 11  1 38  0.0000000  0  8 22  3 29 23 21 31  1 17             0.000000071
   -960496.132 8   -758018.15242         0.000           0.0004          0.0004
        -0.000          -0.000
 -21757801.412 9 -16939345.38048  21564982.508    21564982.2744   21564990.0754
        -0.000          -0.000
 -20081181.091 9 -12403571.04448  21480301.348    21480301.4174   21480310.0004
        -0.000          -0.000
 -19035721.796 9 -14805210.34248  21553983.486    21553983.1484   21553990.4004
        -0.000          -0.000
 -24304122.345 9 -18390878.60548  21240584.949    21240584.5494   21240592.0784
        -0.000          -0.000
  -6659497.803 9  -4902323.79246  23751638.282    23751638.1344   23751647.7494
        -0.000          -0.000
  -6284495.076 8  -4878148.34446  24270579.720    24270579.8084   24270600.8434
        -0.000          -0.000
 -23181390.488 9 -17523769.93348  21490118.176    21490117.7614   21490126.2704
        -0.000          -0.000
 99  5 11  1 38 30.0000000  0  8 22  3 29 23 21 31  1 17             0.000000080
   -900394.270 7   -711194.20152         0.000           0.0004          0.0005
        -0.000          -0.000
 -21778181.655 9 -16955226.06848  21561104.109    21561103.9094   21561111.9404
        -0.000          -0.000
 -20157324.274 9 -12462903.25848  21465811.832    21465811.8184   21465820.3644
        -0.000          -0.000
 -18995044.775 9 -14773513.98548  21561724.102    21561723.7994   21561731.0054
        -0.000          -0.000
 -24323062.112 9 -18405636.83748  21236980.809    21236980.4644   21236988.0044
        -0.000          -0.000
  -6735005.962 9  -4961161.21146  23737269.757    23737269.3114   23737278.7654
        -0.000          -0.000
  -6392770.176 8  -4962517.94646  24249974.876    24249975.3224   24249995.9734
        -0.000          -0.000
 -23132556.611 9 -17485717.60848  21499411.085    21499410.6684   21499419.1844
        -0.000          -0.000
 99  5 11  1 39  0.0000000  0  7  3 29 23 21 31  1 17                0.000000091
 -21797956.942 9 -16970635.37948  21557340.868    21557340.7744   21557348.8714
        -0.000          -0.000
 -20233077.214 9 -12521931.39648  21451396.468    21451396.5074   21451405.0304
        -0.000          -0.000
 -18954247.738 9 -14741724.10148  21569487.646    21569487.3244   21569494.4854
        -0.000          -0.000
 -24341822.245 9 -18420255.08948  21233410.849    21233410.4264   21233417.9664
        -0.000          -0.000
  -6810101.341 9  -5019676.97346  23722979.705    23722979.1934   23722988.5694
        -0.000          -0.000
  -6500941.046 9  -5046806.35046  24229390.605    24229391.0914   24229411.0134
        -0.000          -0.000
 -23083365.374 9 -17447386.82748  21508771.812    21508771.3784   21508779.9974
        -0.000          -0.000
 99  5 11  1 39 30.0000000  0  8 22  3 29 23 21 31  1 17             0.000000099
   -924487.188 7   -725392.49842         0.000           0.0004          0.0004
        -0.000          -0.000
 -21817115.083 9 -16985563.78248  21553695.213    21553695.0674   21553703.2464
        -0.000          -0.000
 -20308425.503 9 -12580644.22848  21437058.229    21437058.1844   21437066.6534
        -0.000          -0.000
 -18913348.604 9 -14709854.66648  21577270.512    21577270.1474   21577277.3544
        -0.000          -0.000
 -24360403.291 9 -18434733.81948  21229874.658    21229874.4144   21229882.0504
        -0.000          -0.000
  -6884787.067 9  -5077873.53946  23708767.378    23708766.9324   23708776.4154
        -0.000          -0.000
  -6608996.772 9  -5131004.98646  24208828.394    24208828.5284   24208848.2874
        -0.000          -0.000
 -23033818.453 9 -17408778.90748  21518200.237    21518199.8104   21518208.4884
        -0.000          -0.000
 99  5 11  1 40  0.0000000  0  8 22  3 29 23 21 31  1 17             0.000000104
   -864828.201 8   -678887.48652         0.000           0.0004          0.0005
        -0.000          -0.000
 -21835653.302 9 -17000009.13348  21550167.528    21550167.3904   21550175.5664
        -0.000          -0.000
 -20383360.448 9 -12639034.98748  21422798.232    21422798.3264   21422806.8224
        -0.000          -0.000
 -18872348.660 9 -14677906.66648  21585072.454    21585072.0964   21585079.3504
        -0.000          -0.000
 -24378815.255 9 -18449080.78648  21226371.136    21226370.8094   21226378.4124
        -0.000          -0.000
  -6959052.501 9  -5135742.60246  23694635.233    23694634.5574   23694644.2084
        -0.000          -0.000
  -6716929.881 9  -5215108.05946  24188289.221    24188289.1074   24188308.9074
        -0.000          -0.000
 -22983937.859 9 -17369910.98648  21527692.255    21527691.8294   21527700.4784
        -0.000          -0.000
 99  5 11  1 40 30.0000000  0  7  3 29 23 21 31  1 17                0.000000092
 -21853595.664 9 -17013990.18148  21546753.171    21546753.0244   21546761.0414
        -0.000          -0.000
 -20457889.339 9 -12697109.33448  21408615.695    21408615.8644   21408624.2154
        -0.000          -0.000
 -18831272.988 9 -14645899.66348  21592888.685    21592888.3554   21592895.6974
        -0.000          -0.000
 -24397063.722 9 -18463300.35948  21222898.667    21222898.2434   21222905.7724
        -0.000          -0.000
  -7032908.417 9  -5193292.55846  23680580.630    23680579.9464   23680590.0474
        -0.000          -0.000
  -6824762.168 9  -5299132.62446  24167769.415    24167769.1124   24167788.4404
        -0.000          -0.000
 -22933727.161 9 -17330785.82248  21537247.217    21537246.7744   21537255.2724
        -0.000          -0.000
 99  5 11  1 41  0.0000000  0  7  3 29 23 21 31  1 17                0.000000070
 -21870944.782 9 -17027508.97048  21543451.729    21543451.6094   21543459.4524
        -0.000          -0.000
 -20532003.745 9 -12754860.71648  21394512.238    21394512.3574   21394520.5334
        -0.000          -0.000
 -18790111.573 9 -14613825.85248  21600721.399    21600721.1624   21600728.5064
        -0.000          -0.000
 -24415128.240 9 -18477376.59348  21219461.149    21219460.7234   21219468.0734
        -0.000          -0.000
  -7106346.660 9  -5250517.07746  23666605.483    23666605.0014   23666615.2534
        -0.000          -0.000
  -6932485.402 9  -5383072.21346  24147270.080    24147269.9044   24147288.6934
        -0.000          -0.000
 -22883161.677 9 -17291384.19848  21546869.657    21546869.2434   21546877.7304
        -0.000          -0.000
 99  5 11  1 41 30.0000000  0  7  3 29 23 21 31  1 17                0.000000055
 -21887667.197 9 -17040539.41348  21540269.564    21540269.4724   21540277.2044
        -0.000          -0.000
 -20605664.749 9 -12812258.78548  21380495.086    21380495.1024   21380503.2214
        -0.000          -0.000
 -18748821.573 9 -14581651.84448  21608578.863    21608578.5724   21608585.8944
        -0.000          -0.000
 -24432983.370 9 -18491289.66348  21216063.408    21216062.9554   21216070.2814
        -0.000          -0.000
  -7179342.868 9  -5307397.16246  23652714.563    23652714.1874   23652724.4624
        -0.000          -0.000
  -7040061.128 9  -5466896.83946  24126798.973    24126798.8554   24126817.0334
        -0.000          -0.000
 -22832217.019 9 -17251687.09348  21556564.106    21556563.6724   21556572.2864
        -0.000          -0.000
 99  5 11  1 42  0.0000000  0  7  3 29 23 21 31  1 17                0.000000041
 -21903806.560 9 -17053115.53048  21537198.265    21537198.1884   21537206.0284
        -0.000          -0.000
 -20678918.783 9 -12869339.75348  21366555.062    21366555.1824   21366563.3214
        -0.000          -0.000
 -18707409.424 9 -14549382.64948  21616459.473    21616459.1274   21616466.4454
        -0.000          -0.000
 -24450667.325 9 -18505069.34848  21212698.239    21212697.8054   21212705.2334
        -0.000          -0.000
  -7251925.839 9  -5363955.24246  23638902.497    23638902.1084   23638912.3424
        -0.000          -0.000
  -7147518.118 9  -5550628.95346  24106350.583    24106350.1724   24106368.1844
        -0.000          -0.000
 -22780917.017 9 -17211713.10148  21566325.988    21566325.5944   21566334.4224
        -0.000          -0.000
 99  5 11  1 42 30.0000000  0  7  3 29 23 21 31  1 17                0.000000030
 -21919369.542 9 -17065242.52148  21534236.721    21534236.6584   21534244.6474
        -0.000          -0.000
 -20751778.236 9 -12926113.24548  21352690.273    21352690.4104   21352698.5194
        -0.000          -0.000
 -18665869.381 9 -14517013.80148  21624364.181    21624363.8254   21624371.2064
        -0.000          -0.000
 -24468193.580 9 -18518726.14648  21209362.994    21209362.6244   21209370.0994
        -0.000          -0.000
  -7324108.706 9  -5420201.56646  23625166.755    23625166.2384   23625176.3054
        -0.000          -0.000
  -7254850.704 9  -5634264.15146  24085925.582    24085925.0234   24085942.8424
        -0.000          -0.000
 -22729248.157 9 -17171451.70148  21576158.175    21576157.7974   21576166.7504
        -0.000          -0.000
 99  5 11  1 43  0.0000000  0  7  3 29 23 21 31  1 17                0.000000021
 -21934375.708 9 -17076935.63648  21531381.193    21531381.0854   21531389.1564
        -0.000          -0.000
 -20824263.856 9 -12982595.43948  21338896.679    21338896.7394   21338904.9744
        -0.000          -0.000
 -18624221.816 9 -14484561.17248  21632289.410    21632289.0584   21632296.4634
        -0.000          -0.000
 -24485604.196 9 -18532292.83948  21206049.794    21206049.4184   21206056.9514
        -0.000          -0.000
  -7395911.688 9  -5476151.84546  23611503.023    23611502.4174   23611512.7074
        -0.000          -0.000
  -7362063.345 9  -5717805.91946  24065523.083    24065522.6664   24065540.2214
        -0.000          -0.000
 -22677248.816 9 -17130932.79748  21586053.345    21586053.0064   21586061.8994
        -0.000          -0.000
 99  5 11  1 43 30.0000000  0  7  3 29 23 21 31  1 17                0.000000024
 -21948810.407 9 -17088183.44448  21528634.243    21528634.1974   21528642.2634
        -0.000          -0.000
 -20896352.551 9 -13038768.34648  21325178.595    21325178.6164   21325186.9334
        -0.000          -0.000
 -18582469.885 9 -14452027.22548  21640234.605    21640234.2274   21640241.6854
        -0.000          -0.000
 -24502876.532 9 -18545751.79048  21202762.853    21202762.5034   21202770.1444
        -0.000          -0.000
  -7467307.234 9  -5531784.65746  23597916.514    23597915.9934   23597926.5274
        -0.000          -0.000
  -7469126.930 9  -5801231.54646  24045149.210    24045148.7814   24045166.0594
        -0.000          -0.000
 -22624914.935 9 -17090153.20548  21596012.390    21596011.9624   21596020.7784
        -0.000          -0.000
 99  5 11  1 44  0.0000000  0  7  3 29 23 21 31  1 17                0.000000028
 -21962692.219 9 -17099000.44748  21525992.519    21525992.5454   21526000.5244
        -0.000          -0.000
 -20968073.934 9 -13094655.03548  21311530.357    21311530.4254   21311538.6804
        -0.000          -0.000
 -18540652.220 9 -14419442.04948  21648192.260    21648191.8684   21648199.3594
        -0.000          -0.000
 -24520014.955 9 -18559106.39148  21199501.417    21199501.1514   21199508.8084
        -0.000          -0.000
  -7538299.348 9  -5587103.10146  23584406.718    23584406.3964   23584417.1804
        -0.000          -0.000
  -7576060.355 9  -5884555.75146  24024800.309    24024799.7284   24024816.7744
        -0.000          -0.000
 -22572266.745 9 -17049128.70748  21606031.150    21606030.6864   21606039.4814
        -0.000          -0.000
 99  5 11  1 44 30.0000000  0  7  3 29 23 21 31  1 17                0.000000019
 -21976027.699 9 -17109391.72848  21523454.789    21523454.8624   21523462.9014
        -0.000          -0.000
 -21039432.722 9 -13150259.17048  21297951.183    21297951.1954   21297959.4294
        -0.000          -0.000
 -18498792.297 9 -14386823.94648  21656157.865    21656157.4944   21656165.0014
        -0.000          -0.000
 -24537010.207 9 -18572349.42948  21196267.358    21196267.0604   21196274.7304
        -0.000          -0.000
  -7608885.512 9  -5642105.26446  23570974.165    23570974.0644   23570985.0124
        -0.000          -0.000
  -7682880.790 9  -5967791.95146  24004472.887    24004472.2014   24004488.9684
        -0.000          -0.000
 -22519311.782 9 -17007865.13048  21616108.181    21616107.7004   21616116.4474
        -0.000          -0.000
 99  5 11  1 45  0.0000000  0  7  3 29 23 21 31  1 17                0.000000008
 -21988785.765 9 -17119333.08748  21521026.936    21521027.0034   21521035.2424
        -0.000          -0.000
 -21110396.177 9 -13205555.27448  21284447.263    21284447.3144   21284455.5164
        -0.000          -0.000
 -18456854.427 9 -14354145.11048  21664138.357    21664137.9694   21664145.5054
        -0.000          -0.000
 -24553808.536 9 -18585439.02548  21193070.766    21193070.4524   21193078.1484
        -0.000          -0.000
  -7679020.280 9  -5696755.62946  23557627.706    23557627.6044   23557638.7584
        -0.000          -0.000
  -7789566.615 9  -6050923.25146  23984170.739    23984170.0664   23984186.6264
        -0.000          -0.000
 -22466034.312 9 -16966350.25648  21626246.555    21626246.1014   21626254.9194
        -0.000          -0.000
 99  5 11  1 45 30.0000000  0  7  3 29 23 21 31  1 17               -0.000000009
 -22000952.547 9 -17128813.69048  21518711.486    21518711.5564   21518720.1674
        -0.000          -0.000
 -21180975.425 9 -13260551.99348  21271016.562    21271016.5524   21271024.6314
        -0.000          -0.000
 -18414818.130 9 -14321389.58248  21672137.520    21672137.1824   21672144.6554
        -0.000          -0.000
 -24570389.225 9 -18598359.01748  21189915.648    21189915.3174   21189922.8904
        -0.000          -0.000
  -7748696.600 9  -5751048.79846  23544368.278    23544368.1644   23544379.3764
        -0.000          -0.000
  -7896127.446 9  -6133957.19046  23963892.267    23963891.7844   23963908.0204
        -0.000          -0.000
 -22412421.470 9 -16924574.06248  21636448.857    21636448.3984   21636457.1304
        -0.000          -0.000
 99  5 11  1 46  0.0000000  0  7  3 29 23 21 31  1 17               -0.000000024
 -22012519.070 9 -17137826.57248  21516510.417    21516510.5294   21516519.2614
        -0.000          -0.000
 -21251178.499 9 -13315255.59748  21257657.243    21257657.3104   21257665.3424
        -0.000          -0.000
 -18372661.176 9 -14288540.02148  21680159.833    21680159.4884   21680166.7794
        -0.000          -0.000
 -24586764.939 9 -18611119.28448  21186799.533    21186799.1644   21186806.7134
        -0.000          -0.000
  -7817921.667 9  -5804990.30046  23531194.811    23531194.8534   23531205.9554
        -0.000          -0.000
  -8002559.050 9  -6216890.43946  23943638.281    23943638.0554   23943654.0804
        -0.000          -0.000
 -22358465.198 9 -16882530.26448  21646716.463    21646715.9514   21646724.7504
        -0.000          -0.000
 99  5 11  1 46 30.0000000  0  7  3 29 23 21 31  1 17               -0.000000026
 -22023485.581 9 -17146371.91648  21514423.723    21514423.7544   21514432.3764
        -0.000          -0.000
 -21320980.554 9 -13369646.71048  21244374.223    21244374.3164   21244382.3164
        -0.000          -0.000
 -18330366.078 9 -14255582.81948  21688208.412    21688208.0564   21688215.2884
        -0.000          -0.000
 -24602941.466 9 -18623724.35448  21183721.143    21183720.7364   21183728.4374
        -0.000          -0.000
  -7886688.033 9  -5858574.37746  23518109.022    23518109.0224   23518119.7894
        -0.000          -0.000
  -8108842.785 9  -6299708.48646  23923412.233    23923412.2184   23923428.4294
        -0.000          -0.000
 -22304154.727 9 -16840210.46748  21657051.235    21657050.8064   21657059.7554
        -0.000          -0.000
 99  5 11  1 47  0.0000000  0  7  3 29 23 21 31  1 17               -0.000000035
 -22033884.392 9 -17154474.89948  21512445.134    21512445.1344   21512453.4934
        -0.000          -0.000
 -21390402.260 9 -13423741.43948  21231163.587    21231163.6624   21231171.7074
        -0.000          -0.000
 -18287979.780 9 -14222554.56148  21696274.232    21696273.9124   21696281.1814
        -0.000          -0.000
 -24618969.387 9 -18636213.62848  21180671.076    21180670.7564   21180678.3094
        -0.000          -0.000
  -7955030.667 9  -5911828.31046  23505104.093    23505103.9354   23505114.2004
        -0.000          -0.000
  -8215000.997 9  -6382428.73246  23903210.051    23903210.1544   23903226.6664
        -0.000          -0.000
 -22249528.347 9 -16797644.51247  21667446.224    21667445.8494   21667454.8004
        -0.000          -0.000
 99  5 11  1 47 30.0000000  0  8  3 29 23 21  8 31  1 17            -0.000000015
 -22043672.707 9 -17162102.17248  21510582.634    21510582.5534   21510590.8714
        -0.000          -0.000
 -21459383.696 9 -13477493.10148  21218036.660    21218036.7694   21218044.8364
        -0.000          -0.000
 -18245479.234 9 -14189437.27748  21704361.823    21704361.5234   21704368.7664
        -0.000          -0.000
 -24634817.815 9 -18648563.01648  21177655.354    21177654.9744   21177662.2804
        -0.000          -0.000
   -816983.392 8   -624241.40242         0.000           0.0004          0.0004
        -0.000          -0.000
  -8022906.651 9  -5964718.62146  23492187.978    23492187.7274   23492197.6904
        -0.000          -0.000
  -8320974.837 9  -6465005.35046  23883043.265    23883043.4054   23883060.3204
        -0.000          -0.000
 -22194523.140 9 -16754783.36448  21677913.414    21677912.9934   21677921.8854
        -0.000          -0.000
 99  5 11  1 48  0.0000000  0  8  3 29 23 21  8 31  1 17             0.000000001
 -22052919.571 9 -17169307.53048  21508823.177    21508823.0224   21508831.3064
        -0.000          -0.000
 -21527940.181 9 -13530913.64448  21204990.591    21204990.7514   21204998.6624
        -0.000          -0.000
 -18202935.170 9 -14156286.08248  21712457.779    21712457.4484   21712464.6984
        -0.000          -0.000
 -24650541.215 9 -18660814.98748  21174663.311    21174662.8964   21174670.1864
        -0.000          -0.000
   -886089.015 8   -678122.49852         0.000           0.0004          0.0005
        -0.000          -0.000
  -8090363.827 9  -6017282.59546  23479351.566    23479351.1734   23479361.0834
        -0.000          -0.000
  -8426806.494 9  -6547471.15546  23862903.773    23862903.7274   23862920.9894
        -0.000          -0.000
 -22139184.695 9 -16711662.55648  21688444.179    21688443.6934   21688452.5584
        -0.000          -0.000
 99  5 11  1 48 30.0000000  0  8  3 29 23 21  8 31  1 17             0.000000001
 -22061623.446 9 -17176089.78048  21507166.829    21507166.6594   21507174.9974
        -0.000          -0.000
 -21596052.609 9 -13583988.16248  21192029.180    21192029.3234   21192037.1804
        -0.000          -0.000
 -18160359.992 9 -14123110.64248  21720559.677    21720559.3204   21720566.5474
        -0.000          -0.000
 -24666124.186 9 -18672957.54548  21171697.725    21171697.4094   21171704.9124
        -0.000          -0.000
   -954965.099 8   -731824.73552         0.000           0.0004          0.0005
        -0.000          -0.000
  -8157393.828 9  -6069513.70446  23466596.179    23466595.8044   23466605.7514
        -0.000          -0.000
  -8532499.164 9  -6629828.64046  23842791.202    23842790.8204   23842808.2294
        -0.000          -0.000
 -22083515.144 9 -16668283.73848  21699037.828    21699037.3194   21699046.2314
        -0.000          -0.000
 99  5 11  1 49  0.0000000  0  8  3 29 23 21  8 31  1 17            -0.000000038
 -22069736.779 9 -17182411.87048  21505622.774    21505622.6974   21505630.9734
        -0.000          -0.000
 -21663686.889 9 -13636690.11048  21179158.795    21179158.9434   21179166.7864
        -0.000          -0.000
 -18117717.074 9 -14089882.41548  21728674.450    21728674.0524   21728681.2174
        -0.000          -0.000
 -24681521.769 9 -18684955.63548  21168767.557    21168767.3074   21168774.8504
        -0.000          -0.000
  -1023577.863 8   -586634.31842         0.000           0.0004          0.0004
        -0.000          -0.000
  -8223962.747 9  -6121385.53046  23453928.492    23453928.1634   23453938.0354
        -0.000          -0.000
  -8638007.965 9  -6712042.86246  23822713.773    23822713.0194   23822729.9724
        -0.000          -0.000
 -22027463.762 9 -16624607.41948  21709704.234    21709703.7344   21709712.6234
        -0.000          -0.000
 99  5 11  1 49 30.0000000  0  8  3 29 23 21  8 31  1 17            -0.000000020
 -22077271.462 9 -17188283.06948  21504188.894    21504188.8804   21504197.0834
        -0.000          -0.000
 -21730862.472 9 -13689034.61748  21166375.704    21166375.7834   21166383.6394
        -0.000          -0.000
 -18074996.503 9 -14056593.68048  21736803.916    21736803.4944   21736810.7134
        -0.000          -0.000
 -24696742.603 9 -18696815.99848  21165871.179    21165870.8724   21165878.4204
        -0.000          -0.000
  -1091933.183 8   -639894.24352         0.000           0.0004          0.0005
        -0.000          -0.000
  -8290088.133 9  -6172911.74846  23441345.274    23441344.8054   23441354.8164
        -0.000          -0.000
  -8743341.381 9  -6794120.43446  23802669.271    23802668.5554   23802684.9014
        -0.000          -0.000
 -21971041.009 9 -16580641.71848  21720441.253    21720440.7324   21720449.5944
        -0.000          -0.000
 99  5 11  1 50  0.0000000  0  8  3 29 23 21  8 31  1 17            -0.000000006
 -22084208.973 9 -17193688.93848  21502868.803    21502868.7644   21502876.8694
        -0.000          -0.000
 -21797582.475 9 -13741024.13048  21153679.087    21153679.2034   21153687.2134
        -0.000          -0.000
 -18032180.449 9 -14023230.55848  21744951.447    21744951.0644   21744958.3744
        -0.000          -0.000
 -24711777.361 9 -18708531.36349  21163010.223    21163009.9434   21163017.5064
        -0.000          -0.000
  -1160030.435 8   -692953.03252         0.000           0.0004          0.0005
        -0.000          -0.000
  -8355771.082 9  -6224093.19146  23428846.266    23428845.5784   23428855.7734
        -0.000          -0.000
  -8848492.273 9  -6876055.76546  23782659.361    23782658.9884   23782674.7274
        -0.000          -0.000
 -21914253.402 9 -16536391.71947  21731247.400    21731246.9514   21731255.9904
        -0.000          -0.000
 99  5 11  1 50 30.0000000  0  8  3 29 23 21  8 31  1 17             0.000000002
 -22090532.891 9 -17198616.67248  21501665.451    21501665.4174   21501673.4914
        -0.000          -0.000
 -21863877.256 9 -13792682.31648  21141063.370    21141063.5674   21141071.7274
        -0.000          -0.000
 -17989264.054 9 -13989789.24248  21753118.123    21753117.7404   21753125.1344
        -0.000          -0.000
 -24726635.484 9 -18720109.08449  21160182.979    21160182.6314   21160190.1824
        -0.000          -0.000
  -1227883.612 8   -547989.47942         0.000           0.0004          0.0004
        -0.000          -0.000
  -8421016.310 9  -6274933.54646  23416430.110    23416429.5834   23416439.9754
        -0.000          -0.000
  -8953457.227 9  -6957846.25346  23762685.169    23762684.7064   23762700.3574
        -0.000          -0.000
 -21857119.159 9 -16491871.61947  21742119.638    21742119.1844   21742128.3714
        -0.000          -0.000
 99  5 11  1 51  0.0000000  0  8  3 29 23 21  8 31  1 17             0.000000008
 -22096235.122 9 -17203059.99148  21500580.374    21500580.2684   21500588.3974
        -0.000          -0.000
 -21929752.548 9 -13844013.62048  21128527.505    21128527.7454   21128535.9834
        -0.000          -0.000
 -17946235.852 9 -13956260.79248  21761306.173    21761305.7424   21761313.1454
        -0.000          -0.000
 -24741325.914 9 -18731556.14448  21157387.341    21157387.0264   21157394.5984
        -0.000          -0.000
  -1295487.739 8   -600668.37752         0.000           0.0004          0.0005
        -0.000          -0.000
  -8485818.787 9  -6325428.92446  23404098.756    23404098.1904   23404108.2724
        -0.000          -0.000
  -9058241.605 9  -7039496.02546  23742745.231    23742744.5814   23742760.2554
        -0.000          -0.000
 -21799630.615 9 -16447075.43048  21753059.347    21753058.8914   21753068.1244
        -0.000          -0.000
 99  5 11  1 51 30.0000000  0  8  3 29 23 21  8 31  1 17            -0.000000001
 -22101338.113 9 -17207036.36348  21499609.277    21499609.2604   21499617.4294
        -0.000          -0.000
 -21995222.523 9 -13895029.08248  21116068.748    21116068.9804   21116077.2904
        -0.000          -0.000
 -17903109.088 9 -13922655.53648  21769513.051    21769512.5604   21769520.0134
        -0.000          -0.000
 -24755856.402 9 -18742878.57248  21154622.168    21154621.8604   21154629.4164
        -0.000          -0.000
  -1362856.228 8   -653162.96744         0.000           0.0004   23400220.4384
        -0.000          -0.000
  -8550180.375 9  -6375580.72446  23391851.322    23391850.5594   23391860.3684
        -0.000          -0.000
  -9162878.936 9  -7121031.20346  23722832.893    23722832.3264   23722847.9424
        -0.000          -0.000
 -21741807.523 9 -16402018.54648  21764062.810    21764062.3434   21764071.5634
        -0.000          -0.000
 99  5 11  1 52  0.0000000  0  8  3 29 23 21  8 31  1 17            -0.000000012
 -22105819.223 9 -17210528.15148  21498756.870    21498756.7504   21498764.7634
        -0.000          -0.000
 -22060252.166 9 -13945701.44748  21103693.855    21103694.0974   21103702.4954
        -0.000          -0.000
 -17859870.505 9 -13888963.15048  21777741.144    21777740.6144   21777748.1744
        -0.000          -0.000
 -24770201.415 9 -18754056.47948  21151892.428    21151892.0904   21151899.6744
        -0.000          -0.000
  -1429967.529 8   -705457.39045  23387437.849    23387436.3354   23387450.4594
        -0.000          -0.000
  -8614065.365 9  -6425361.14546  23379694.269    23379693.6154   23379703.1744
        -0.000          -0.000
  -9267351.466 9  -7202437.96946  23702951.931    23702951.3594   23702966.5914
        -0.000          -0.000
 -21683621.703 9 -16356679.02248  21775135.382    21775134.8784   21775143.9654
        -0.000          -0.000
 99  5 11  1 52 30.0000000  0  8  3 29 23 21  8 31  1 17            -0.000000014
 -22109702.337 9 -17213553.97148  21498018.165    21498017.9924   21498025.8524
        -0.000          -0.000
 -22124843.302 9 -13996032.11148  21091402.549    21091402.7764   21091411.2254
        -0.000          -0.000
 -17816530.968 9 -13855192.09948  21785988.261    21785987.8054   21785995.4224
        -0.000          -0.000
 -24784377.386 9 -18765102.66848  21149194.843    21149194.4484   21149202.1004
        -0.000          -0.000
  -1496823.338 8   -757552.70645  23374715.403    23374712.7534   23374726.1784
        -0.000          -0.000
  -8677453.112 9  -6474754.09446  23367631.994    23367631.3264   23367640.6784
        -0.000          -0.000
  -9371665.258 9  -7283721.03146  23683101.256    23683100.6024   23683115.4484
        -0.000          -0.000
 -21625064.106 9 -16311049.81148  21786278.658    21786278.1234   21786287.2144
        -0.000          -0.000
 99  5 11  1 53  0.0000000  0  8  3 29 23 21  8 31  1 17            -0.000000003
 -22113008.122 9 -17216129.92448  21497389.168    21497388.9574   21497396.8434
        -0.000          -0.000
 -22188993.573 9 -14046019.25348  21079195.205    21079195.4074   21079203.7004
        -0.000          -0.000
 -17773102.951 9 -13821352.11348  21794252.148    21794251.7944   21794259.4534
        -0.000          -0.000
 -24798394.558 9 -18776025.11748  21146527.322    21146527.0044   21146534.5754
        -0.000          -0.000
  -1563415.062 8   -809442.15945  23362042.968    23362041.5254   23362054.8444
        -0.000          -0.000
  -8740334.657 9  -6523752.63846  23355666.200    23355665.4594   23355674.5204
        -0.000          -0.000
  -9475829.023 9  -7364887.18546  23663278.896    23663278.4244   23663292.9994
        -0.000          -0.000
 -21566131.519 9 -16265128.37048  21797493.214    21797492.6804   21797501.8804
        -0.000          -0.000
 99  5 11  1 53 30.0000000  0  8  3 29 23 21  8 31  1 17             0.000000003
 -22115785.369 9 -17218294.01948  21496860.543    21496860.3434   21496868.3304
        -0.000          -0.000
 -22252747.429 9 -14095697.48848  21067063.306    21067063.4664   21067071.5604
        -0.000          -0.000
 -17729631.702 9 -13787478.42848  21802524.420    21802524.0374   21802531.6974
        -0.000          -0.000
 -24812300.269 9 -18786860.70548  21143881.062    21143880.7764   21143888.1714
        -0.000          -0.000
  -1629780.570 8   -861155.41945  23349413.858    23349412.0894   23349425.3544
        -0.000          -0.000
  -8802755.238 9  -6572391.97546  23343787.820    23343787.2324   23343796.1754
        -0.000          -0.000
  -9579855.322 9  -7445946.20046  23643482.663    23643482.4584   23643497.0924
        -0.000          -0.000
 -21506869.698 9 -16218950.38748  21808770.313    21808769.7834   21808779.0834
        -0.000          -0.000
 99  5 11  1 54  0.0000000  0  8  3 29 23 21  8 31  1 17             0.000000017
 -22118012.964 9 -17220029.81348  21496436.508    21496436.3174   21496444.4444
        -0.000          -0.000
 -22316106.321 9 -14145067.95948  21055006.496    21055006.6624   21055014.5674
        -0.000          -0.000
 -17686121.818 9 -13753574.63548  21810804.055    21810803.6454   21810811.3524
        -0.000          -0.000
 -24826111.769 9 -18797622.88248  21141252.883    21141252.5854   21141259.9104
        -0.000          -0.000
  -1695914.651 8   -912688.29845  23336828.524    23336827.1224   23336840.3814
        -0.000          -0.000
  -8864713.034 9  -6620670.71046  23331997.534    23331996.9844   23332005.9994
        -0.000          -0.000
  -9683711.542 9  -7526872.71246  23623719.039    23623719.0104   23623733.6504
        -0.000          -0.000
 -21447283.804 9 -16172519.85347  21820109.100    21820108.5734   21820117.8934
        -0.000          -0.000
 99  5 11  1 54 30.0000000  0  8  3 29 23 21  8 31  1 17             0.000000042
 -22119681.709 9 -17221330.14448  21496118.796    21496118.6374   21496126.7964
        -0.000          -0.000
 -22379083.727 9 -14194141.17748  21043022.298    21043022.4394   21043030.1974
        -0.000          -0.000
 -17642576.917 9 -13719643.56148  21819090.360    21819090.0084   21819097.7694
        -0.000          -0.000
 -24839831.153 9 -18808313.29349  21138642.146    21138641.8634   21138649.2824
        -0.000          -0.000
  -1761811.276 8   -964036.17645  23324288.458    23324287.5314   23324300.8774
        -0.000          -0.000
  -8926217.830 9  -6668596.46746  23320293.764    23320293.0274   23320302.0974
        -0.000          -0.000
  -9787388.595 9  -7607659.60246  23603989.711    23603989.6594   23604004.3884
        -0.000          -0.000
 -21387383.946 9 -16125844.71347  21831507.599    21831507.0824   21831516.3584
        -0.000          -0.000
 99  5 11  1 55  0.0000000  0  8  3 29 23 21  8 31  1 17             0.000000049
 -22120792.062 9 -17222195.36148  21495907.603    21495907.4134   21495915.3634
        -0.000          -0.000
 -22441704.571 9 -14242936.55048  21031105.901    21031106.0484   21031113.7764
        -0.000          -0.000
 -17599001.701 9 -13685688.85648  21827382.513    21827382.1584   21827389.8894
        -0.000          -0.000
 -24853455.948 9 -18818930.00148  21136049.330    21136049.0984   21136056.5464
        -0.000          -0.000
  -1827480.286 8  -1015206.64045  23311792.051    23311791.2724   23311804.5504
        -0.000          -0.000
  -8987319.871 9  -6716208.37646  23308666.673    23308665.8264   23308674.8814
        -0.000          -0.000
  -9890899.032 9  -7688316.67746  23584292.151    23584291.8554   23584306.8174
        -0.000          -0.000
 -21327202.927 9 -16078950.49047  21842959.693    21842959.2244   21842968.4324
        -0.000          -0.000
 99  5 11  1 55 30.0000000  0  8  3 29 23 21  8 31  1 17             0.000000042
 -22121317.847 9 -17222605.08948  21495807.689    21495807.4624   21495815.2304
        -0.000          -0.000
 -22503936.555 9 -14291428.91148  21019263.511    21019263.6774   21019271.3714
        -0.000          -0.000
 -17555366.563 9 -13651687.47448  21835686.030    21835685.6204   21835693.3764
        -0.000          -0.000
 -24866944.883 9 -18829440.83548  21133482.447    21133482.1554   21133489.5704
        -0.000          -0.000
  -1892895.481 8  -1066179.31545  23299344.108    23299343.4704   23299356.6244
        -0.000          -0.000
  -9048006.109 9  -6763496.28046  23297118.419    23297117.5814   23297126.8134
        -0.000          -0.000
  -9994213.910 9  -7768821.36146  23564631.613    23564631.0774   23564646.3404
        -0.000          -0.000
 -21266729.722 9 -16031828.58147  21854467.438    21854466.9174   21854476.0704
        -0.000          -0.000
 99  5 11  1 56  0.0000000  0  8  3 29 23 21  8 31  1 17             0.000000025
 -22121245.929 9 -17222549.06548  21495821.299    21495821.0834   21495828.9194
        -0.000          -0.000
 -22565752.946 9 -14339597.43648  21007500.278    21007500.4104   21007508.1494
        -0.000          -0.000
 -17511649.847 9 -13617622.51248  21844005.115    21844004.7004   21844012.4134
        -0.000          -0.000
 -24880269.095 9 -18839823.31548  21130946.855    21130946.5604   21130953.9634
        -0.000          -0.000
  -1958025.121 8  -1116929.49345  23286950.275    23286949.8104   23286962.9024
        -0.000          -0.000
  -9108250.251 9  -6810439.68946  23285653.863    23285653.4084   23285662.7694
        -0.000          -0.000
 -10097335.377 9  -7849175.34946  23545007.280    23545006.9034   23545022.4994
        -0.000          -0.000
 -21205952.835 9 -15984470.03247  21866032.900    21866032.4014   21866041.5784
        -0.000          -0.000
 99  5 11  1 56 30.0000000  0  8  3 29 23 21  8 31  1 17            -0.000000001
 -22120599.220 9 -17222045.14748  21495944.377    21495944.1774   21495952.0324
        -0.000          -0.000
 -22627129.646 9 -14387423.35348  20995820.597    20995820.7764   20995828.5664
        -0.000          -0.000
 -17467827.084 9 -13583474.90248  21852344.395    21852343.9674   21852351.7284
        -0.000          -0.000
 -24893389.372 9 -18850046.87848  21128450.140    21128449.8884   21128457.2694
        -0.000          -0.000
  -2022847.222 8  -1167440.02845  23274615.015    23274614.4304   23274627.3784
        -0.000          -0.000
  -9168035.886 9  -6857025.81546  23274276.701    23274276.2554   23274285.7804
        -0.000          -0.000
 -10200270.550 9  -7929384.18646  23525418.170    23525418.4234   23525434.2264
        -0.000          -0.000
 -21144857.299 9 -15936863.20448  21877659.046    21877658.5824   21877667.8724
        -0.000          -0.000
 99  5 11  1 57  0.0000000  0  8  3 29 23 21  8 31  1 17            -0.000000009
 -22119360.309 9 -17221079.76448  21496180.196    21496179.9944   21496187.8794
        -0.000          -0.000
 -22688023.624 9 -14434873.11548  20984232.944    20984233.0684   20984240.7464
        -0.000          -0.000
 -17423857.541 9 -13549212.91948  21860711.403    21860711.0354   21860718.8774
        -0.000          -0.000
 -24906272.762 9 -18860085.85648  21125998.630    21125998.2864   21126005.7234
        -0.000          -0.000
  -2087331.496 8  -1217687.36745  23262344.167    23262343.6844   23262355.9864
        -0.000          -0.000
  -9227304.709 9  -6903209.22646  23262997.821    23262997.4624   23263007.0384
        -0.000          -0.000
 -10302993.432 9  -8009427.56746  23505870.368    23505870.5554   23505886.2764
        -0.000          -0.000
 -21083406.821 9 -15888979.78048  21889352.870    21889352.3664   21889361.8004
        -0.000          -0.000
 99  5 11  1 57 30.0000000  0  8  3 29 23 21  8 31  1 17            -0.000000010
 -22117572.257 9 -17219686.49048  21496520.475    21496520.2694   21496528.1824
        -0.000          -0.000
 -22748452.360 9 -14481960.35448  20972733.723    20972733.7894   20972741.3854
        -0.000          -0.000
 -17379784.398 9 -13514870.22248  21869098.200    21869097.8394   21869105.7354
        -0.000          -0.000
 -24918961.394 9 -18869973.09949  21123584.069    21123583.7674   21123591.2294
        -0.000          -0.000
  -2151515.512 8  -1267700.74945  23250130.436    23250129.9404   23250141.9544
        -0.000          -0.000
  -9286057.035 9  -6948990.17546  23251817.205    23251817.2024   23251826.6574
        -0.000          -0.000
 -10405537.196 9  -8089331.39546  23486356.938    23486357.0044   23486372.4544
        -0.000          -0.000
 -21021621.591 9 -15840835.49348  21901110.291    21901109.7774   21901119.2274
        -0.000          -0.000
 99  5 11  1 58  0.0000000  0  8  3 29 23 21  8 31  1 17            -0.000000001
 -22115246.422 9 -17217874.16548  21496962.881    21496962.7624   21496970.7744
        -0.000          -0.000
 -22808439.545 9 -14528703.52148  20961318.248    20961318.3624   20961326.0794
        -0.000          -0.000
 -17335631.611 9 -13480465.46748  21877500.235    21877499.8724   21877507.6644
        -0.000          -0.000
 -24931480.723 9 -18879728.38749  21121202.007    21121201.5764   21121208.8664
        -0.000          -0.000
  -2215406.553 8  -1317485.87845  23237972.465    23237971.9174   23237983.5174
        -0.000          -0.000
  -9344293.799 9  -6994369.39546  23240734.953    23240734.9744   23240744.3654
        -0.000          -0.000
 -10507912.907 9  -8169104.29046  23466875.381    23466875.5204   23466890.4724
        -0.000          -0.000
 -20959493.355 9 -15792423.93147  21912932.988    21912932.4424   21912941.8514
        -0.000          -0.000
 99  5 11  1 58 30.0000000  0  8  3 29 23 21  8 31  1 17             0.000000021
 -22112349.324 9 -17215616.68548  21497514.128    21497514.0114   21497522.0774
        -0.000          -0.000
 -22867966.519 9 -14575088.08348  20949990.494    20949990.6534   20949998.3514
        -0.000          -0.000
 -17291399.385 9 -13445998.82248  21885917.382    21885917.0054   21885924.7044
        -0.000          -0.000
 -24943822.167 9 -18889345.07148  21118853.377    21118852.9334   21118860.2614
        -0.000          -0.000
  -2278997.943 9  -1367037.50945  23225871.397    23225870.8834   23225882.1714
        -0.000          -0.000
  -9402003.783 9  -7039338.13646  23229753.051    23229753.0874   23229762.5244
        -0.000          -0.000
 -10610100.414 9  -8248730.55446  23447429.463    23447429.8024   23447444.4064
        -0.000          -0.000
 -20897007.274 9 -15743733.55847  21924823.759    21924823.2004   21924832.4324
        -0.000          -0.000
 99  5 11  1 59  0.0000000  0  8  3 29 23 21  8 31  1 17             0.000000051
 -22108842.835 9 -17212884.37048  21498181.573    21498181.3884   21498189.3834
        -0.000          -0.000
 -22927039.148 9 -14621118.61548  20938749.271    20938749.4064   20938757.0994
        -0.000          -0.000
 -17247104.672 9 -13411483.48148  21894346.291    21894345.9004   21894353.7104
        -0.000          -0.000
 -24956014.430 9 -18898845.51448  21116533.035    21116532.6794   21116540.1804
        -0.000          -0.000
  -2342291.960 8  -1416357.38345  23213827.211    23213826.6634   23213837.3564
        -0.000          -0.000
  -9459207.554 9  -7083912.43646  23218867.486    23218867.5034   23218877.1284
        -0.000          -0.000
 -10712090.371 9  -8328202.88946  23428021.371    23428021.6484   23428035.9624
        -0.000          -0.000
 -20834160.942 9 -15694762.48247  21936783.088    21936782.5714   21936791.6254
        -0.000          -0.000
 99  5 11  1 59 30.0000000  0  8  3 29 23 21  8 31  1 17             0.000000073
 -22104719.540 9 -17209671.42948  21498966.353    21498966.1254   21498974.0884
        -0.000          -0.000
 -22985665.304 9 -14666801.24348  20927592.998    20927593.0994   20927600.8514
        -0.000          -0.000
 -17202773.933 9 -13376940.07048  21902782.030    21902781.7404   21902789.5684
        -0.000          -0.000
 -24968070.335 9 -18908239.70948  21114238.758    21114238.4674   21114246.1224
        -0.000          -0.000
  -2405290.595 8  -1465447.07045  23201838.621    23201837.9424   23201848.7674
        -0.000          -0.000
  -9515940.251 9  -7128119.64346  23208071.518    23208071.4374   23208081.4774
        -0.000          -0.000
 -10813874.168 9  -8407514.57446  23408652.654    23408652.6174   23408666.7704
        -0.000          -0.000
 -20770951.311 9 -15645508.30547  21948811.594    21948811.0444   21948820.0894
        -0.000          -0.000
 99  5 11  2  0  0.0000000  0  8  3 29 23 21  8 31  1 17             0.000000072
 -22099983.087 9 -17205980.71748  21499867.759    21499867.5314   21499875.5294
        -0.000          -0.000
 -23043849.578 9 -14712139.55548  20916520.859    20916520.9844   20916528.7054
        -0.000          -0.000
 -17158421.497 9 -13342379.75948  21911222.008    21911221.7974   21911229.5274
        -0.000          -0.000
 -24980011.598 9 -18917544.57549  21111966.435    21111966.1604   21111973.8264
        -0.000          -0.000
  -2468005.132 9  -1514315.32545  23189904.345    23189903.6834   23189914.3624
        -0.000          -0.000
  -9572226.373 9  -7171978.88747  23197360.698    23197360.4824   23197370.8464
        -0.000          -0.000
 -10915466.408 9  -8486677.00646  23389320.095    23389319.9714   23389334.0974
        -0.000          -0.000
 -20707391.523 9 -15595981.24047  21960906.827    21960906.2504   21960915.1394
        -0.000          -0.000
 99  5 11  2  0 30.0000000  0  8  3 29 23 21  8 31  1 17             0.000000045
 -22094616.789 9 -17201799.19248  21500888.989    21500888.6754   21500896.7564
        -0.000          -0.000
 -23101575.587 9 -14757120.78148  20905536.062    20905536.1584   20905543.7634
        -0.000          -0.000
 -17114025.817 9 -13307785.74348  21919670.296    21919670.0284   21919677.7694
        -0.000          -0.000
 -24991833.497 9 -18926756.42448  21109716.748    21109716.4874   21109724.0364
        -0.000          -0.000
  -2530439.027 9  -1562964.91045  23178023.723    23178023.0484   23178033.6794
        -0.000          -0.000
  -9628057.216 9  -7215483.36647  23186736.775    23186736.3664   23186746.8234
        -0.000          -0.000
 -11016856.706 9  -8565682.08846  23370025.718    23370025.6894   23370039.7764
        -0.000          -0.000
 -20643477.923 9 -15546178.49647  21973069.209    21973068.6414   21973077.6584
        -0.000          -0.000
 99  5 11  2  1  0.0000000  0  8  3 29 23 21  8 31  1 17             0.000000024
 -22088623.418 9 -17197129.05448  21502029.389    21502029.1554   21502037.2794
        -0.000          -0.000
 -23158825.949 9 -14801731.37548  20894641.739    20894641.8204   20894649.2354
        -0.000          -0.000
 -17069550.793 9 -13273129.90848  21928133.674    21928133.3294   21928141.2024
        -0.000          -0.000
 -25003513.096 9 -18935857.38548  21107494.231    21107493.9764   21107501.3184
        -0.000          -0.000
  -2592565.828 9  -1611375.23145  23166201.298    23166200.6344   23166211.5234
        -0.000          -0.000
  -9683399.743 9  -7258607.34347  23176205.643    23176205.1274   23176215.4924
        -0.000          -0.000
 -11117994.184 9  -8644490.14546  23350779.744    23350779.5634   23350793.4174
        -0.000          -0.000
 -20579168.076 9 -15496066.99147  21985306.945    21985306.3894   21985315.5724
        -0.000          -0.000
 99  5 11  2  1 30.0000000  0  8  3 29 23 21  8 31  1 17             0.000000006
 -22082046.036 9 -17192003.84948  21503281.056    21503280.8484   21503288.9894
        -0.000          -0.000
 -23215606.183 9 -14845975.62948  20883836.842    20883836.8614   20883844.1674
        -0.000          -0.000
 -17024993.948 9 -13238410.33448  21936612.530    21936612.1994   21936620.2664
        -0.000          -0.000
 -25015047.163 9 -18944844.95048  21105299.514    21105299.1354   21105306.5044
        -0.000          -0.000
  -2654393.862 9  -1659552.76945  23154435.687    23154434.9994   23154445.7154
        -0.000          -0.000
  -9738240.429 9  -7301340.26946  23165769.934    23165769.3014   23165779.6864
        -0.000          -0.000
 -11218898.071 9  -8723116.17546  23331578.520    23331578.0954   23331591.5734
        -0.000          -0.000
 -20514474.603 9 -15445656.55147  21997617.629    21997617.0774   21997626.4754
        -0.000          -0.000
 99  5 11  2  2  0.0000000  0  8  3 29 23 21  8 31  1 17            -0.000000013
 -22074916.217 9 -17186448.17448  21504637.716    21504637.5894   21504645.8894
        -0.000          -0.000
 -23271930.530 9 -14889864.64748  20873118.368    20873118.4314   20873125.9284
        -0.000          -0.000
 -16980353.703 9 -13203625.77948  21945107.308    21945106.9684   21945115.0904
        -0.000          -0.000
 -25026440.205 9 -18953722.62049  21103131.612    21103131.1964   21103138.5444
        -0.000          -0.000
  -2715921.984 9  -1707496.57646  23142726.902    23142726.2954   23142737.1934
        -0.000          -0.000
  -9792579.193 9  -7343682.11146  23155429.894    23155429.1194   23155439.3724
        -0.000          -0.000
 -11319601.474 9  -8801586.00046  23312415.119    23312414.6814   23312427.9904
        -0.000          -0.000
 -20449435.572 9 -15394976.82447  22009994.066    22009993.5294   22010003.2364
        -0.000          -0.000
 99  5 11  2  2 30.0000000  0  8  3 29 23 21  8 31  1 17            -0.000000019
 -22067229.694 9 -17180458.69548  21506100.470    21506100.3174   21506108.6904
        -0.000          -0.000
 -23327797.641 9 -14933397.38848  20862486.987    20862487.1014   20862494.7134
        -0.000          -0.000
 -16935610.350 9 -13168760.87148  21953621.842    21953621.4244   21953629.3674
        -0.000          -0.000
 -25037663.481 9 -18962468.01748  21100995.877    21100995.4454   21101002.7474
        -0.000          -0.000
  -2777116.676 9  -1755180.57246  23131081.707    23131081.1464   23131092.0794
        -0.000          -0.000
  -9846406.091 9  -7385625.08346  23145187.345    23145186.3714   23145196.4224
        -0.000          -0.000
 -11420083.787 9  -8879883.57846  23293293.879    23293293.4394   23293306.6454
        -0.000          -0.000
 -20384047.682 9 -15344025.25247  22022436.965    22022436.4444   22022446.1724
        -0.000          -0.000
 99  5 11  2  3  0.0000000  0  8  3 29 23 21  8 31  1 17            -0.000000021
 -22059003.451 9 -17174048.65548  21507665.866    21507665.7234   21507674.0244
        -0.000          -0.000
 -23383215.044 9 -14976579.70148  20851941.422    20851941.5214   20851949.0714
        -0.000          -0.000
 -16890780.992 9 -13133828.92748  21962152.641    21962152.1884   21962160.0744
        -0.000          -0.000
 -25048709.329 9 -18971075.16448  21098893.775    21098893.4304   21098900.7124
        -0.000          -0.000
  -2837963.570 9  -1802593.55046  23119502.596    23119502.1124   23119513.1624
        -0.000          -0.000
  -9899732.749 9  -7427178.27146  23135039.521    23135038.6464   23135048.5194
        -0.000          -0.000
 -11520358.353 9  -8958019.27346  23274212.164    23274211.6394   23274224.8344
        -0.000          -0.000
 -20318325.876 9 -15292813.52947  22034943.641    22034943.1164   22034952.5804
        -0.000          -0.000
 99  5 11  2  3 30.0000000  0  8  3 29 23 21  8 31  1 17            -0.000000023
 -22050211.556 9 -17167197.83948  21509338.975    21509338.7454   21509346.9214
        -0.000          -0.000
 -23438173.725 9 -15019404.55848  20841483.251    20841483.2324   20841490.6854
        -0.000          -0.000
 -16845868.633 9 -13098832.32248  21970699.017    21970698.6524   21970706.7354
        -0.000          -0.000
 -25059569.927 9 -18979537.95948  21096827.029    21096826.6914   21096833.9834
        -0.000          -0.000
  -2898441.740 9  -1849719.23146  23107993.941    23107993.4204   23108004.3524
        -0.000          -0.000
  -9952554.714 9  -7468338.18046  23124987.994    23124987.0444   23124996.5954
        -0.000          -0.000
 -11620444.006 9  -9036007.75846  23255166.200    23255165.7154   23255179.0094
        -0.000          -0.000
 -20252281.812 9 -15241350.68547  22047511.673    22047511.0954   22047520.1444
        -0.000          -0.000
 99  5 11  2  4  0.0000000  0  8  3 29 23 21  8 31  1 17            -0.000000021
 -22040840.578 9 -17159895.79748  21511122.202    21511121.9104   21511130.1194
        -0.000          -0.000
 -23492698.613 9 -15061891.40848  20831107.399    20831107.3754   20831114.8294
        -0.000          -0.000
 -16800889.323 9 -13063783.55048  21979258.198    21979257.8864   21979266.1204
        -0.000          -0.000
 -25070257.199 9 -18987865.69248  21094793.279    21094792.9294   21094800.2364
        -0.000          -0.000
  -2958553.080 9  -1896559.06546  23096555.127    23096554.6284   23096565.3574
        -0.000          -0.000
 -10004882.677 9  -7509113.16946  23115030.364    23115029.4284   23115038.5514
        -0.000          -0.000
 -11720325.350 9  -9113837.08246  23236158.793    23236158.5044   23236171.7754
        -0.000          -0.000
 -20185927.508 9 -15189646.09647  22060138.567    22060137.9244   22060146.9224
        -0.000          -0.000
 99  5 11  2  4 30.0000000  0  8  3 29 23 21  8 31  1 17            -0.000000007
 -22030873.196 9 -17152129.03248  21513018.815    21513018.5874   21513026.8384
        -0.000          -0.000
 -23546799.405 9 -15104047.79448  20820812.363    20820812.3214   20820819.7024
        -0.000          -0.000
 -16755847.672 9 -13028686.18648  21987829.442    21987829.1034   21987837.2404
        -0.000          -0.000
 -25080784.599 9 -18996068.84849  21092790.016    21092789.6564   21092797.0014
        -0.000          -0.000
  -3018318.868 8  -1943129.62045  23085182.119    23085181.4124   23085191.9044
        -0.000          -0.000
 -10056710.402 9  -7549498.34446  23105167.736    23105166.9364   23105175.7474
        -0.000          -0.000
 -11819977.610 9  -9191487.87146  23217194.841    23217194.7414   23217208.1174
        -0.000          -0.000
 -20119250.337 9 -15137689.93447  22072826.632    22072826.0314   22072835.2004
        -0.000          -0.000
 99  5 11  2  5  0.0000000  0  8  3 29 23 21  8 31  1 17             0.000000006
 -22020337.631 9 -17143919.51548  21515023.503    21515023.3494   21515031.7474
        -0.000          -0.000
 -23600505.555 9 -15145896.66348  20810592.447    20810592.3774   20810599.6764
        -0.000          -0.000
 -16710781.450 9 -12993569.67248  21996405.215    21996404.8464   21996413.0534
        -0.000          -0.000
 -25091189.048 9 -19004176.19248  21090810.119    21090809.7464   21090817.0624
        -0.000          -0.000
  -3077776.590 8  -1989460.15345  23073867.450    23073866.8444   23073877.3054
        -0.000          -0.000
 -10108058.170 9  -7589509.53846  23095396.455    23095395.7104   23095404.2784
        -0.000          -0.000
 -11919421.742 9  -9268976.51846  23198270.665    23198270.6824   23198284.1514
        -0.000          -0.000
 -20052278.922 9 -15085504.49347  22085570.894    22085570.3384   22085579.4724
        -0.000          -0.000
 99  5 11  2  5 30.0000000  0  8  3 29 23 21  8 31  1 17             0.000000009
 -22009243.163 9 -17135274.48748  21517134.582    21517134.5084   21517143.0284
        -0.000          -0.000
 -23653809.944 9 -15187432.46648  20800448.945    20800448.8494   20800456.0974
        -0.000          -0.000
 -16665690.131 9 -12958433.62648  22004985.479    22004985.2564   22004993.6454
        -0.000          -0.000
 -25101484.448 9 -19012198.56948  21088850.937    21088850.5924   21088857.8834
        -0.000          -0.000
  -3136943.453 8  -2035564.02945  23062608.379    23062607.7694   23062617.8314
        -0.000          -0.000
 -10158929.400 9  -7629149.42247  23085715.889    23085715.1624   23085723.4574
        -0.000          -0.000
 -12018659.071 9  -9346304.00246  23179386.260    23179386.3454   23179399.5934
        -0.000          -0.000
 -19985022.311 9 -15033096.83647  22098369.532    22098368.9774   22098378.0974
        -0.000          -0.000
 99  5 11  2  6  0.0000000  0  8  3 29 23 21  8 31  1 17             0.000000010
 -21997579.722 9 -17126186.12048  21519354.176    21519354.0214   21519362.4804
        -0.000          -0.000
 -23706681.580 9 -15228631.06048  20790387.632    20790387.6344   20790394.8964
        -0.000          -0.000
 -16620539.760 9 -12923251.53648  22013577.266    22013577.0584   22013585.4634
        -0.000          -0.000
 -25111648.576 9 -19020118.66549  21086916.749    21086916.4324   21086923.7834
        -0.000          -0.000
  -3195803.442 8  -2081428.76745  23051407.440    23051406.7634   23051416.8874
        -0.000          -0.000
 -10209304.641 9  -7668402.82147  23076129.612    23076128.8994   23076137.2134
        -0.000          -0.000
 -12117657.239 9  -9423445.13446  23160547.890    23160547.7174   23160560.6654
        -0.000          -0.000
 -19917455.676 9 -14980447.56947  22111227.106    22111226.5374   22111235.7184
        -0.000          -0.000
 99  5 11  2  6 30.0000000  0  8  3 29 23 21  8 31  1 17            -0.000000002
 -21985346.439 9 -17116653.72348  21521682.147    21521682.0194   21521690.2964
        -0.000          -0.000
 -23759064.065 9 -15269448.50448  20780419.474    20780419.5054   20780426.8884
        -0.000          -0.000
 -16575305.501 9 -12888004.08048  22022185.143    22022184.9384   22022193.2094
        -0.000          -0.000
 -25121658.701 9 -19027918.75649  21085011.846    21085011.5504   21085018.9674
        -0.000          -0.000
  -3254337.660 8  -2127039.70045  23040268.333    23040267.7754   23040278.0274
        -0.000          -0.000
 -10259173.099 9  -7707261.31847  23066639.734    23066639.0384   23066647.4784
        -0.000          -0.000
 -12216407.560 9  -9500393.14446  23141756.253    23141756.1264   23141768.8344
        -0.000          -0.000
 -19849552.569 9 -14927536.11647  22124148.598    22124148.0714   22124157.3544
        -0.000          -0.000
 99  5 11  2  7  0.0000000  0  8  3 29 23 21  8 31  1 17            -0.000000025
 -21972549.538 9 -17106682.13848  21524117.550    21524117.3834   21524125.3374
        -0.000          -0.000
 -23810920.437 9 -15309855.98748  20770551.418    20770551.4774   20770558.8804
        -0.000          -0.000
 -16529972.240 9 -12852679.48248  22030811.892    22030811.6864   22030819.8894
        -0.000          -0.000
 -25131493.106 9 -19035581.90548  21083140.352    21083140.0564   21083147.5004
        -0.000          -0.000
  -3312508.130 9  -2172367.21046  23029198.541    23029198.0694   23029208.6704
        -0.000          -0.000
 -10308521.781 9  -7745714.78547  23057248.966    23057248.3584   23057256.8294
        -0.000          -0.000
 -12314907.435 9  -9577146.01947  23123012.156    23123012.1724   23123024.6514
        -0.000          -0.000
 -19781295.959 9 -14874349.20547  22137137.415    22137136.9584   22137146.2704
        -0.000          -0.000
 99  5 11  2  7 30.0000000  0  8  3 29 23 21  8 31  1 17            -0.000000039
 -21959155.725 9 -17096245.42948  21526666.570    21526666.3294   21526674.1124
        -0.000          -0.000
 -23862213.699 9 -15349824.68848  20760790.504    20760790.5644   20760797.9734
        -0.000          -0.000
 -16484502.559 9 -12817248.56948  22039464.679    22039464.3464   22039472.5114
        -0.000          -0.000
 -25141130.367 9 -19043091.43748  21081306.436    21081306.1164   21081313.5844
        -0.000          -0.000
  -3370278.618 9  -2217383.06246  23018205.049    23018204.6094   23018215.2794
        -0.000          -0.000
 -10357313.695 9  -7783734.43047  23047964.251    23047963.6174   23047972.0194
        -0.000          -0.000
 -12413132.670 9  -9653684.89147  23104320.583    23104320.4424   23104332.7374
        -0.000          -0.000
 -19712641.750 9 -14820852.48947  22150201.978    22150201.5344   22150210.7544
        -0.000          -0.000
 99  5 11  2  8  0.0000000  0  8  3 29 23 21  8 31  1 17            -0.000000059
 -21945200.683 9 -17085371.39448  21529322.274    21529321.9714   21529329.8284
        -0.000          -0.000
 -23913005.879 9 -15389402.93048  20751125.042    20751125.0954   20751132.4144
        -0.000          -0.000
 -16438945.830 9 -12781749.82848  22048133.929    22048133.5944   22048141.6784
        -0.000          -0.000
 -25150624.852 9 -19050489.72049  21079499.631    21079499.3564   21079506.8524
        -0.000          -0.000
  -3427688.265 9  -2262117.65546  23007280.548    23007279.9714   23007290.4614
        -0.000          -0.000
 -10405588.990 9  -7821351.50747  23038777.671    23038777.0674   23038785.5494
        -0.000          -0.000
 -12511122.024 9  -9730039.94547  23085673.720    23085673.3624   23085685.8704
        -0.000          -0.000
 -19643619.322 9 -14767068.83047  22163336.610    22163336.1424   22163345.2394
        -0.000          -0.000
 99  5 11  2  8 30.0000000  0  8  3 29 23 21  8 31  1 17            -0.000000051
 -21930642.988 9 -17074027.75848  21532092.512    21532092.1334   21532100.1034
        -0.000          -0.000
 -23963267.288 9 -15428567.59548  20741560.578    20741560.6564   20741567.8904
        -0.000          -0.000
 -16393276.891 9 -12746163.63348  22056824.471    22056824.1784   22056832.1744
        -0.000          -0.000
 -25159941.163 9 -19057749.17149  21077726.789    21077726.5144   21077734.0204
        -0.000          -0.000
  -3484694.419 9  -2306537.82546  22996432.483    22996432.0224   22996442.2844
        -0.000          -0.000
 -10453295.175 9  -7858525.13547  23029699.104    23029698.7024   23029707.3434
        -0.000          -0.000
 -12608837.125 9  -9806181.32846  23067078.567    23067078.4044   23067091.1494
        -0.000          -0.000
 -19574177.690 9 -14712958.54847  22176550.954    22176550.4834   22176559.7184
        -0.000          -0.000
 99  5 11  2  9  0.0000000  0  8  3 29 23 21  8 31  1 17            -0.000000035
 -21915542.092 9 -17062260.84348  21534965.920    21534965.5844   21534973.6844
        -0.000          -0.000
 -24013096.247 9 -15467395.27949  20732078.491    20732078.6004   20732085.6504
        -0.000          -0.000
 -16347570.065 9 -12710547.91348  22065522.228    22065521.9774   22065529.9184
        -0.000          -0.000
 -25169152.316 9 -19064926.67449  21075973.905    21075973.6774   21075981.1764
        -0.000          -0.000
  -3541364.412 9  -2350696.05846  22985648.329    22985647.8784   22985658.1124
        -0.000          -0.000
 -10500481.230 9  -7895293.43847  23020719.668    23020719.2884   23020728.1264
        -0.000          -0.000
 -12706344.312 9  -9882160.67746  23048523.360    23048523.1404   23048535.8404
        -0.000          -0.000
 -19504387.104 9 -14658576.33947  22189831.593    22189831.1704   22189840.5544
        -0.000          -0.000
 99  5 11  2  9 30.0000000  0  8  3 29 23 21  8 31  1 17            -0.000000017
 -21899904.996 9 -17050076.12248  21537941.321    21537941.0844   21537949.3284
        -0.000          -0.000
 -24062527.021 9 -15505912.69649  20722672.189    20722672.2924   20722679.2494
        -0.000          -0.000
 -16301845.622 9 -12674918.48448  22074223.502    22074223.1734   22074231.0554
        -0.000          -0.000
 -25178273.786 9 -19072034.28448  21074238.170    21074237.9294   21074245.3194
        -0.000          -0.000
  -3597723.572 9  -2394612.16546  22974923.319    22974922.9724   22974933.3524
        -0.000          -0.000
 -10547166.749 9  -7931671.71046  23011835.578    23011835.1194   23011844.1424
        -0.000          -0.000
 -12803650.557 9  -9957983.45746  23030006.442    23030006.0694   23030018.5514
        -0.000          -0.000
 -19434264.354 9 -14603935.27247  22203175.467    22203175.1014   22203184.4324
        -0.000          -0.000
 99  5 11  2 10  0.0000000  0  8  3 29 23 21  8 31  1 17             0.000000002
 -21883721.728 9 -17037465.81048  21541020.744    21541020.5924   21541029.0564
        -0.000          -0.000
 -24111548.828 9 -15544111.43249  20713343.598    20713343.7114   20713350.7114
        -0.000          -0.000
 -16256099.418 9 -12639272.09548  22082928.832    22082928.4964   22082936.4104
        -0.000          -0.000
 -25187284.690 9 -19079055.74748  21072523.441    21072523.1964   21072530.5094
        -0.000          -0.000
  -3653761.962 9  -2438278.32546  22964259.566    22964259.1044   22964269.6954
        -0.000          -0.000
 -10593350.877 9  -7967659.28946  23003046.673    23003046.4124   23003055.5204
        -0.000          -0.000
 -12900732.399 9 -10033631.38746  23011532.196    23011531.6694   23011543.9414
        -0.000          -0.000
 -19363818.132 9 -14549042.18947  22216581.054    22216580.5814   22216589.9704
        -0.000          -0.000
 99  5 11  2 10 30.0000000  0  8  3 29 23 21  8 31  1 17             0.000000019
 -21866995.069 9 -17024432.08248  21544203.773    21544203.6484   21544212.1904
        -0.000          -0.000
 -24160143.733 9 -15581977.51949  20704096.201    20704096.3234   20704103.3844
        -0.000          -0.000
 -16210327.513 9 -12603605.66248  22091639.053    22091638.7464   22091646.6174
        -0.000          -0.000
 -25196175.817 9 -19085983.87749  21070831.491    21070831.2774   21070838.5634
        -0.000          -0.000
  -3709461.826 9  -2481680.70846  22953660.175    22953659.6624   22953670.2594
        -0.000          -0.000
 -10639034.345 9  -8003256.74046  22994353.412    22994353.1214   22994362.2544
        -0.000          -0.000
 -12997570.986 9 -10109089.77047  22993103.784    22993103.4774   22993115.7824
        -0.000          -0.000
 -19293067.979 9 -14493912.26147  22230044.433    22230043.9804   22230053.3344
        -0.000          -0.000
 99  5 11  2 11  0.0000000  0  8  3 29 23 21  8 31  1 17             0.000000027
 -21849729.093 9 -17010978.10448  21547489.540    21547489.3444   21547497.7874
        -0.000          -0.000
 -24208311.027 9 -15619510.39849  20694930.245    20694930.3484   20694937.3534
        -0.000          -0.000
 -16164530.152 9 -12567919.39448  22100354.178    22100353.7934   22100361.6254
        -0.000          -0.000
 -25204948.406 9 -19092819.65249  21069162.145    21069161.9334   21069169.2474
        -0.000          -0.000
  -3764816.301 9  -2524813.92746  22943126.415    22943125.8654   22943136.4204
        -0.000          -0.000
 -10684230.283 9  -8038474.30946  22985752.889    22985752.4854   22985761.5414
        -0.000          -0.000
 -13094167.640 9 -10184359.65047  22974721.808    22974721.5514   22974733.8654
        -0.000          -0.000
 -19222036.834 9 -14438563.41147  22243561.447    22243560.9234   22243570.2944
        -0.000          -0.000
 99  5 11  2 11 30.0000000  0  8  3 29 23 21  8 31  1 17             0.000000025
 -21831897.143 9 -16997083.11348  21550882.789    21550882.6244   21550890.9974
        -0.000          -0.000
 -24256019.214 9 -15656685.53649  20685851.589    20685851.6734   20685858.6254
        -0.000          -0.000
 -16118687.539 9 -12532197.87348  22109077.821    22109077.4144   22109085.2394
        -0.000          -0.000
 -25213579.802 9 -19099545.39449  21067519.718    21067519.4804   21067526.7384
        -0.000          -0.000
  -3819800.593 9  -2567658.66745  22932663.076    22932662.6084   22932672.8894
        -0.000          -0.000
 -10728930.141 9  -8073305.31046  22977246.661    22977246.2544   22977255.3504
        -0.000          -0.000
 -13190498.459 9 -10259422.38547  22956390.619    22956390.2924   22956402.5724
        -0.000          -0.000
 -19150704.961 9 -14382980.19747  22257135.419    22257134.9074   22257144.4574
        -0.000          -0.000
 99  5 11  2 12  0.0000000  0  8  3 29 23 21  8 31  1 17             0.000000025
 -21813480.536 9 -16982732.55348  21554387.442    21554387.2684   21554395.4954
        -0.000          -0.000
 -24303231.943 9 -15693474.60249  20676867.187    20676867.2934   20676874.2874
        -0.000          -0.000
 -16072782.332 9 -12496427.60548  22117813.374    22117812.9474   22117820.7704
        -0.000          -0.000
 -25222044.751 9 -19106141.43148  21065908.942    21065908.6054   21065915.8044
        -0.000          -0.000
  -3874387.831 9  -2610194.00846  22922275.328    22922274.7904   22922285.0524
        -0.000          -0.000
 -10773103.597 9  -8107726.12246  22968840.720    22968840.0734   22968849.3824
        -0.000          -0.000
 -13286553.376 9 -10334270.13547  22938111.748    22938111.4474   22938123.5684
        -0.000          -0.000
 -19079054.553 9 -14327148.77447  22270769.896    22270769.4274   22270779.1404
        -0.000          -0.000
 99  5 11  2 12 30.0000000  0  8  3 29 23 21  8 31  1 17             0.000000004
 -21794498.858 9 -16967941.66748  21557999.626    21557999.4274   21558007.5834
        -0.000          -0.000
 -24349962.302 9 -15729887.79449  20667974.604    20667974.7294   20667981.7614
        -0.000          -0.000
 -16026818.908 9 -12460611.97448  22126560.010    22126559.5424   22126567.3934
        -0.000          -0.000
 -25230355.334 9 -19112617.18248  21064327.351    21064327.0204   21064334.3184
        -0.000          -0.000
  -3928592.457 9  -2652431.19446  22911960.430    22911959.9104   22911970.1544
        -0.000          -0.000
 -10816754.386 9  -8141739.66346  22960534.129    22960533.4844   22960542.9784
        -0.000          -0.000
 -13382371.980 9 -10408933.74647  22919877.854    22919877.5004   22919889.4284
        -0.000          -0.000
 -19007087.782 9 -14271070.83247  22284464.599    22284464.2764   22284474.0524
        -0.000          -0.000
 99  5 11  2 13  0.0000000  0  8  3 29 23 21  8 31  1 17            -0.000000019
 -21774922.769 9 -16952687.59848  21561724.872    21561724.6294   21561732.8984
        -0.000          -0.000
 -24396197.023 9 -15765914.77349  20659176.411    20659176.5204   20659183.5594
        -0.000          -0.000
 -15980765.264 9 -12424726.03948  22135323.800    22135323.3144   22135331.1934
        -0.000          -0.000
 -25238473.076 9 -19118942.67249  21062782.595    21062782.2794   21062789.6164
        -0.000          -0.000
  -3982396.686 9  -2694356.41746  22901721.736    22901721.1894   22901731.5484
        -0.000          -0.000
 -10859849.375 9  -8175320.10646  22952333.335    22952332.7204   22952342.3574
        -0.000          -0.000
 -13477947.183 9 -10483407.71947  22901690.257    22901689.8804   22901701.6254
        -0.000          -0.000
 -18934758.063 9 -14214710.10147  22298228.623    22298228.2884   22298238.0064
        -0.000          -0.000
 99  5 11  2 13 30.0000000  0  8  3 29 23 21  8 31  1 17            -0.000000035
 -21754743.209 9 -16936963.29548  21565564.780    21565564.5904   21565573.0644
        -0.000          -0.000
 -24441915.951 9 -15801539.84549  20650476.334    20650476.4434   20650483.4574
        -0.000          -0.000
 -15934597.370 9 -12388751.07448  22144109.324    22144108.8034   22144116.6194
        -0.000          -0.000
 -25246381.339 9 -19125104.93349  21061277.835    21061277.4714   21061284.7644
        -0.000          -0.000
  -4035793.254 9  -2735964.03846  22891560.583    22891560.0834   22891570.2224
        -0.000          -0.000
 -10902369.144 9  -8208452.33846  22944242.165    22944241.5324   22944251.2494
        -0.000          -0.000
 -13573258.657 9 -10557676.18647  22883553.132    22883552.7464   22883564.3064
        -0.000          -0.000
 -18862044.137 9 -14158049.99147  22312065.553    22312065.2194   22312075.0194
        -0.000          -0.000
 99  5 11  2 14  0.0000000  0  8  3 29 23 21  8 31  1 17            -0.000000042
 -21733986.389 9 -16920789.17848  21569514.684    21569514.4664   21569522.9384
        -0.000          -0.000
 -24487132.047 9 -15836773.09649  20641872.010    20641872.1194   20641879.0354
        -0.000          -0.000
 -15888321.151 9 -12352691.69548  22152915.318    22152914.8064   22152922.5144
        -0.000          -0.000
 -25254087.720 9 -19131109.87749  21059811.388    21059810.9664   21059818.2744
        -0.000          -0.000
  -4088782.246 9  -2777254.02146  22881477.016    22881476.5144   22881486.4774
        -0.000          -0.000
 -10944311.004 9  -8241134.25647  22936260.773    22936260.3084   22936270.2284
        -0.000          -0.000
 -13668315.140 9 -10631745.95747  22865464.766    22865464.1794   22865475.6664
        -0.000          -0.000
 -18788960.963 9 -14101102.12047  22325972.883    22325972.5214   22325982.3504
        -0.000          -0.000
 99  5 11  2 14 30.0000000  0  8  3 29 23 21  8 31  1 17            -0.000000040
 -21712681.796 9 -16904188.22548  21573568.795    21573568.6594   21573577.1054
        -0.000          -0.000
 -24531894.955 9 -15871653.20849  20633353.858    20633353.9474   20633360.8684
        -0.000          -0.000
 -15841964.861 9 -12316569.94147  22161736.447    22161735.9804   22161743.7084
        -0.000          -0.000
 -25261640.396 9 -19136995.06548  21058373.876    21058373.5424   21058380.9434
        -0.000          -0.000
  -4141388.143 9  -2818245.49346  22871466.438    22871465.9544   22871475.6164
        -0.000          -0.000
 -10985706.176 9  -8273390.16147  22928383.376    22928382.9904   22928393.1064
        -0.000          -0.000
 -13763133.589 9 -10705630.24447  22847421.318    22847420.6514   22847432.2434
        -0.000          -0.000
 -18715545.764 9 -14043895.52647  22339943.541    22339943.0794   22339952.9184
        -0.000          -0.000
 99  5 11  2 15  0.0000000  0  8  3 29 23 21  8 31  1 17            -0.000000030
 -21690857.098 9 -16887181.98548  21577722.017    21577721.8344   21577730.2954
        -0.000          -0.000
 -24576228.412 9 -15906198.69249  20624917.289    20624917.4374   20624924.3554
        -0.000          -0.000
 -15795565.223 9 -12280414.40847  22170565.720    22170565.3074   22170573.2604
        -0.000          -0.000
 -25269076.790 9 -19142789.62648  21056958.599    21056958.3214   21056965.7694
        -0.000          -0.000
  -4193619.332 9  -2858944.92846  22861527.170    22861526.7444   22861536.2504
        -0.000          -0.000
 -11026576.286 9  -8305236.94847  22920606.077    22920605.8144   22920615.8394
        -0.000          -0.000
 -13857702.341 9 -10779319.95747  22829425.038    22829424.5984   22829436.2354
        -0.000          -0.000
 -18641817.188 9 -13986444.75047  22353973.714    22353973.2164   22353982.9914
        -0.000          -0.000
 99  5 11  2 15 30.0000000  0  8  3 29 23 21  8 31  1 17            -0.000000009
 -21668529.400 9 -16869783.80548  21581970.663    21581970.5434   21581979.1584
        -0.000          -0.000
 -24620130.896 9 -15940408.35149  20616562.918    20616563.0304   20616569.9204
        -0.000          -0.000
 -15749140.219 9 -12244239.11647  22179399.840    22179399.5224   22179407.6894
        -0.000          -0.000
 -25276420.368 9 -19148511.86549  21055561.137    21055560.9084   21055568.2964
        -0.000          -0.000
  -4245472.560 9  -2899349.86746  22851659.871    22851659.3374   22851668.8654
        -0.000          -0.000
 -11066929.327 9  -8336680.81247  22912927.496    22912927.0704   22912936.9664
        -0.000          -0.000
 -13952019.552 9 -10852813.67447  22811476.905    22811476.6134   22811488.0384
        -0.000          -0.000
 -18567785.468 9 -13928757.77947  22368061.314    22368060.8844   22368070.6564
        -0.000          -0.000
 99  5 11  2 16  0.0000000  0  8  3 29 23 21  8 31  1 17             0.000000023
 -21645687.380 9 -16851984.86348  21586317.192    21586317.1234   21586325.9224
        -0.000          -0.000
 -24663602.898 9 -15974282.57349  20608290.435    20608290.5684   20608297.4544
        -0.000          -0.000
 -15702698.177 9 -12208050.55347  22188237.349    22188237.0334   22188245.3474
        -0.000          -0.000
 -25283679.150 9 -19154168.02849  21054180.054    21054179.7444   21054186.9744
        -0.000          -0.000
  -4296936.668 9  -2939451.64246  22841866.290    22841865.7464   22841875.5084
        -0.000          -0.000
 -11106768.389 9  -8367724.17347  22905346.408    22905345.9994   22905355.8174
        -0.000          -0.000
 -14046088.350 9 -10926113.82247  22793576.154    22793575.7474   22793587.2464
        -0.000          -0.000
 -18493447.986 9 -13870832.53947  22382207.204    22382206.8414   22382216.7014
        -0.000          -0.000
 99  5 11  2 16 30.0000000  0  8  3 29 23 21  8 31  1 17             0.000000055
 -21622335.431 9 -16833788.57948  21590760.990    21590760.8974   21590769.6384
        -0.000          -0.000
 -24706640.251 9 -16007818.10049  20600100.560    20600100.7074   20600107.6414
        -0.000          -0.000
 -15656242.173 9 -12171851.08847  22197077.541    22197077.3034   22197085.5734
        -0.000          -0.000
 -25290872.422 9 -19159773.15949  21052811.299    21052810.9624   21052818.0764
        -0.000          -0.000
  -4348014.965 9  -2979252.78046  22832146.183    22832145.6654   22832155.5494
        -0.000          -0.000
 -11146114.625 9  -8398383.52047  22897858.791    22897858.4834   22897868.3594
        -0.000          -0.000
 -14139904.883 9 -10999217.42147  22775722.874    22775722.6364   22775734.7174
        -0.000          -0.000
 -18418803.302 9 -13812667.92147  22396411.758    22396411.4164   22396421.2254
        -0.000          -0.000
 99  5 11  2 17  0.0000000  0  8  3 29 23 21  8 31  1 17             0.000000067
 -21598484.979 9 -16815203.83748  21595299.697    21595299.5554   21595308.1494
        -0.000          -0.000
 -24749236.365 9 -16041009.80849  20591994.742    20591994.8594   20592001.7624
        -0.000          -0.000
 -15609783.114 9 -12135649.23948  22205918.506    22205918.2424   22205926.3634
        -0.000          -0.000
 -25297999.956 9 -19165327.05649  21051455.087    21051454.7514   21051461.7344
        -0.000          -0.000
  -4398721.640 9  -3018764.36346  22822496.943    22822496.3854   22822506.3094
        -0.000          -0.000
 -11184983.015 9  -8428670.53447  22890462.100    22890461.9034   22890471.9734
        -0.000          -0.000
 -14233480.150 9 -11072133.03447  22757915.676    22757915.6834   22757928.0354
        -0.000          -0.000
 -18343857.826 9 -13754268.91447  22410673.781    22410673.3044   22410682.9394
        -0.000          -0.000
 99  5 11  2 17 30.0000000  0  8  3 29 23 21  8 31  1 17             0.000000076
 -21574067.834 9 -16796177.50948  21599945.915    21599945.8894   21599954.5064
        -0.000          -0.000
 -24791335.301 9 -16073814.10949  20583983.535    20583983.6154   20583990.5174
        -0.000          -0.000
 -15563264.636 9 -12099401.08448  22214770.789    22214770.4644   22214778.5324
        -0.000          -0.000
 -25304998.232 9 -19170780.22949  21050123.369    21050123.0034   21050129.9424
        -0.000          -0.000
  -4449009.394 9  -3057949.48346  22812927.437    22812926.8404   22812936.6294
        -0.000          -0.000
 -11223326.666 9  -8458548.65747  22883165.418    22883165.3344   22883175.4594
        -0.000          -0.000
 -14326770.981 9 -11144826.97647  22740163.560    22740163.2324   22740175.1154
        -0.000          -0.000
 -18268575.409 9 -13695607.37247  22424999.466    22424999.0064   22425008.7554
        -0.000          -0.000
 99  5 11  2 18  0.0000000  0  8  3 29 23 21  8 31  1 17             0.000000070
 -21549086.489 9 -16776711.54548  21604699.598    21604699.6184   21604708.3604
        -0.000          -0.000
 -24832944.543 9 -16106236.82249  20576065.428    20576065.5264   20576072.4114
        -0.000          -0.000
 -15516689.678 9 -12063108.93148  22223633.603    22223633.2994   22223641.5144
        -0.000          -0.000
 -25311874.589 9 -19176138.39649  21048814.829    21048814.4694   21048821.3644
        -0.000          -0.000
  -4498903.277 9  -3096827.69546  22803432.673    22803432.1144   22803441.9514
        -0.000          -0.000
 -11261150.030 9  -8488021.37447  22875968.094    22875967.9174   22875977.8194
        -0.000          -0.000
 -14419785.023 9 -11217305.22747  22722463.970    22722463.3064   22722474.8254
        -0.000          -0.000
 -18192975.525 9 -13636698.45847  22439385.548    22439385.1774   22439394.9114
        -0.000          -0.000
 99  5 11  2 18 30.0000000  0  8  3 29 23 21  8 31  1 17             0.000000053
 -21523531.457 9 -16756798.55548  21609562.639    21609562.6314   21609571.4404
        -0.000          -0.000
 -24874055.119 9 -16138270.96849  20568242.333    20568242.4324   20568249.2684
        -0.000          -0.000
 -15470051.493 9 -12026767.51148  22232508.457    22232508.1854   22232516.4534
        -0.000          -0.000
 -25318608.959 9 -19181385.92349  21047533.284    21047532.9464   21047539.8844
        -0.000          -0.000
  -4548401.168 9  -3135397.36345  22794012.901    22794012.5844   22794022.4664
        -0.000          -0.000
 -11298438.033 9  -8517076.90147  22868872.463    22868872.2694   22868881.9994
        -0.000          -0.000
 -14512496.636 9 -11289547.84647  22704821.131    22704820.5714   22704832.1634
        -0.000          -0.000
 -18117046.819 9 -13577533.32047  22453834.253    22453833.8944   22453843.7724
        -0.000          -0.000
 99  5 11  2 19  0.0000000  0  9 25  3 29 23 21  8 31  1 17          0.000000043
  -1441231.75518   2057035.008 1         0.000           0.0001          0.000
        -0.000          -0.000
 -21497369.056 9 -16736412.29748  21614541.295    21614541.2044   21614550.0534
        -0.000          -0.000
 -24914648.999 9 -16169902.49149  20560517.537    20560517.6504   20560524.5524
        -0.000          -0.000
 -15423330.033 9 -11990361.20547  22241399.146    22241398.8904   22241407.2424
        -0.000          -0.000
 -25325153.181 9 -19186485.29548  21046287.780    21046287.4494   21046294.6294
        -0.000          -0.000
  -4597480.493 9  -3173640.85645  22784673.089    22784672.8894   22784682.7574
        -0.000          -0.000
 -11335151.729 9  -8545684.93147  22861886.199    22861885.9554   22861895.4854
        -0.000          -0.000
 -14604887.535 9 -11361540.55147  22687239.159    22687238.7234   22687250.5974
        -0.000          -0.000
 -18040770.707 9 -13518097.45347  22468349.410    22468349.0154   22468358.8474
        -0.000          -0.000
 99  5 11  2 19 30.0000000  0  9 25  3 29 23 21  8 31  1 17          0.000000024
  -1530824.979 8  -1167106.45842         0.000           0.0004          0.0004
        -0.000          -0.000
 -21470630.977 9 -16715577.45348  21619629.259    21619629.2024   21619638.0964
        -0.000          -0.000
 -24954740.845 9 -16201142.82549  20552888.327    20552888.4124   20552895.3274
        -0.000          -0.000
 -15376535.203 9 -11953897.75048  22250303.920    22250303.7154   22250312.0554
        -0.000          -0.000
 -25331525.750 9 -19191450.92348  21045074.764    21045074.5384   21045081.8934
        -0.000          -0.000
  -4646159.728 9  -3211572.59346  22775409.799    22775409.5124   22775419.3644
        -0.000          -0.000
 -11371305.191 9  -8573856.39847  22855006.540    22855006.1894   22855015.5604
        -0.000          -0.000
 -14696985.427 9 -11433304.93547  22669713.112    22669712.6654   22669724.6114
        -0.000          -0.000
 -17964164.335 9 -13458404.23047  22482927.344    22482926.8334   22482936.7404
        -0.000          -0.000
 99  5 11  2 20  0.0000000  0  9 25  3 29 23 21  8 31  1 17          0.000000008
  -1620580.538 8  -1237044.66052         0.000           0.0004          0.0005
        -0.000          -0.000
 -21443320.992 9 -16694296.95448  21624826.027    21624826.0744   21624834.9314
        -0.000          -0.000
 -24994310.681 9 -16231976.40149  20545358.323    20545358.4154   20545365.3754
        -0.000          -0.000
 -15329645.178 9 -11917360.09447  22259227.065    22259226.8074   22259235.0104
        -0.000          -0.000
 -25337706.576 9 -19196267.11548  21043898.559    21043898.4024   21043905.6024
        -0.000          -0.000
  -4694417.466 9  -3249175.86346  22766226.813    22766226.5394   22766236.2034
        -0.000          -0.000
 -11406876.215 9  -8601574.03847  22848237.593    22848237.2644   22848246.4034
        -0.000          -0.000
 -14788775.325 9 -11504829.33447  22652245.668    22652245.4074   22652257.1334
        -0.000          -0.000
 -17887205.436 9 -13398436.34146  22497572.337    22497571.7454   22497581.7244
        -0.000          -0.000
 99  5 11  2 20 30.0000000  0  9 25  3 29 23 21  8 31  1 17         -0.000000015
  -1710523.99818  -1307129.50644         0.000           0.0005   25252349.4874
        -0.000          -0.000
 -21415465.549 9 -16672591.44348  21630127.139    21630127.0844   21630135.5894
        -0.000          -0.000
 -25033388.386 9 -16262426.50749  20537921.977    20537922.0734   20537929.0054
        -0.000          -0.000
 -15282691.476 9 -11880772.82147  22268162.203    22268161.8824   22268170.1424
        -0.000          -0.000
 -25343712.003 9 -19200946.63049  21042755.897    21042755.6734   21042762.7984
        -0.000          -0.000
  -4742246.789 9  -3286445.30846  22757125.383    22757124.9604   22757134.7014
        -0.000          -0.000
 -11441893.273 9  -8628860.02547  22841574.255    22841573.8974   22841582.7484
        -0.000          -0.000
 -14880280.805 9 -11576132.11047  22634832.681    22634832.3924   22634843.8774
        -0.000          -0.000
 -17809919.091 9 -13338213.29246  22512279.212    22512278.6944   22512288.8674
        -0.000          -0.000
 99  5 11  2 21  0.0000000  0  9 25  3 29 23 21  8 31  1 17         -0.000000028
  -1800596.197 9  -1377314.61645  25235190.223    25235188.5334   25235210.1774
        -0.000          -0.000
 -21387046.223 9 -16650446.52448  21635535.426    21635535.2814   21635543.5954
        -0.000          -0.000
 -25071941.097 9 -16292467.52149  20530585.640    20530585.7514   20530592.5154
        -0.000          -0.000
 -15235633.618 9 -11844104.38747  22277117.083    22277116.7634   22277125.0734
        -0.000          -0.000
 -25349516.994 9 -19205469.97449  21041651.351    21041651.0584   21041658.1914
        -0.000          -0.000
  -4789608.618 9  -3323350.47046  22748112.651    22748112.2104   22748122.2724
        -0.000          -0.000
 -11476324.572 9  -8655689.55147  22835022.631    22835022.1034   22835030.5384
        -0.000          -0.000
 -14971485.146 9 -11647200.22847  22617477.072    22617476.7574   22617488.1414
        -0.000          -0.000
 -17732280.386 9 -13277715.68546  22527053.380    22527052.9554   22527063.0264
        -0.000          -0.000
 99  5 11  2 21 30.0000000  0  9 25  3 29 23 21  8 31  1 17         -0.000000040
  -1890802.579 9  -1447604.32945  25218023.738    25218021.8774   25218043.2424
        -0.000          -0.000
 -21358096.745 9 -16627888.50248  21641044.082    21641044.0284   21641052.5184
        -0.000          -0.000
 -25109994.236 9 -16322119.24549  20523344.412    20523344.4644   20523351.0814
        -0.000          -0.000
 -15188499.469 9 -11807376.49447  22286086.577    22286086.1634   22286094.4474
        -0.000          -0.000
 -25355161.298 9 -19209868.12148  21040577.188    21040576.8924   21040584.0074
        -0.000          -0.000
  -4836525.147 9  -3359908.68246  22739184.567    22739184.1124   22739194.2094
        -0.000          -0.000
 -11510193.474 9  -8682080.85547  22828577.898    22828577.2644   22828585.2704
        -0.000          -0.000
 -15062403.895 9 -11718045.80247  22600175.674    22600175.4344   22600186.8304
        -0.000          -0.000
 -17654313.655 9 -13216962.45746  22541890.217    22541889.7944   22541899.7724
        -0.000          -0.000
 99  5 11  2 22  0.0000000  0  9 25  3 29 23 21  8 31  1 17         -0.000000034
  -1981157.951 9  -1518010.22845  25200829.041    25200828.1604   25200848.7024
        -0.000          -0.000
 -21328603.132 9 -16604906.48148  21646656.297    21646656.2924   21646664.9214
        -0.000          -0.000
 -25147573.803 9 -16351401.95449  20516193.103    20516193.2354   20516199.8924
        -0.000          -0.000
 -15141302.221 9 -11770599.43647  22295068.123    22295067.6664   22295075.9074
        -0.000          -0.000
 -25360649.186 9 -19214144.37448  21039532.803    21039532.4654   21039539.5544
        -0.000          -0.000
  -4882986.857 9  -3396112.47846  22730343.082    22730342.6424   22730352.7444
        -0.000          -0.000
 -11543502.028 9  -8708035.52747  22822239.882    22822239.0734   22822246.6514
        -0.000          -0.000
 -15153020.218 9 -11788655.70647  22582931.997    22582931.5924   22582943.0504
        -0.000          -0.000
 -17576024.735 9 -13155958.16746  22556788.237    22556787.7914   22556797.7654
        -0.000          -0.000
 99  5 11  2 22 30.0000000  0  9 25  3 29 23 21  8 31  1 17         -0.000000027
  -2071683.391 9  -1588548.40445  25183602.551    25183601.4654   25183621.8714
        -0.000          -0.000
 -21298593.429 9 -16581522.32348  21652367.186    21652367.1084   21652375.6214
        -0.000          -0.000
 -25184704.839 9 -16380335.15949  20509127.286    20509127.4174   20509134.0704
        -0.000          -0.000
 -15094075.784 9 -11733799.64647  22304055.039    22304054.6244   22304062.8254
        -0.000          -0.000
 -25366019.647 9 -19218329.13048  21038510.768    21038510.4624   21038517.5444
        -0.000          -0.000
  -4929022.763 9  -3431984.50446  22721582.630    22721582.1164   22721592.1014
        -0.000          -0.000
 -11576277.223 9  -8733574.59447  22816003.060    22816002.2104   22816009.6444
        -0.000          -0.000
 -15243360.364 9 -11859050.42347  22565740.545    22565740.1744   22565751.8084
        -0.000          -0.000
 -17497435.503 9 -13094719.84446  22571743.249    22571742.7974   22571752.8464
        -0.000          -0.000
 99  5 11  2 23  0.0000000  0  9 25  3 29 23 21  8 31  1 17         -0.000000021
  -2162375.803 9  -1659216.70045  25166344.166    25166342.9244   25166363.3694
        -0.000          -0.000
 -21268075.918 9 -16557742.45948  21658174.807    21658174.6074   21658183.0634
        -0.000          -0.000
 -25221374.299 9 -16408908.70549  20502149.335    20502149.3874   20502156.1204
        -0.000          -0.000
 -15046806.654 9 -11696966.57047  22313050.203    22313049.7274   22313057.8584
        -0.000          -0.000
 -25371279.931 9 -19222428.03249  21037509.784    21037509.5054   21037516.6344
        -0.000          -0.000
  -4974646.646 9  -3467535.48746  22712900.361    22712899.9374   22712909.8594
        -0.000          -0.000
 -11608512.228 9  -8758692.71547  22809868.826    22809867.9084   22809875.5364
        -0.000          -0.000
 -15333417.852 9 -11929224.89847  22548602.689    22548602.4984   22548614.2594
        -0.000          -0.000
 -17418537.486 9 -13033240.92946  22586757.014    22586756.6344   22586766.7044
        -0.000          -0.000
 99  5 11  2 23 30.0000000  0  9 25  3 29 23 21  8 31  1 17         -0.000000022
  -2253259.825 8  -1730034.46145  25149048.663    25149047.8574   25149068.2194
        -0.000          -0.000
 -21237059.337 9 -16533573.69848  21664076.996    21664076.8224   21664085.5094
        -0.000          -0.000
 -25257580.366 9 -16437121.16449  20495259.486    20495259.5274   20495266.3254
        -0.000          -0.000
 -14999501.314 9 -11660105.26147  22322052.191    22322051.6654   22322059.6594
        -0.000          -0.000
 -25376432.385 9 -19226442.91749  21036529.317    21036529.0544   21036536.2684
        -0.000          -0.000
  -5019853.489 9  -3502761.45146  22704297.476    22704297.1234   22704307.3524
        -0.000          -0.000
 -11640220.796 9  -8783400.65247  22803834.686    22803833.7654   22803841.7574
        -0.000          -0.000
 -15423192.056 9 -11999178.61647  22531519.046    22531518.7954   22531530.5844
        -0.000          -0.000
 -17339324.444 9 -12971516.58046  22601831.042    22601830.6084   22601840.4824
        -0.000          -0.000
 99  5 11  2 24  0.0000000  0  9 25  3 29 23 21  8 31  1 17         -0.000000023
  -2344311.922 8  -1800983.23145  25131721.147    25131720.5544   25131741.1034
        -0.000          -0.000
 -21205510.556 9 -16508990.24948  21670080.385    21670080.3164   21670089.1584
        -0.000          -0.000
 -25293280.567 9 -16464939.43549  20488465.799    20488465.9004   20488472.7004
        -0.000          -0.000
 -14952110.513 9 -11623177.36447  22331070.170    22331069.7224   22331077.7234
        -0.000          -0.000
 -25381439.147 9 -19230344.26849  21035576.619    21035576.3144   21035583.6034
        -0.000          -0.000
  -5064607.061 9  -3537634.24046  22695780.916    22695780.6094   22695790.8614
        -0.000          -0.000
 -11671377.357 9  -8807678.45947  22797905.481    22797904.6894   22797913.0474
        -0.000          -0.000
 -15512662.985 9 -12068896.01947  22514492.973    22514492.8924   22514504.5244
        -0.000          -0.000
 -17259764.293 9 -12909521.68946  22616970.774    22616970.3984   22616980.1794
        -0.000          -0.000
 99  5 11  2 24 30.0000000  0  9 25  3 29 23 21  8 31  1 17         -0.000000030
  -2435491.918 8  -1872031.70245  25114369.119    25114368.8164   25114389.5274
        -0.000          -0.000
 -21173431.156 9 -16483993.33548  21676184.889    21676184.8894   21676193.6284
        -0.000          -0.000
 -25328447.464 9 -16492342.14549  20481773.734    20481773.8134   20481780.6084
        -0.000          -0.000
 -14904620.943 9 -11586172.50547  22340107.180    22340106.7664   22340114.6754
        -0.000          -0.000
 -25386287.632 9 -19234122.29649  21034653.911    21034653.6324   21034661.0124
        -0.000          -0.000
  -5108898.095 9  -3572146.60346  22687352.243    22687352.0444   22687362.3204
        -0.000          -0.000
 -11701971.512 9  -8831518.01947  22792083.172    22792082.5804   22792091.2634
        -0.000          -0.000
 -15601823.214 9 -12138371.30247  22497526.598    22497526.3674   22497537.3754
        -0.000          -0.000
 -17179854.918 9 -12847254.65246  22632176.829    22632176.4304   22632186.5874
        -0.000          -0.000
 99  5 11  2 25  0.0000000  0  9 25  3 29 23 21  8 31  1 17         -0.000000031
  -2526787.865 8  -1943170.60345  25096995.015    25096994.9634   25097015.8684
        -0.000          -0.000
 -21140804.106 9 -16458569.67948  21682393.806    21682393.7114   21682402.3664
        -0.000          -0.000
 -25363087.766 9 -16519334.52349  20475181.936    20475182.0364   20475188.7184
        -0.000          -0.000
 -14857028.760 9 -11549087.70547  22349163.760    22349163.3064   22349171.1754
        -0.000          -0.000
 -25390967.567 9 -19237768.98149  21033763.347    21033763.0694   21033770.4444
        -0.000          -0.000
  -5152717.714 9  -3606291.64246  22679013.590    22679013.4074   22679023.7124
        -0.000          -0.000
 -11731994.667 9  -8854912.65547  22786369.748    22786369.2354   22786378.0334
        -0.000          -0.000
 -15690662.428 9 -12207596.43647  22480621.285    22480620.7614   22480631.4244
        -0.000          -0.000
 -17099593.944 9 -12784713.68646  22647449.882    22647449.5274   22647459.8964
        -0.000          -0.000
 99  5 11  2 25 30.0000000  0  9 25  3 29 23 21  8 31  1 17         -0.000000027
  -2618219.112 8  -2014414.89045  25079595.292    25079595.7384   25079616.2874
        -0.000          -0.000
 -21107646.572 9 -16432732.65148  21688703.254    21688703.2044   21688712.2004
        -0.000          -0.000
 -25397250.391 9 -16545954.68549  20468681.066    20468681.0974   20468687.6814
        -0.000          -0.000
 -14809371.188 9 -11511951.94747  22358232.569    22358232.1784   22358240.0934
        -0.000          -0.000
 -25395505.484 9 -19241305.00949  21032899.739    21032899.4874   21032906.8804
        -0.000          -0.000
  -5196088.164 9  -3640086.67346  22670760.375    22670760.1894   22670770.2734
        -0.000          -0.000
 -11761461.637 9  -8877873.90247  22780762.035    22780761.6574   22780770.5004
        -0.000          -0.000
 -15779197.812 9 -12276584.84847  22463773.154    22463772.6954   22463783.4934
        -0.000          -0.000
 -17019018.193 9 -12721927.45446  22662782.904    22662782.5834   22662792.9234
        -0.000          -0.000
 99  5 11  2 26  0.0000000  0  9 25  3 29 23 21  8 31  1 17         -0.000000011
  -2709797.411 8  -2085773.69845  25062167.733    25062168.5334   25062188.1744
        -0.000          -0.000
 -21073968.407 9 -16406489.94848  21695111.707    21695111.7474   21695121.0544
        -0.000          -0.000
 -25430980.733 9 -16572238.00449  20462262.218    20462262.2814   20462268.9054
        -0.000          -0.000
 -14761686.141 9 -11474794.76747  22367306.673    22367306.2964   22367314.2414
        -0.000          -0.000
 -25399928.109 9 -19244751.19249  21032058.064    21032057.8594   21032065.1644
        -0.000          -0.000
  -5239037.768 9  -3673553.80046  22662587.569    22662587.2284   22662597.0244
        -0.000          -0.000
 -11790369.679 9  -8900399.64047  22775261.024    22775260.7054   22775269.3304
        -0.000          -0.000
 -15867442.730 9 -12345346.93647  22446980.123    22446979.9204   22446991.0244
        -0.000          -0.000
 -16938178.713 9 -12658935.70146  22678166.076    22678165.8024   22678176.2804
        -0.000          -0.000
 99  5 11  2 26 30.0000000  0  9 25  3 29 23 21  8 31  1 17          0.000000027
  -2801525.259 8  -2157249.13845  25044711.832    25044712.4994   25044732.1784
        -0.000          -0.000
 -21039780.476 9 -16379850.03548  21701617.399    21701617.5724   21701626.8344
        -0.000          -0.000
 -25464296.088 9 -16598197.96649  20455922.406    20455922.4804   20455929.0834
        -0.000          -0.000
 -14714008.216 9 -11437643.13947  22376379.511    22376379.1254   22376386.9894
        -0.000          -0.000
 -25404247.791 9 -19248117.16048  21031236.119    21031235.8394   21031243.0874
        -0.000          -0.000
  -5281568.212 9  -3706694.28346  22654494.313    22654493.9904   22654503.6574
        -0.000          -0.000
 -11818711.279 9  -8922483.98847  22769867.730    22769867.3704   22769875.8774
        -0.000          -0.000
 -15955395.688 9 -12413881.52547  22430243.072    22430242.9464   22430254.1484
        -0.000          -0.000
 -16857083.720 9 -12595744.85746  22693598.047    22693597.7094   22693608.2734
        -0.000          -0.000
 99  5 11  2 27  0.0000000  0  9 25  3 29 23 21  8 31  1 17          0.000000058
  -2893480.650 8  -2228901.88245  25027212.429    25027213.0824   25027232.3804
        -0.000          -0.000
 -21005141.294 9 -16352858.49148  21708209.470    21708209.4894   21708218.4414
        -0.000          -0.000
 -25497262.668 9 -16623886.15349  20449649.086    20449649.1624   20449655.6814
        -0.000          -0.000
 -14666388.563 9 -11400536.91847  22385441.341    22385440.9214   22385448.6414
        -0.000          -0.000
 -25408521.021 9 -19251446.93848  21030422.832    21030422.5824   21030429.7844
        -0.000          -0.000
  -5323730.569 9  -3739547.92846  22646471.205    22646470.6954   22646480.2644
        -0.000          -0.000
 -11846545.901 9  -8944173.28047  22764570.785    22764570.4964   22764579.0364
        -0.000          -0.000
 -16043117.135 9 -12482235.71147  22413550.338    22413550.1024   22413561.1184
        -0.000          -0.000
 -16775768.609 9 -12532382.49346  22709071.865    22709071.5964   22709082.2774
        -0.000          -0.000
 99  5 11  2 27 30.0000000  0  9 25  3 29 23 21  8 31  1 17          0.000000094
  -2985639.291 8  -2300713.03345  25009674.652    25009674.8564   25009694.3074
        -0.000          -0.000
 -20970029.953 9 -16325499.03248  21714891.119    21714891.0744   21714899.7604
        -0.000          -0.000
 -25529848.161 9 -16649277.38849  20443448.219    20443448.2754   20443454.8144
        -0.000          -0.000
 -14618788.140 9 -11363445.68547  22394499.554    22394499.1114   22394506.7414
        -0.000          -0.000
 -25412715.052 9 -19254715.00348  21029624.607    21029624.3944   21029631.6154
        -0.000          -0.000
  -5365486.521 9  -3772084.89146  22638525.145    22638524.6064   22638534.3374
        -0.000          -0.000
 -11873851.552 9  -8965450.39647  22759374.678    22759374.3334   22759382.9674
        -0.000          -0.000
 -16130580.678 9 -12550388.92247  22396906.510    22396906.2154   22396917.0174
        -0.000          -0.000
 -16694209.377 9 -12468829.89346  22724592.297    22724591.9124   22724602.7744
        -0.000          -0.000
 99  5 11  2 28  0.0000000  0  9 25  3 29 23 21  8 31  1 17          0.000000113
  -3077997.600 8  -2372679.84745  24992098.026    24992098.5044   24992118.4864
        -0.000          -0.000
 -20934449.429 9 -16297773.97348  21721661.813    21721661.7574   21721670.4944
        -0.000          -0.000
 -25562017.008 9 -16674343.95549  20437326.615    20437326.7034   20437333.2164
        -0.000          -0.000
 -14571185.333 9 -11326352.59947  22403558.068    22403557.6704   22403565.3464
        -0.000          -0.000
 -25416818.100 9 -19257912.17048  21028843.835    21028843.6144   21028850.8534
        -0.000          -0.000
  -5406816.171 9  -3804289.67646  22630660.224    22630659.7604   22630669.2914
        -0.000          -0.000
 -11900644.182 9  -8986327.75447  22754276.079    22754275.7734   22754284.4844
        -0.000          -0.000
 -16217795.301 9 -12618348.16747  22380309.900    22380309.5954   22380320.2964
        -0.000          -0.000
 -16612380.529 9 -12405067.18946  22740163.642    22740163.3534   22740174.4054
        -0.000          -0.000
 99  5 11  2 28 30.0000000  0  9 25  3 29 23 21  8 31  1 17          0.000000103
  -3170531.957 8  -2444783.85945  24974488.092    24974488.5934   24974508.8594
        -0.000          -0.000
 -20898401.578 9 -16269684.75548  21728521.220    21728521.2684   21728530.1604
        -0.000          -0.000
 -25593727.469 9 -16699053.34449  20431292.341    20431292.4214   20431298.8724
        -0.000          -0.000
 -14523549.648 9 -11289233.90947  22412622.736    22412622.3854   22412630.1914
        -0.000          -0.000
 -25420813.242 9 -19261025.25849  21028083.669    21028083.4314   21028090.6144
        -0.000          -0.000
  -5447699.394 9  -3836146.61546  22622880.457    22622879.9164   22622889.3904
        -0.000          -0.000
 -11926939.022 9  -9006817.22247  22749272.172    22749271.8774   22749280.7114
        -0.000          -0.000
 -16304748.907 9 -12686104.05347  22363762.935    22363762.7994   22363773.2944
        -0.000          -0.000
 -16530233.790 9 -12341056.84846  22755795.828    22755795.4614   22755806.2124
        -0.000          -0.000
 99  5 11  2 29  0.0000000  0  9 25  3 29 23 21  8 31  1 17          0.000000094
  -3263169.020 8  -2516967.85945  24956859.357    24956859.7364   24956879.8294
        -0.000          -0.000
 -20861814.280 9 -16241175.19348  21735483.731    21735483.6684   21735492.3534
        -0.000          -0.000
 -25624894.209 9 -16723339.05549  20425361.483    20425361.5674   20425367.9544
        -0.000          -0.000
 -14475782.506 9 -11252012.78047  22421712.443    22421712.0824   22421720.0344
        -0.000          -0.000
 -25424628.870 9 -19263998.45749  21027357.651    21027357.3834   21027364.4724
        -0.000          -0.000
  -5488068.521 9  -3867602.96746  22615198.391    22615197.8844   22615207.1614
        -0.000          -0.000
 -11952687.919 9  -9026881.29447  22744372.377    22744372.0494   22744380.8324
        -0.000          -0.000
 -16391353.590 9 -12753588.03247  22347282.797    22347282.4594   22347292.7374
        -0.000          -0.000
 -16447696.114 8 -12276741.89445  22771502.167    22771501.9474   22771512.4284
        -0.000          -0.000
 99  5 11  2 29 30.0000000  0  9 25  3 29 23 21  8 31  1 17          0.000000059
  -3355919.186 8  -2589240.01845  24939210.124    24939209.8344   24939229.0994
        -0.000          -0.000
 -20824714.127 9 -16212266.00348  21742543.842    21742543.6804   21742552.2434
        -0.000          -0.000
 -25655523.190 9 -16747205.73849  20419532.922    20419533.0024   20419539.3394
        -0.000          -0.000
 -14427912.540 9 -11214711.53447  22430821.827    22430821.4554   22430829.4794
        -0.000          -0.000
 -25428295.145 9 -19266855.27149  21026660.009    21026659.7174   21026666.7804
        -0.000          -0.000
  -5527947.897 9  -3898677.70646  22607609.716    22607609.2084   22607618.3774
        -0.000          -0.000
 -11977908.352 9  -9046533.58447  22739573.159    22739572.8614   22739581.5964
        -0.000          -0.000
 -16477626.250 9 -12820813.29647  22330865.454    22330865.2044   22330875.2314
        -0.000          -0.000
 -16364820.416 8 -12212163.54945  22787272.743    22787272.5694   22787283.2084
        -0.000          -0.000
 99  5 11  2 30  0.0000000  0  9 25  3 29 23 21  8 31  1 17          0.000000018
  -3448738.104 8  -2661565.73445  24921547.341    24921546.8924   24921565.2784
        -0.000          -0.000
 -20787074.464 9 -16182936.41148  21749706.586    21749706.3714   21749714.9514
        -0.000          -0.000
 -25685577.664 9 -16770624.74549  20413813.684    20413813.7814   20413820.0424
        -0.000          -0.000
 -14379917.410 9 -11177312.76147  22439954.944    22439954.5734   22439962.7744
        -0.000          -0.000
 -25431792.293 9 -19269580.30848  21025994.427    21025994.1574   21026001.2604
        -0.000          -0.000
  -5567321.465 9  -3929358.28646  22600116.896    22600116.4364   22600125.9274
        -0.000          -0.000
 -12002561.432 9  -9065743.76547  22734881.963    22734881.5594   22734890.3514
        -0.000          -0.000
 -16563527.127 9 -12887748.85447  22314518.898    22314518.6904   22314528.5164
        -0.000          -0.000
 -16281578.739 8 -12147299.94545  22803113.307    22803113.0234   22803123.7044
        -0.000          -0.000
 99  5 11  2 30 30.0000000  0  9 25  3 29 23 21  8 31  1 17         -0.000000013
  -3541614.419 7  -2733936.17845  24903872.857    24903872.5424   24903890.5964
        -0.000          -0.000
 -20748875.878 9 -16153171.29848  21756975.471    21756975.2704   21756984.0014
        -0.000          -0.000
 -25715065.233 9 -16793602.01049  20408202.375    20408202.4364   20408208.7104
        -0.000          -0.000
 -14331810.344 9 -11139826.74547  22449109.299    22449109.0354   22449117.2954
        -0.000          -0.000
 -25435108.562 9 -19272164.40048  21025363.303    21025363.1044   21025370.0904
        -0.000          -0.000
  -5606196.371 9  -3959650.29446  22592718.894    22592718.5374   22592728.1784
        -0.000          -0.000
 -12026618.028 9  -9084489.17547  22730304.130    22730303.7284   22730312.5074
        -0.000          -0.000
 -16649025.112 9 -12954370.46747  22298249.284    22298248.8744   22298258.6384
        -0.000          -0.000
 -16197983.766 8 -12082161.04645  22819021.312    22819020.9094   22819031.4284
        -0.000          -0.000
 99  5 11  2 31  0.0000000  0  9 25  3 29 23 21  8 31  1 17         -0.000000030
  -3634590.320 7  -2806384.35245  24886178.181    24886178.5084   24886197.2934
        -0.000          -0.000
 -20710139.797 9 -16122987.35648  21764346.562    21764346.4274   21764355.3114
        -0.000          -0.000
 -25744039.716 9 -16816179.47549  20402688.688    20402688.7534   20402695.0574
        -0.000          -0.000
 -14283625.879 9 -11102280.41347  22458278.574    22458278.2674   22458286.3444
        -0.000          -0.000
 -25438271.793 9 -19274629.22549  21024761.575    21024761.3004   21024768.1134
        -0.000          -0.000
  -5644600.312 9  -3989575.39645  22585410.478    22585410.2074   22585419.8964
        -0.000          -0.000
 -12050078.514 9  -9102770.07447  22725839.853    22725839.3394   22725848.0424
        -0.000          -0.000
 -16734150.334 9 -13020701.63647  22282050.189    22282049.8794   22282059.8774
        -0.000          -0.000
 -16114086.746 8 -12016786.78845  22834986.515    22834985.9894   22834996.4494
        -0.000          -0.000
 99  5 11  2 31 30.0000000  0  9 25  3 29 23 21  8 31  1 17         -0.000000029
  -3727689.962 8  -2878928.91645  24868461.958    24868462.1324   24868480.5374
        -0.000          -0.000
 -20670882.394 9 -16092397.19448  21771817.099    21771816.9754   21771825.6924
        -0.000          -0.000
 -25772543.486 9 -16838390.15149  20397264.417    20397264.5184   20397270.9024
        -0.000          -0.000
 -14235406.412 9 -11064706.83447  22467454.544    22467454.1954   22467462.1704
        -0.000          -0.000
 -25441308.163 9 -19276995.21049  21024183.802    21024183.4414   21024190.4084
        -0.000          -0.000
  -5682552.054 9  -4019148.09946  22578188.821    22578188.4254   22578197.4624
        -0.000          -0.000
 -12072941.247 9  -9120585.20947  22721489.286    22721488.7314   22721497.4274
        -0.000          -0.000
 -16818952.591 9 -13086781.14147  22265912.685    22265912.4504   22265922.5184
        -0.000          -0.000
 -16029914.613 8 -11951198.19645  22851003.711    22851003.1594   22851013.8214
        -0.000          -0.000
 99  5 11  2 32  0.0000000  0  9 25  3 29 23 21  8 31  1 17         -0.000000012
  -3820924.184 8  -2951578.32145  24850720.585    24850719.9544   24850738.8464
        -0.000          -0.000
 -20631116.295 9 -16061410.64748  21779384.510    21779384.3454   21779392.9504
        -0.000          -0.000
 -25800592.031 9 -16860246.10449  20391926.806    20391926.9234   20391933.4364
        -0.000          -0.000
 -14187170.661 9 -11027120.56847  22476633.588    22476633.2904   22476641.3344
        -0.000          -0.000
 -25444213.836 9 -19279259.35649  21023630.752    21023630.4344   21023637.5444
        -0.000          -0.000
  -5720060.101 9  -4048374.99946  22571051.617    22571051.0964   22571059.6324
        -0.000          -0.000
 -12095217.678 9  -9137943.48647  22717250.202    22717249.5854   22717258.1564
        -0.000          -0.000
 -16903443.365 9 -13152617.93047  22249834.607    22249834.2714   22249844.3104
        -0.000          -0.000
 -15945453.323 8 -11885384.31445  22867076.497    22867075.9934   22867086.3864
        -0.000          -0.000
 99  5 11  2 32 30.0000000  0  9 25  3 29 23 21  8 31  1 17          0.000000003
  -3914319.481 8  -3024353.23745  24832947.996    24832947.2414   24832965.5194
        -0.000          -0.000
 -20590859.021 9 -16030041.36648  21787045.180    21787045.0234   21787053.7734
        -0.000          -0.000
 -25828200.357 9 -16881759.02149  20386673.157    20386673.2804   20386679.7854
        -0.000          -0.000
 -14138929.552 9 -10989530.13247  22485813.831    22485813.4654   22485821.5784
        -0.000          -0.000
 -25446998.434 9 -19281429.15349  21023100.859    21023100.5004   21023107.6384
        -0.000          -0.000
  -5757122.766 9  -4077254.83946  22563998.936    22563998.4694   22564006.5934
        -0.000          -0.000
 -12116931.170 9  -9154863.10147  22713118.252    22713117.6764   22713126.0444
        -0.000          -0.000
 -16987647.269 9 -13218231.18547  22233810.911    22233810.6434   22233820.6184
        -0.000          -0.000
 -15860719.452 8 -11819357.97445  22883200.784    22883200.3404   22883210.5594
        -0.000          -0.000
 99  5 11  2 33  0.0000000  0  9 25  3 29 23 21  8 31  1 17          0.000000005
  -4007866.497 8  -3097246.42845  24815145.468    24815144.7944   24815162.8724
        -0.000          -0.000
 -20550121.387 9 -15998297.77148  21794797.006    21794796.9564   21794805.7904
        -0.000          -0.000
 -25855347.898 9 -16902912.88549  20381507.248    20381507.3464   20381513.8084
        -0.000          -0.000
 -14090664.652 9 -10951921.13747  22494998.384    22494998.0174   22495006.1244
        -0.000          -0.000
 -25449666.104 9 -19283507.83049  21022593.222    21022592.8724   21022599.9704
        -0.000          -0.000
  -5793722.963 9  -4105774.35446  22557034.271    22557033.6814   22557041.6284
        -0.000          -0.000
 -12138092.971 9  -9171352.80947  22709091.560    22709090.8244   22709099.0534
        -0.000          -0.000
 -17071576.797 9 -13283630.64147  22217839.508    22217839.2514   22217849.1784
        -0.000          -0.000
 -15775708.640 8 -11753115.78445  22899377.487    22899377.1714   22899387.5514
        -0.000          -0.000
 99  5 11  2 33 30.0000000  0  9 25  3 29 23 21  8 31  1 17         -0.000000016
  -4101518.629 8  -3170221.47945  24797322.699    24797322.8224   24797340.8484
        -0.000          -0.000
 -20508896.054 9 -15966174.15848  21802641.852    21802641.8154   21802650.5504
        -0.000          -0.000
 -25881973.733 9 -16923660.22949  20376440.475    20376440.5744   20376446.9204
        -0.000          -0.000
 -14042354.664 9 -10914277.02147  22504191.328    22504190.9934   22504199.1044
        -0.000          -0.000
 -25452185.624 9 -19285471.06749  21022113.839    21022113.4644   21022120.5554
        -0.000          -0.000
  -5829835.742 8  -4133914.10946  22550162.019    22550161.3994   22550169.5914
        -0.000          -0.000
 -12158689.841 9  -9187402.30647  22705171.864    22705171.3274   22705179.6614
        -0.000          -0.000
 -17155197.924 9 -13348789.79647  22201926.756    22201926.5064   22201936.3424
        -0.000          -0.000
 -15690387.898 8 -11686632.13645  22915613.736    22915613.3204   22915623.4754
        -0.000          -0.000
 99  5 11  2 34  0.0000000  0  9 25  3 29 23 21  8 31  1 17         -0.000000036
  -4195209.964 9  -3243227.11045  24779493.709    24779493.8724   24779511.8694
        -0.000          -0.000
 -20467150.508 9 -15933645.18048  21810585.798    21810585.7754   21810594.3474
        -0.000          -0.000
 -25908017.394 9 -16943953.93849  20371484.502    20371484.6154   20371490.8044
        -0.000          -0.000
 -13993937.876 9 -10876549.67347  22513404.684    22513404.3144   22513412.3594
        -0.000          -0.000
 -25454490.880 9 -19287267.34749  21021675.087    21021674.7284   21021681.9354
        -0.000          -0.000
  -5865396.811 8  -4161623.93946  22543394.469    22543394.0134   22543402.5084
        -0.000          -0.000
 -12178682.241 9  -9202980.79447  22701367.347    22701366.8014   22701375.2964
        -0.000          -0.000
 -17238434.387 9 -13413649.21847  22186087.317    22186087.0824   22186096.7324
        -0.000          -0.000
 -15604700.861 8 -11619863.12045  22931919.714    22931919.3024   22931929.1314
        -0.000          -0.000
 99  5 11  2 34 30.0000000  0  9 25  3 29 23 21  8 31  1 17         -0.000000044
  -4288934.697 8  -3316258.80245  24761659.097    24761659.3094   24761676.7494
        -0.000          -0.000
 -20424876.631 9 -15900704.52448  21818630.443    21818630.4164   21818638.8014
        -0.000          -0.000
 -25933489.688 9 -16963802.41649  20366637.260    20366637.3614   20366643.4754
        -0.000          -0.000
 -13945396.137 9 -10838724.96847  22522641.897    22522641.5094   22522649.5114
        -0.000          -0.000
 -25456582.688 9 -19288897.31049  21021276.839    21021276.5434   21021283.8664
        -0.000          -0.000
  -5900392.516 9  -4188893.20046  22536734.641    22536734.2344   22536743.2404
        -0.000          -0.000
 -12198071.188 9  -9218089.05947  22697677.645    22697677.1654   22697685.6984
        -0.000          -0.000
 -17321275.398 9 -13478200.48447  22170323.214    22170322.9254   22170332.4454
        -0.000          -0.000
 -15518654.104 8 -11552813.80645  22948294.136    22948293.5674   22948303.2264
        -0.000          -0.000
 99  5 11  2 35  0.0000000  0  9 25  3 29 23 21  8 31  1 17         -0.000000055
  -4382730.530 9  -3389345.90645  24743810.358    24743810.5574   24743827.9184
        -0.000          -0.000
 -20382118.025 9 -15867386.14048  21826767.334    21826767.2434   21826775.6654
        -0.000          -0.000
 -25958441.657 9 -16983245.44449  20361888.991    20361889.0784   20361895.2354
        -0.000          -0.000
 -13896780.651 9 -10800842.78247  22531893.173    22531892.7364   22531900.8444
        -0.000          -0.000
 -25458501.626 9 -19290392.56049  21020911.646    21020911.3564   21020918.6464
        -0.000          -0.000
  -5934855.368 9  -4215747.25246  22530176.492    22530176.1934   22530184.9914
        -0.000          -0.000
 -12216892.087 9  -9232754.69047  22694095.876    22694095.5354   22694104.2144
        -0.000          -0.000
 -17403746.881 9 -13542463.80447  22154629.285    22154628.9604   22154638.4434
        -0.000          -0.000
 -15432280.871 8 -11485510.05545  22964730.344    22964729.8394   22964739.5164
        -0.000          -0.000
